<?xml version="1.0" encoding="UTF-8" standalone="no" ?>
<gpx xmlns="http://www.topografix.com/GPX/1/1" xmlns:xsi="http://www.w3.org/2001/XMLSchema-instance" xsi:schemaLocation="http://www.topografix.com/GPX/1/1 http://www.topografix.com/GPX/1/1/gpx.xsd" version="1.1" creator="VisuGPX - https://www.visugpx.com">
  <metadata>
    <name>pontoise_lileadam</name>
    <desc><![CDATA[power hike du 18-09-2016 entre pontoise et l'isle adam]]></desc>
  </metadata>
  <trk>
    <name><![CDATA[18 sept. 2016 09:40:57]]></name>
    <trkseg>
      <trkpt lat="49.06213" lon="2.10826">
        <ele>118</ele>
        <time>2016-09-18T07:40:58.000Z</time>
      </trkpt>
      <trkpt lat="49.06224" lon="2.10826">
        <ele>111</ele>
        <time>2016-09-18T07:43:30.000Z</time>
      </trkpt>
      <trkpt lat="49.06235" lon="2.10826">
        <ele>110</ele>
        <time>2016-09-18T07:43:38.000Z</time>
      </trkpt>
      <trkpt lat="49.06245" lon="2.1083">
        <ele>107</ele>
        <time>2016-09-18T07:43:48.000Z</time>
      </trkpt>
      <trkpt lat="49.06254" lon="2.10835">
        <ele>109</ele>
        <time>2016-09-18T07:43:55.000Z</time>
      </trkpt>
      <trkpt lat="49.06265" lon="2.10834">
        <ele>110</ele>
        <time>2016-09-18T07:44:01.000Z</time>
      </trkpt>
      <trkpt lat="49.06276" lon="2.10837">
        <ele>113</ele>
        <time>2016-09-18T07:44:10.000Z</time>
      </trkpt>
      <trkpt lat="49.06287" lon="2.10841">
        <ele>114</ele>
        <time>2016-09-18T07:44:20.000Z</time>
      </trkpt>
      <trkpt lat="49.06298" lon="2.10843">
        <ele>113</ele>
        <time>2016-09-18T07:44:30.000Z</time>
      </trkpt>
      <trkpt lat="49.06307" lon="2.1085">
        <ele>115</ele>
        <time>2016-09-18T07:44:36.000Z</time>
      </trkpt>
      <trkpt lat="49.06316" lon="2.10846">
        <ele>113</ele>
        <time>2016-09-18T07:44:40.000Z</time>
      </trkpt>
      <trkpt lat="49.06326" lon="2.10848">
        <ele>113</ele>
        <time>2016-09-18T07:44:47.000Z</time>
      </trkpt>
      <trkpt lat="49.06334" lon="2.10857">
        <ele>121</ele>
        <time>2016-09-18T07:44:55.000Z</time>
      </trkpt>
      <trkpt lat="49.06343" lon="2.10858">
        <ele>122</ele>
        <time>2016-09-18T07:45:01.000Z</time>
      </trkpt>
      <trkpt lat="49.06353" lon="2.10861">
        <ele>120</ele>
        <time>2016-09-18T07:45:07.000Z</time>
      </trkpt>
      <trkpt lat="49.06362" lon="2.10868">
        <ele>125</ele>
        <time>2016-09-18T07:45:20.000Z</time>
      </trkpt>
      <trkpt lat="49.06371" lon="2.10871">
        <ele>119</ele>
        <time>2016-09-18T07:45:28.000Z</time>
      </trkpt>
      <trkpt lat="49.06381" lon="2.10876">
        <ele>113</ele>
        <time>2016-09-18T07:45:36.000Z</time>
      </trkpt>
      <trkpt lat="49.0639" lon="2.1088">
        <ele>116</ele>
        <time>2016-09-18T07:45:42.000Z</time>
      </trkpt>
      <trkpt lat="49.06402" lon="2.10888">
        <ele>113</ele>
        <time>2016-09-18T07:45:50.000Z</time>
      </trkpt>
      <trkpt lat="49.06413" lon="2.10895">
        <ele>114</ele>
        <time>2016-09-18T07:45:59.000Z</time>
      </trkpt>
      <trkpt lat="49.06422" lon="2.10898">
        <ele>116</ele>
        <time>2016-09-18T07:46:06.000Z</time>
      </trkpt>
      <trkpt lat="49.0643" lon="2.10903">
        <ele>115</ele>
        <time>2016-09-18T07:46:12.000Z</time>
      </trkpt>
      <trkpt lat="49.06443" lon="2.10909">
        <ele>112</ele>
        <time>2016-09-18T07:46:18.000Z</time>
      </trkpt>
      <trkpt lat="49.06452" lon="2.10912">
        <ele>113</ele>
        <time>2016-09-18T07:46:25.000Z</time>
      </trkpt>
      <trkpt lat="49.06458" lon="2.10901">
        <ele>112</ele>
        <time>2016-09-18T07:46:32.000Z</time>
      </trkpt>
      <trkpt lat="49.06467" lon="2.10888">
        <ele>120</ele>
        <time>2016-09-18T07:46:41.000Z</time>
      </trkpt>
      <trkpt lat="49.06476" lon="2.10879">
        <ele>124</ele>
        <time>2016-09-18T07:46:47.000Z</time>
      </trkpt>
      <trkpt lat="49.06485" lon="2.10866">
        <ele>118</ele>
        <time>2016-09-18T07:46:55.000Z</time>
      </trkpt>
      <trkpt lat="49.06486" lon="2.10852">
        <ele>119</ele>
        <time>2016-09-18T07:47:05.000Z</time>
      </trkpt>
      <trkpt lat="49.06494" lon="2.10841">
        <ele>123</ele>
        <time>2016-09-18T07:47:11.000Z</time>
      </trkpt>
      <trkpt lat="49.06502" lon="2.10832">
        <ele>122</ele>
        <time>2016-09-18T07:47:16.000Z</time>
      </trkpt>
      <trkpt lat="49.06508" lon="2.10822">
        <ele>121</ele>
        <time>2016-09-18T07:47:27.000Z</time>
      </trkpt>
      <trkpt lat="49.06519" lon="2.10821">
        <ele>125</ele>
        <time>2016-09-18T07:47:33.000Z</time>
      </trkpt>
      <trkpt lat="49.06529" lon="2.10818">
        <ele>122</ele>
        <time>2016-09-18T07:47:41.000Z</time>
      </trkpt>
      <trkpt lat="49.06538" lon="2.1082">
        <ele>118</ele>
        <time>2016-09-18T07:47:47.000Z</time>
      </trkpt>
      <trkpt lat="49.06549" lon="2.10821">
        <ele>119</ele>
        <time>2016-09-18T07:47:53.000Z</time>
      </trkpt>
      <trkpt lat="49.06558" lon="2.1082">
        <ele>118</ele>
        <time>2016-09-18T07:48:00.000Z</time>
      </trkpt>
      <trkpt lat="49.06567" lon="2.10818">
        <ele>116</ele>
        <time>2016-09-18T07:48:07.000Z</time>
      </trkpt>
      <trkpt lat="49.06577" lon="2.10818">
        <ele>111</ele>
        <time>2016-09-18T07:48:16.000Z</time>
      </trkpt>
      <trkpt lat="49.06587" lon="2.10821">
        <ele>108</ele>
        <time>2016-09-18T07:48:21.000Z</time>
      </trkpt>
      <trkpt lat="49.06595" lon="2.10828">
        <ele>107</ele>
        <time>2016-09-18T07:48:27.000Z</time>
      </trkpt>
      <trkpt lat="49.06603" lon="2.10833">
        <ele>109</ele>
        <time>2016-09-18T07:48:33.000Z</time>
      </trkpt>
      <trkpt lat="49.06613" lon="2.10837">
        <ele>108</ele>
        <time>2016-09-18T07:48:40.000Z</time>
      </trkpt>
      <trkpt lat="49.06619" lon="2.1085">
        <ele>111</ele>
        <time>2016-09-18T07:48:47.000Z</time>
      </trkpt>
      <trkpt lat="49.06627" lon="2.10856">
        <ele>114</ele>
        <time>2016-09-18T07:48:53.000Z</time>
      </trkpt>
      <trkpt lat="49.06635" lon="2.10864">
        <ele>109</ele>
        <time>2016-09-18T07:48:59.000Z</time>
      </trkpt>
      <trkpt lat="49.06646" lon="2.10874">
        <ele>105</ele>
        <time>2016-09-18T07:49:07.000Z</time>
      </trkpt>
      <trkpt lat="49.06654" lon="2.10882">
        <ele>105</ele>
        <time>2016-09-18T07:49:13.000Z</time>
      </trkpt>
      <trkpt lat="49.06662" lon="2.10892">
        <ele>103</ele>
        <time>2016-09-18T07:49:19.000Z</time>
      </trkpt>
      <trkpt lat="49.0667" lon="2.10894">
        <ele>102</ele>
        <time>2016-09-18T07:49:27.000Z</time>
      </trkpt>
      <trkpt lat="49.06678" lon="2.10903">
        <ele>107</ele>
        <time>2016-09-18T07:49:34.000Z</time>
      </trkpt>
      <trkpt lat="49.06686" lon="2.10911">
        <ele>110</ele>
        <time>2016-09-18T07:49:41.000Z</time>
      </trkpt>
      <trkpt lat="49.06693" lon="2.10922">
        <ele>110</ele>
        <time>2016-09-18T07:49:49.000Z</time>
      </trkpt>
      <trkpt lat="49.06702" lon="2.10926">
        <ele>107</ele>
        <time>2016-09-18T07:49:56.000Z</time>
      </trkpt>
      <trkpt lat="49.06712" lon="2.10924">
        <ele>104</ele>
        <time>2016-09-18T07:50:04.000Z</time>
      </trkpt>
      <trkpt lat="49.0672" lon="2.10919">
        <ele>103</ele>
        <time>2016-09-18T07:50:11.000Z</time>
      </trkpt>
      <trkpt lat="49.0673" lon="2.10915">
        <ele>105</ele>
        <time>2016-09-18T07:50:18.000Z</time>
      </trkpt>
      <trkpt lat="49.0674" lon="2.10909">
        <ele>107</ele>
        <time>2016-09-18T07:50:25.000Z</time>
      </trkpt>
      <trkpt lat="49.06752" lon="2.10906">
        <ele>111</ele>
        <time>2016-09-18T07:50:29.000Z</time>
      </trkpt>
      <trkpt lat="49.06761" lon="2.10899">
        <ele>111</ele>
        <time>2016-09-18T07:50:40.000Z</time>
      </trkpt>
      <trkpt lat="49.06771" lon="2.10895">
        <ele>113</ele>
        <time>2016-09-18T07:50:46.000Z</time>
      </trkpt>
      <trkpt lat="49.06781" lon="2.10891">
        <ele>115</ele>
        <time>2016-09-18T07:50:51.000Z</time>
      </trkpt>
      <trkpt lat="49.06792" lon="2.10889">
        <ele>119</ele>
        <time>2016-09-18T07:50:58.000Z</time>
      </trkpt>
      <trkpt lat="49.06801" lon="2.10884">
        <ele>121</ele>
        <time>2016-09-18T07:51:05.000Z</time>
      </trkpt>
      <trkpt lat="49.0681" lon="2.1088">
        <ele>123</ele>
        <time>2016-09-18T07:51:12.000Z</time>
      </trkpt>
      <trkpt lat="49.06822" lon="2.10877">
        <ele>125</ele>
        <time>2016-09-18T07:51:18.000Z</time>
      </trkpt>
      <trkpt lat="49.06833" lon="2.10872">
        <ele>128</ele>
        <time>2016-09-18T07:51:23.000Z</time>
      </trkpt>
      <trkpt lat="49.06842" lon="2.10868">
        <ele>128</ele>
        <time>2016-09-18T07:51:29.000Z</time>
      </trkpt>
      <trkpt lat="49.06851" lon="2.10865">
        <ele>126</ele>
        <time>2016-09-18T07:51:38.000Z</time>
      </trkpt>
      <trkpt lat="49.06861" lon="2.10861">
        <ele>126</ele>
        <time>2016-09-18T07:51:44.000Z</time>
      </trkpt>
      <trkpt lat="49.06865" lon="2.10848">
        <ele>116</ele>
        <time>2016-09-18T07:51:57.000Z</time>
      </trkpt>
      <trkpt lat="49.06875" lon="2.10844">
        <ele>116</ele>
        <time>2016-09-18T07:52:05.000Z</time>
      </trkpt>
      <trkpt lat="49.06885" lon="2.10838">
        <ele>114</ele>
        <time>2016-09-18T07:52:14.000Z</time>
      </trkpt>
      <trkpt lat="49.06897" lon="2.10833">
        <ele>115</ele>
        <time>2016-09-18T07:52:21.000Z</time>
      </trkpt>
      <trkpt lat="49.06906" lon="2.10829">
        <ele>117</ele>
        <time>2016-09-18T07:52:27.000Z</time>
      </trkpt>
      <trkpt lat="49.06915" lon="2.10824">
        <ele>115</ele>
        <time>2016-09-18T07:52:34.000Z</time>
      </trkpt>
      <trkpt lat="49.06924" lon="2.10821">
        <ele>117</ele>
        <time>2016-09-18T07:52:39.000Z</time>
      </trkpt>
      <trkpt lat="49.06935" lon="2.10818">
        <ele>120</ele>
        <time>2016-09-18T07:53:07.000Z</time>
      </trkpt>
      <trkpt lat="49.06944" lon="2.1082">
        <ele>117</ele>
        <time>2016-09-18T07:53:14.000Z</time>
      </trkpt>
      <trkpt lat="49.06955" lon="2.10824">
        <ele>117</ele>
        <time>2016-09-18T07:53:22.000Z</time>
      </trkpt>
      <trkpt lat="49.06965" lon="2.10826">
        <ele>119</ele>
        <time>2016-09-18T07:53:28.000Z</time>
      </trkpt>
      <trkpt lat="49.06974" lon="2.1083">
        <ele>120</ele>
        <time>2016-09-18T07:53:33.000Z</time>
      </trkpt>
      <trkpt lat="49.06984" lon="2.10834">
        <ele>121</ele>
        <time>2016-09-18T07:53:41.000Z</time>
      </trkpt>
      <trkpt lat="49.06993" lon="2.10839">
        <ele>123</ele>
        <time>2016-09-18T07:53:48.000Z</time>
      </trkpt>
      <trkpt lat="49.07002" lon="2.10837">
        <ele>119</ele>
        <time>2016-09-18T07:53:55.000Z</time>
      </trkpt>
      <trkpt lat="49.07012" lon="2.1084">
        <ele>119</ele>
        <time>2016-09-18T07:54:05.000Z</time>
      </trkpt>
      <trkpt lat="49.07021" lon="2.10841">
        <ele>116</ele>
        <time>2016-09-18T07:54:12.000Z</time>
      </trkpt>
      <trkpt lat="49.07031" lon="2.10847">
        <ele>117</ele>
        <time>2016-09-18T07:54:21.000Z</time>
      </trkpt>
      <trkpt lat="49.07041" lon="2.10851">
        <ele>117</ele>
        <time>2016-09-18T07:54:28.000Z</time>
      </trkpt>
      <trkpt lat="49.07051" lon="2.10854">
        <ele>118</ele>
        <time>2016-09-18T07:54:37.000Z</time>
      </trkpt>
      <trkpt lat="49.07061" lon="2.10856">
        <ele>118</ele>
        <time>2016-09-18T07:54:43.000Z</time>
      </trkpt>
      <trkpt lat="49.07072" lon="2.10859">
        <ele>121</ele>
        <time>2016-09-18T07:54:50.000Z</time>
      </trkpt>
      <trkpt lat="49.07084" lon="2.1086">
        <ele>123</ele>
        <time>2016-09-18T07:54:56.000Z</time>
      </trkpt>
      <trkpt lat="49.07093" lon="2.10862">
        <ele>124</ele>
        <time>2016-09-18T07:55:03.000Z</time>
      </trkpt>
      <trkpt lat="49.07103" lon="2.10869">
        <ele>124</ele>
        <time>2016-09-18T07:55:12.000Z</time>
      </trkpt>
      <trkpt lat="49.07112" lon="2.10872">
        <ele>127</ele>
        <time>2016-09-18T07:55:18.000Z</time>
      </trkpt>
      <trkpt lat="49.07122" lon="2.10879">
        <ele>125</ele>
        <time>2016-09-18T07:55:25.000Z</time>
      </trkpt>
      <trkpt lat="49.0713" lon="2.10884">
        <ele>128</ele>
        <time>2016-09-18T07:55:31.000Z</time>
      </trkpt>
      <trkpt lat="49.07142" lon="2.10889">
        <ele>131</ele>
        <time>2016-09-18T07:55:40.000Z</time>
      </trkpt>
      <trkpt lat="49.07151" lon="2.10895">
        <ele>132</ele>
        <time>2016-09-18T07:55:47.000Z</time>
      </trkpt>
      <trkpt lat="49.07161" lon="2.10903">
        <ele>128</ele>
        <time>2016-09-18T07:55:55.000Z</time>
      </trkpt>
      <trkpt lat="49.07171" lon="2.10907">
        <ele>121</ele>
        <time>2016-09-18T07:56:01.000Z</time>
      </trkpt>
      <trkpt lat="49.0718" lon="2.10914">
        <ele>113</ele>
        <time>2016-09-18T07:56:10.000Z</time>
      </trkpt>
      <trkpt lat="49.07189" lon="2.1092">
        <ele>114</ele>
        <time>2016-09-18T07:56:17.000Z</time>
      </trkpt>
      <trkpt lat="49.07198" lon="2.10931">
        <ele>112</ele>
        <time>2016-09-18T07:56:25.000Z</time>
      </trkpt>
      <trkpt lat="49.07206" lon="2.1094">
        <ele>115</ele>
        <time>2016-09-18T07:56:33.000Z</time>
      </trkpt>
      <trkpt lat="49.07216" lon="2.10947">
        <ele>123</ele>
        <time>2016-09-18T07:56:41.000Z</time>
      </trkpt>
      <trkpt lat="49.07224" lon="2.10954">
        <ele>122</ele>
        <time>2016-09-18T07:56:48.000Z</time>
      </trkpt>
      <trkpt lat="49.0723" lon="2.10966">
        <ele>119</ele>
        <time>2016-09-18T07:56:55.000Z</time>
      </trkpt>
      <trkpt lat="49.07237" lon="2.10975">
        <ele>121</ele>
        <time>2016-09-18T07:57:02.000Z</time>
      </trkpt>
      <trkpt lat="49.07246" lon="2.10984">
        <ele>124</ele>
        <time>2016-09-18T07:57:09.000Z</time>
      </trkpt>
      <trkpt lat="49.07253" lon="2.10996">
        <ele>124</ele>
        <time>2016-09-18T07:57:19.000Z</time>
      </trkpt>
      <trkpt lat="49.07261" lon="2.11002">
        <ele>127</ele>
        <time>2016-09-18T07:57:26.000Z</time>
      </trkpt>
      <trkpt lat="49.0727" lon="2.11011">
        <ele>129</ele>
        <time>2016-09-18T07:57:33.000Z</time>
      </trkpt>
      <trkpt lat="49.07276" lon="2.11022">
        <ele>128</ele>
        <time>2016-09-18T07:57:38.000Z</time>
      </trkpt>
      <trkpt lat="49.07283" lon="2.11031">
        <ele>129</ele>
        <time>2016-09-18T07:57:44.000Z</time>
      </trkpt>
      <trkpt lat="49.07292" lon="2.11038">
        <ele>129</ele>
        <time>2016-09-18T07:57:51.000Z</time>
      </trkpt>
      <trkpt lat="49.07299" lon="2.11048">
        <ele>130</ele>
        <time>2016-09-18T07:57:59.000Z</time>
      </trkpt>
      <trkpt lat="49.07308" lon="2.11052">
        <ele>128</ele>
        <time>2016-09-18T07:58:05.000Z</time>
      </trkpt>
      <trkpt lat="49.07318" lon="2.11059">
        <ele>132</ele>
        <time>2016-09-18T07:58:13.000Z</time>
      </trkpt>
      <trkpt lat="49.07326" lon="2.11067">
        <ele>133</ele>
        <time>2016-09-18T07:58:20.000Z</time>
      </trkpt>
      <trkpt lat="49.07335" lon="2.11078">
        <ele>133</ele>
        <time>2016-09-18T07:58:29.000Z</time>
      </trkpt>
      <trkpt lat="49.07343" lon="2.11089">
        <ele>133</ele>
        <time>2016-09-18T07:58:37.000Z</time>
      </trkpt>
      <trkpt lat="49.07354" lon="2.11096">
        <ele>134</ele>
        <time>2016-09-18T07:58:44.000Z</time>
      </trkpt>
      <trkpt lat="49.07364" lon="2.11108">
        <ele>133</ele>
        <time>2016-09-18T07:58:51.000Z</time>
      </trkpt>
      <trkpt lat="49.07372" lon="2.11116">
        <ele>117</ele>
        <time>2016-09-18T07:58:58.000Z</time>
      </trkpt>
      <trkpt lat="49.0738" lon="2.11121">
        <ele>128</ele>
        <time>2016-09-18T07:59:04.000Z</time>
      </trkpt>
      <trkpt lat="49.07389" lon="2.11131">
        <ele>135</ele>
        <time>2016-09-18T07:59:10.000Z</time>
      </trkpt>
      <trkpt lat="49.07397" lon="2.11145">
        <ele>138</ele>
        <time>2016-09-18T07:59:17.000Z</time>
      </trkpt>
      <trkpt lat="49.07407" lon="2.11152">
        <ele>138</ele>
        <time>2016-09-18T07:59:24.000Z</time>
      </trkpt>
      <trkpt lat="49.07416" lon="2.11156">
        <ele>137</ele>
        <time>2016-09-18T07:59:31.000Z</time>
      </trkpt>
      <trkpt lat="49.07425" lon="2.11167">
        <ele>138</ele>
        <time>2016-09-18T07:59:39.000Z</time>
      </trkpt>
      <trkpt lat="49.07432" lon="2.1118">
        <ele>140</ele>
        <time>2016-09-18T07:59:45.000Z</time>
      </trkpt>
      <trkpt lat="49.07439" lon="2.11191">
        <ele>141</ele>
        <time>2016-09-18T07:59:53.000Z</time>
      </trkpt>
      <trkpt lat="49.07447" lon="2.11201">
        <ele>141</ele>
        <time>2016-09-18T08:00:02.000Z</time>
      </trkpt>
      <trkpt lat="49.07456" lon="2.11209">
        <ele>142</ele>
        <time>2016-09-18T08:00:08.000Z</time>
      </trkpt>
      <trkpt lat="49.07467" lon="2.11218">
        <ele>144</ele>
        <time>2016-09-18T08:00:15.000Z</time>
      </trkpt>
      <trkpt lat="49.07476" lon="2.11224">
        <ele>141</ele>
        <time>2016-09-18T08:00:21.000Z</time>
      </trkpt>
      <trkpt lat="49.07485" lon="2.11235">
        <ele>142</ele>
        <time>2016-09-18T08:00:29.000Z</time>
      </trkpt>
      <trkpt lat="49.07492" lon="2.11245">
        <ele>142</ele>
        <time>2016-09-18T08:00:38.000Z</time>
      </trkpt>
      <trkpt lat="49.075" lon="2.11256">
        <ele>144</ele>
        <time>2016-09-18T08:00:46.000Z</time>
      </trkpt>
      <trkpt lat="49.07507" lon="2.11264">
        <ele>145</ele>
        <time>2016-09-18T08:00:50.000Z</time>
      </trkpt>
      <trkpt lat="49.07517" lon="2.1127">
        <ele>142</ele>
        <time>2016-09-18T08:00:56.000Z</time>
      </trkpt>
      <trkpt lat="49.07525" lon="2.11277">
        <ele>141</ele>
        <time>2016-09-18T08:01:02.000Z</time>
      </trkpt>
      <trkpt lat="49.07534" lon="2.11281">
        <ele>137</ele>
        <time>2016-09-18T08:01:11.000Z</time>
      </trkpt>
      <trkpt lat="49.0754" lon="2.11293">
        <ele>140</ele>
        <time>2016-09-18T08:01:18.000Z</time>
      </trkpt>
      <trkpt lat="49.07549" lon="2.11297">
        <ele>140</ele>
        <time>2016-09-18T08:01:23.000Z</time>
      </trkpt>
      <trkpt lat="49.07559" lon="2.11303">
        <ele>142</ele>
        <time>2016-09-18T08:01:29.000Z</time>
      </trkpt>
      <trkpt lat="49.07569" lon="2.11304">
        <ele>143</ele>
        <time>2016-09-18T08:01:35.000Z</time>
      </trkpt>
      <trkpt lat="49.07577" lon="2.11313">
        <ele>143</ele>
        <time>2016-09-18T08:01:42.000Z</time>
      </trkpt>
      <trkpt lat="49.07587" lon="2.11315">
        <ele>145</ele>
        <time>2016-09-18T08:01:49.000Z</time>
      </trkpt>
      <trkpt lat="49.076" lon="2.11319">
        <ele>144</ele>
        <time>2016-09-18T08:01:57.000Z</time>
      </trkpt>
      <trkpt lat="49.0761" lon="2.11321">
        <ele>144</ele>
        <time>2016-09-18T08:02:05.000Z</time>
      </trkpt>
      <trkpt lat="49.07618" lon="2.11326">
        <ele>140</ele>
        <time>2016-09-18T08:02:14.000Z</time>
      </trkpt>
      <trkpt lat="49.07628" lon="2.11326">
        <ele>138</ele>
        <time>2016-09-18T08:02:20.000Z</time>
      </trkpt>
      <trkpt lat="49.07637" lon="2.11325">
        <ele>135</ele>
        <time>2016-09-18T08:02:27.000Z</time>
      </trkpt>
      <trkpt lat="49.07649" lon="2.11325">
        <ele>138</ele>
        <time>2016-09-18T08:02:32.000Z</time>
      </trkpt>
      <trkpt lat="49.07659" lon="2.11322">
        <ele>135</ele>
        <time>2016-09-18T08:02:39.000Z</time>
      </trkpt>
      <trkpt lat="49.07668" lon="2.11319">
        <ele>137</ele>
        <time>2016-09-18T08:02:45.000Z</time>
      </trkpt>
      <trkpt lat="49.07678" lon="2.11318">
        <ele>137</ele>
        <time>2016-09-18T08:02:51.000Z</time>
      </trkpt>
      <trkpt lat="49.07688" lon="2.11318">
        <ele>133</ele>
        <time>2016-09-18T08:02:59.000Z</time>
      </trkpt>
      <trkpt lat="49.07692" lon="2.11332">
        <ele>130</ele>
        <time>2016-09-18T08:03:08.000Z</time>
      </trkpt>
      <trkpt lat="49.07687" lon="2.11344">
        <ele>131</ele>
        <time>2016-09-18T08:03:14.000Z</time>
      </trkpt>
      <trkpt lat="49.07681" lon="2.11355">
        <ele>135</ele>
        <time>2016-09-18T08:03:24.000Z</time>
      </trkpt>
      <trkpt lat="49.07671" lon="2.11369">
        <ele>135</ele>
        <time>2016-09-18T08:03:33.000Z</time>
      </trkpt>
      <trkpt lat="49.07665" lon="2.11379">
        <ele>132</ele>
        <time>2016-09-18T08:03:40.000Z</time>
      </trkpt>
      <trkpt lat="49.07658" lon="2.11391">
        <ele>133</ele>
        <time>2016-09-18T08:03:45.000Z</time>
      </trkpt>
      <trkpt lat="49.07652" lon="2.11402">
        <ele>130</ele>
        <time>2016-09-18T08:03:54.000Z</time>
      </trkpt>
      <trkpt lat="49.07646" lon="2.11414">
        <ele>132</ele>
        <time>2016-09-18T08:03:59.000Z</time>
      </trkpt>
      <trkpt lat="49.0764" lon="2.11426">
        <ele>132</ele>
        <time>2016-09-18T08:04:05.000Z</time>
      </trkpt>
      <trkpt lat="49.07633" lon="2.11436">
        <ele>132</ele>
        <time>2016-09-18T08:04:13.000Z</time>
      </trkpt>
      <trkpt lat="49.07627" lon="2.11447">
        <ele>139</ele>
        <time>2016-09-18T08:04:21.000Z</time>
      </trkpt>
      <trkpt lat="49.07621" lon="2.11459">
        <ele>141</ele>
        <time>2016-09-18T08:04:30.000Z</time>
      </trkpt>
      <trkpt lat="49.07614" lon="2.11469">
        <ele>141</ele>
        <time>2016-09-18T08:04:38.000Z</time>
      </trkpt>
      <trkpt lat="49.07606" lon="2.11483">
        <ele>138</ele>
        <time>2016-09-18T08:04:49.000Z</time>
      </trkpt>
      <trkpt lat="49.076" lon="2.11495">
        <ele>137</ele>
        <time>2016-09-18T08:04:57.000Z</time>
      </trkpt>
      <trkpt lat="49.07594" lon="2.11508">
        <ele>136</ele>
        <time>2016-09-18T08:05:05.000Z</time>
      </trkpt>
      <trkpt lat="49.07587" lon="2.1152">
        <ele>135</ele>
        <time>2016-09-18T08:05:15.000Z</time>
      </trkpt>
      <trkpt lat="49.0758" lon="2.11533">
        <ele>128</ele>
        <time>2016-09-18T08:05:26.000Z</time>
      </trkpt>
      <trkpt lat="49.07575" lon="2.11547">
        <ele>132</ele>
        <time>2016-09-18T08:05:34.000Z</time>
      </trkpt>
      <trkpt lat="49.07567" lon="2.11558">
        <ele>134</ele>
        <time>2016-09-18T08:05:44.000Z</time>
      </trkpt>
      <trkpt lat="49.07559" lon="2.11573">
        <ele>132</ele>
        <time>2016-09-18T08:05:51.000Z</time>
      </trkpt>
      <trkpt lat="49.07553" lon="2.11584">
        <ele>131</ele>
        <time>2016-09-18T08:05:56.000Z</time>
      </trkpt>
      <trkpt lat="49.07547" lon="2.11595">
        <ele>134</ele>
        <time>2016-09-18T08:06:01.000Z</time>
      </trkpt>
      <trkpt lat="49.07541" lon="2.11606">
        <ele>136</ele>
        <time>2016-09-18T08:06:07.000Z</time>
      </trkpt>
      <trkpt lat="49.07536" lon="2.11618">
        <ele>139</ele>
        <time>2016-09-18T08:06:12.000Z</time>
      </trkpt>
      <trkpt lat="49.0753" lon="2.11628">
        <ele>137</ele>
        <time>2016-09-18T08:06:17.000Z</time>
      </trkpt>
      <trkpt lat="49.07523" lon="2.11641">
        <ele>128</ele>
        <time>2016-09-18T08:06:28.000Z</time>
      </trkpt>
      <trkpt lat="49.07515" lon="2.11648">
        <ele>128</ele>
        <time>2016-09-18T08:06:35.000Z</time>
      </trkpt>
      <trkpt lat="49.07507" lon="2.11662">
        <ele>125</ele>
        <time>2016-09-18T08:06:42.000Z</time>
      </trkpt>
      <trkpt lat="49.07502" lon="2.11674">
        <ele>126</ele>
        <time>2016-09-18T08:06:47.000Z</time>
      </trkpt>
      <trkpt lat="49.07495" lon="2.11687">
        <ele>127</ele>
        <time>2016-09-18T08:06:57.000Z</time>
      </trkpt>
      <trkpt lat="49.07487" lon="2.117">
        <ele>124</ele>
        <time>2016-09-18T08:07:03.000Z</time>
      </trkpt>
      <trkpt lat="49.07482" lon="2.11711">
        <ele>128</ele>
        <time>2016-09-18T08:07:08.000Z</time>
      </trkpt>
      <trkpt lat="49.07478" lon="2.11724">
        <ele>132</ele>
        <time>2016-09-18T08:07:17.000Z</time>
      </trkpt>
      <trkpt lat="49.07472" lon="2.11735">
        <ele>131</ele>
        <time>2016-09-18T08:07:25.000Z</time>
      </trkpt>
      <trkpt lat="49.07466" lon="2.1175">
        <ele>125</ele>
        <time>2016-09-18T08:07:33.000Z</time>
      </trkpt>
      <trkpt lat="49.07458" lon="2.11764">
        <ele>125</ele>
        <time>2016-09-18T08:07:39.000Z</time>
      </trkpt>
      <trkpt lat="49.07454" lon="2.11777">
        <ele>126</ele>
        <time>2016-09-18T08:07:45.000Z</time>
      </trkpt>
      <trkpt lat="49.07445" lon="2.11787">
        <ele>130</ele>
        <time>2016-09-18T08:07:52.000Z</time>
      </trkpt>
      <trkpt lat="49.07436" lon="2.11794">
        <ele>129</ele>
        <time>2016-09-18T08:07:58.000Z</time>
      </trkpt>
      <trkpt lat="49.0743" lon="2.11806">
        <ele>128</ele>
        <time>2016-09-18T08:08:03.000Z</time>
      </trkpt>
      <trkpt lat="49.07426" lon="2.1182">
        <ele>127</ele>
        <time>2016-09-18T08:08:11.000Z</time>
      </trkpt>
      <trkpt lat="49.07423" lon="2.11833">
        <ele>127</ele>
        <time>2016-09-18T08:08:17.000Z</time>
      </trkpt>
      <trkpt lat="49.0742" lon="2.11846">
        <ele>126</ele>
        <time>2016-09-18T08:08:23.000Z</time>
      </trkpt>
      <trkpt lat="49.07415" lon="2.11859">
        <ele>127</ele>
        <time>2016-09-18T08:08:29.000Z</time>
      </trkpt>
      <trkpt lat="49.07412" lon="2.11874">
        <ele>122</ele>
        <time>2016-09-18T08:08:36.000Z</time>
      </trkpt>
      <trkpt lat="49.0741" lon="2.11888">
        <ele>120</ele>
        <time>2016-09-18T08:08:42.000Z</time>
      </trkpt>
      <trkpt lat="49.07409" lon="2.11902">
        <ele>119</ele>
        <time>2016-09-18T08:08:49.000Z</time>
      </trkpt>
      <trkpt lat="49.07405" lon="2.11916">
        <ele>120</ele>
        <time>2016-09-18T08:08:55.000Z</time>
      </trkpt>
      <trkpt lat="49.07404" lon="2.11932">
        <ele>118</ele>
        <time>2016-09-18T08:09:02.000Z</time>
      </trkpt>
      <trkpt lat="49.07404" lon="2.11946">
        <ele>117</ele>
        <time>2016-09-18T08:09:09.000Z</time>
      </trkpt>
      <trkpt lat="49.07405" lon="2.11961">
        <ele>114</ele>
        <time>2016-09-18T08:09:17.000Z</time>
      </trkpt>
      <trkpt lat="49.07405" lon="2.11979">
        <ele>113</ele>
        <time>2016-09-18T08:09:25.000Z</time>
      </trkpt>
      <trkpt lat="49.07402" lon="2.11992">
        <ele>114</ele>
        <time>2016-09-18T08:09:29.000Z</time>
      </trkpt>
      <trkpt lat="49.074" lon="2.12008">
        <ele>112</ele>
        <time>2016-09-18T08:09:39.000Z</time>
      </trkpt>
      <trkpt lat="49.07394" lon="2.12025">
        <ele>112</ele>
        <time>2016-09-18T08:09:46.000Z</time>
      </trkpt>
      <trkpt lat="49.07391" lon="2.1204">
        <ele>110</ele>
        <time>2016-09-18T08:09:55.000Z</time>
      </trkpt>
      <trkpt lat="49.07387" lon="2.12055">
        <ele>108</ele>
        <time>2016-09-18T08:10:02.000Z</time>
      </trkpt>
      <trkpt lat="49.07381" lon="2.12066">
        <ele>107</ele>
        <time>2016-09-18T08:10:11.000Z</time>
      </trkpt>
      <trkpt lat="49.07375" lon="2.12078">
        <ele>108</ele>
        <time>2016-09-18T08:10:16.000Z</time>
      </trkpt>
      <trkpt lat="49.0737" lon="2.12092">
        <ele>105</ele>
        <time>2016-09-18T08:10:28.000Z</time>
      </trkpt>
      <trkpt lat="49.07365" lon="2.12103">
        <ele>105</ele>
        <time>2016-09-18T08:10:35.000Z</time>
      </trkpt>
      <trkpt lat="49.07356" lon="2.12112">
        <ele>106</ele>
        <time>2016-09-18T08:10:42.000Z</time>
      </trkpt>
      <trkpt lat="49.07349" lon="2.12121">
        <ele>103</ele>
        <time>2016-09-18T08:10:49.000Z</time>
      </trkpt>
      <trkpt lat="49.07342" lon="2.12133">
        <ele>101</ele>
        <time>2016-09-18T08:10:55.000Z</time>
      </trkpt>
      <trkpt lat="49.07341" lon="2.12149">
        <ele>102</ele>
        <time>2016-09-18T08:11:03.000Z</time>
      </trkpt>
      <trkpt lat="49.0734" lon="2.12163">
        <ele>99</ele>
        <time>2016-09-18T08:11:13.000Z</time>
      </trkpt>
      <trkpt lat="49.07345" lon="2.12176">
        <ele>99</ele>
        <time>2016-09-18T08:11:23.000Z</time>
      </trkpt>
      <trkpt lat="49.07346" lon="2.1219">
        <ele>94</ele>
        <time>2016-09-18T08:11:31.000Z</time>
      </trkpt>
      <trkpt lat="49.07344" lon="2.12205">
        <ele>93</ele>
        <time>2016-09-18T08:11:40.000Z</time>
      </trkpt>
      <trkpt lat="49.07344" lon="2.1222">
        <ele>94</ele>
        <time>2016-09-18T08:11:47.000Z</time>
      </trkpt>
      <trkpt lat="49.07346" lon="2.12234">
        <ele>91</ele>
        <time>2016-09-18T08:11:56.000Z</time>
      </trkpt>
      <trkpt lat="49.07341" lon="2.12253">
        <ele>92</ele>
        <time>2016-09-18T08:12:01.000Z</time>
      </trkpt>
      <trkpt lat="49.07342" lon="2.12271">
        <ele>90</ele>
        <time>2016-09-18T08:12:09.000Z</time>
      </trkpt>
      <trkpt lat="49.07347" lon="2.12283">
        <ele>92</ele>
        <time>2016-09-18T08:12:17.000Z</time>
      </trkpt>
      <trkpt lat="49.07341" lon="2.12302">
        <ele>87</ele>
        <time>2016-09-18T08:12:26.000Z</time>
      </trkpt>
      <trkpt lat="49.07342" lon="2.12322">
        <ele>85</ele>
        <time>2016-09-18T08:12:35.000Z</time>
      </trkpt>
      <trkpt lat="49.07339" lon="2.12336">
        <ele>89</ele>
        <time>2016-09-18T08:12:42.000Z</time>
      </trkpt>
      <trkpt lat="49.07335" lon="2.12349">
        <ele>83</ele>
        <time>2016-09-18T08:12:46.000Z</time>
      </trkpt>
      <trkpt lat="49.0733" lon="2.12362">
        <ele>82</ele>
        <time>2016-09-18T08:12:50.000Z</time>
      </trkpt>
      <trkpt lat="49.07328" lon="2.12375">
        <ele>83</ele>
        <time>2016-09-18T08:12:56.000Z</time>
      </trkpt>
      <trkpt lat="49.07328" lon="2.1239">
        <ele>83</ele>
        <time>2016-09-18T08:13:04.000Z</time>
      </trkpt>
      <trkpt lat="49.07329" lon="2.12404">
        <ele>84</ele>
        <time>2016-09-18T08:13:14.000Z</time>
      </trkpt>
      <trkpt lat="49.07333" lon="2.12418">
        <ele>88</ele>
        <time>2016-09-18T08:13:19.000Z</time>
      </trkpt>
      <trkpt lat="49.07331" lon="2.12432">
        <ele>88</ele>
        <time>2016-09-18T08:13:24.000Z</time>
      </trkpt>
      <trkpt lat="49.07332" lon="2.12446">
        <ele>89</ele>
        <time>2016-09-18T08:13:33.000Z</time>
      </trkpt>
      <trkpt lat="49.07327" lon="2.1246">
        <ele>89</ele>
        <time>2016-09-18T08:13:38.000Z</time>
      </trkpt>
      <trkpt lat="49.07325" lon="2.12474">
        <ele>90</ele>
        <time>2016-09-18T08:13:42.000Z</time>
      </trkpt>
      <trkpt lat="49.07322" lon="2.12488">
        <ele>88</ele>
        <time>2016-09-18T08:13:45.000Z</time>
      </trkpt>
      <trkpt lat="49.07328" lon="2.12501">
        <ele>84</ele>
        <time>2016-09-18T08:13:53.000Z</time>
      </trkpt>
      <trkpt lat="49.07332" lon="2.12514">
        <ele>82</ele>
        <time>2016-09-18T08:14:07.000Z</time>
      </trkpt>
      <trkpt lat="49.07326" lon="2.12527">
        <ele>85</ele>
        <time>2016-09-18T08:14:14.000Z</time>
      </trkpt>
      <trkpt lat="49.07328" lon="2.12541">
        <ele>84</ele>
        <time>2016-09-18T08:14:19.000Z</time>
      </trkpt>
      <trkpt lat="49.07324" lon="2.12556">
        <ele>85</ele>
        <time>2016-09-18T08:14:27.000Z</time>
      </trkpt>
      <trkpt lat="49.07314" lon="2.12561">
        <ele>83</ele>
        <time>2016-09-18T08:14:32.000Z</time>
      </trkpt>
      <trkpt lat="49.0731" lon="2.12573">
        <ele>82</ele>
        <time>2016-09-18T08:14:36.000Z</time>
      </trkpt>
      <trkpt lat="49.073" lon="2.1257">
        <ele>82</ele>
        <time>2016-09-18T08:14:41.000Z</time>
      </trkpt>
      <trkpt lat="49.07291" lon="2.12578">
        <ele>84</ele>
        <time>2016-09-18T08:14:47.000Z</time>
      </trkpt>
      <trkpt lat="49.07282" lon="2.12583">
        <ele>85</ele>
        <time>2016-09-18T08:14:55.000Z</time>
      </trkpt>
      <trkpt lat="49.07272" lon="2.1259">
        <ele>85</ele>
        <time>2016-09-18T08:15:01.000Z</time>
      </trkpt>
      <trkpt lat="49.07269" lon="2.12602">
        <ele>80</ele>
        <time>2016-09-18T08:15:10.000Z</time>
      </trkpt>
      <trkpt lat="49.07262" lon="2.12613">
        <ele>78</ele>
        <time>2016-09-18T08:15:14.000Z</time>
      </trkpt>
      <trkpt lat="49.07253" lon="2.12623">
        <ele>80</ele>
        <time>2016-09-18T08:15:21.000Z</time>
      </trkpt>
      <trkpt lat="49.07248" lon="2.12636">
        <ele>78</ele>
        <time>2016-09-18T08:15:26.000Z</time>
      </trkpt>
      <trkpt lat="49.07238" lon="2.12643">
        <ele>82</ele>
        <time>2016-09-18T08:15:33.000Z</time>
      </trkpt>
      <trkpt lat="49.07225" lon="2.12647">
        <ele>80</ele>
        <time>2016-09-18T08:15:39.000Z</time>
      </trkpt>
      <trkpt lat="49.0722" lon="2.12659">
        <ele>75</ele>
        <time>2016-09-18T08:15:45.000Z</time>
      </trkpt>
      <trkpt lat="49.07215" lon="2.12671">
        <ele>70</ele>
        <time>2016-09-18T08:15:54.000Z</time>
      </trkpt>
      <trkpt lat="49.07207" lon="2.12683">
        <ele>62</ele>
        <time>2016-09-18T08:16:01.000Z</time>
      </trkpt>
      <trkpt lat="49.072" lon="2.12693">
        <ele>61</ele>
        <time>2016-09-18T08:16:07.000Z</time>
      </trkpt>
      <trkpt lat="49.0719" lon="2.12698">
        <ele>62</ele>
        <time>2016-09-18T08:16:12.000Z</time>
      </trkpt>
      <trkpt lat="49.0718" lon="2.12703">
        <ele>68</ele>
        <time>2016-09-18T08:16:17.000Z</time>
      </trkpt>
      <trkpt lat="49.07171" lon="2.12709">
        <ele>67</ele>
        <time>2016-09-18T08:16:23.000Z</time>
      </trkpt>
      <trkpt lat="49.07161" lon="2.12706">
        <ele>67</ele>
        <time>2016-09-18T08:16:26.000Z</time>
      </trkpt>
      <trkpt lat="49.07149" lon="2.12706">
        <ele>68</ele>
        <time>2016-09-18T08:16:32.000Z</time>
      </trkpt>
      <trkpt lat="49.07138" lon="2.12714">
        <ele>68</ele>
        <time>2016-09-18T08:16:38.000Z</time>
      </trkpt>
      <trkpt lat="49.07128" lon="2.12718">
        <ele>69</ele>
        <time>2016-09-18T08:16:41.000Z</time>
      </trkpt>
      <trkpt lat="49.07119" lon="2.12713">
        <ele>70</ele>
        <time>2016-09-18T08:16:44.000Z</time>
      </trkpt>
      <trkpt lat="49.07112" lon="2.12705">
        <ele>66</ele>
        <time>2016-09-18T08:16:47.000Z</time>
      </trkpt>
      <trkpt lat="49.071" lon="2.12703">
        <ele>68</ele>
        <time>2016-09-18T08:16:51.000Z</time>
      </trkpt>
      <trkpt lat="49.07091" lon="2.12701">
        <ele>69</ele>
        <time>2016-09-18T08:16:54.000Z</time>
      </trkpt>
      <trkpt lat="49.07081" lon="2.12695">
        <ele>66</ele>
        <time>2016-09-18T08:16:58.000Z</time>
      </trkpt>
      <trkpt lat="49.07073" lon="2.12706">
        <ele>66</ele>
        <time>2016-09-18T08:17:01.000Z</time>
      </trkpt>
      <trkpt lat="49.07064" lon="2.12707">
        <ele>69</ele>
        <time>2016-09-18T08:17:09.000Z</time>
      </trkpt>
      <trkpt lat="49.07056" lon="2.12698">
        <ele>70</ele>
        <time>2016-09-18T08:17:14.000Z</time>
      </trkpt>
      <trkpt lat="49.07046" lon="2.1269">
        <ele>73</ele>
        <time>2016-09-18T08:17:20.000Z</time>
      </trkpt>
      <trkpt lat="49.07038" lon="2.12697">
        <ele>69</ele>
        <time>2016-09-18T08:17:26.000Z</time>
      </trkpt>
      <trkpt lat="49.07029" lon="2.12685">
        <ele>72</ele>
        <time>2016-09-18T08:17:31.000Z</time>
      </trkpt>
      <trkpt lat="49.07019" lon="2.12679">
        <ele>68</ele>
        <time>2016-09-18T08:17:39.000Z</time>
      </trkpt>
      <trkpt lat="49.07011" lon="2.12674">
        <ele>68</ele>
        <time>2016-09-18T08:17:43.000Z</time>
      </trkpt>
      <trkpt lat="49.07003" lon="2.12667">
        <ele>68</ele>
        <time>2016-09-18T08:17:49.000Z</time>
      </trkpt>
      <trkpt lat="49.06994" lon="2.1267">
        <ele>69</ele>
        <time>2016-09-18T08:17:55.000Z</time>
      </trkpt>
      <trkpt lat="49.06985" lon="2.12672">
        <ele>86</ele>
        <time>2016-09-18T08:18:01.000Z</time>
      </trkpt>
      <trkpt lat="49.06974" lon="2.12675">
        <ele>73</ele>
        <time>2016-09-18T08:18:06.000Z</time>
      </trkpt>
      <trkpt lat="49.06965" lon="2.12673">
        <ele>69</ele>
        <time>2016-09-18T08:18:12.000Z</time>
      </trkpt>
      <trkpt lat="49.06956" lon="2.12674">
        <ele>68</ele>
        <time>2016-09-18T08:18:18.000Z</time>
      </trkpt>
      <trkpt lat="49.06946" lon="2.12675">
        <ele>66</ele>
        <time>2016-09-18T08:18:25.000Z</time>
      </trkpt>
      <trkpt lat="49.06936" lon="2.12674">
        <ele>68</ele>
        <time>2016-09-18T08:18:31.000Z</time>
      </trkpt>
      <trkpt lat="49.06927" lon="2.12675">
        <ele>71</ele>
        <time>2016-09-18T08:18:37.000Z</time>
      </trkpt>
      <trkpt lat="49.06918" lon="2.12679">
        <ele>69</ele>
        <time>2016-09-18T08:18:44.000Z</time>
      </trkpt>
      <trkpt lat="49.06913" lon="2.12696">
        <ele>63</ele>
        <time>2016-09-18T08:18:50.000Z</time>
      </trkpt>
      <trkpt lat="49.06901" lon="2.12692">
        <ele>64</ele>
        <time>2016-09-18T08:18:59.000Z</time>
      </trkpt>
      <trkpt lat="49.0689" lon="2.12699">
        <ele>72</ele>
        <time>2016-09-18T08:19:11.000Z</time>
      </trkpt>
      <trkpt lat="49.06883" lon="2.1271">
        <ele>69</ele>
        <time>2016-09-18T08:19:18.000Z</time>
      </trkpt>
      <trkpt lat="49.0688" lon="2.12725">
        <ele>71</ele>
        <time>2016-09-18T08:19:28.000Z</time>
      </trkpt>
      <trkpt lat="49.06875" lon="2.12737">
        <ele>76</ele>
        <time>2016-09-18T08:19:38.000Z</time>
      </trkpt>
      <trkpt lat="49.06875" lon="2.12754">
        <ele>76</ele>
        <time>2016-09-18T08:19:48.000Z</time>
      </trkpt>
      <trkpt lat="49.06885" lon="2.12751">
        <ele>79</ele>
        <time>2016-09-18T08:20:11.000Z</time>
      </trkpt>
      <trkpt lat="49.06892" lon="2.12762">
        <ele>79</ele>
        <time>2016-09-18T08:20:26.000Z</time>
      </trkpt>
      <trkpt lat="49.06897" lon="2.12774">
        <ele>84</ele>
        <time>2016-09-18T08:20:36.000Z</time>
      </trkpt>
      <trkpt lat="49.06897" lon="2.12788">
        <ele>87</ele>
        <time>2016-09-18T08:20:43.000Z</time>
      </trkpt>
      <trkpt lat="49.06904" lon="2.128">
        <ele>91</ele>
        <time>2016-09-18T08:20:54.000Z</time>
      </trkpt>
      <trkpt lat="49.06907" lon="2.12813">
        <ele>91</ele>
        <time>2016-09-18T08:21:01.000Z</time>
      </trkpt>
      <trkpt lat="49.06913" lon="2.12826">
        <ele>93</ele>
        <time>2016-09-18T08:21:09.000Z</time>
      </trkpt>
      <trkpt lat="49.06915" lon="2.12839">
        <ele>96</ele>
        <time>2016-09-18T08:21:16.000Z</time>
      </trkpt>
      <trkpt lat="49.06922" lon="2.12853">
        <ele>99</ele>
        <time>2016-09-18T08:21:30.000Z</time>
      </trkpt>
      <trkpt lat="49.06925" lon="2.12867">
        <ele>99</ele>
        <time>2016-09-18T08:21:37.000Z</time>
      </trkpt>
      <trkpt lat="49.06931" lon="2.1288">
        <ele>97</ele>
        <time>2016-09-18T08:21:45.000Z</time>
      </trkpt>
      <trkpt lat="49.06931" lon="2.12895">
        <ele>100</ele>
        <time>2016-09-18T08:21:52.000Z</time>
      </trkpt>
      <trkpt lat="49.06932" lon="2.12909">
        <ele>103</ele>
        <time>2016-09-18T08:21:58.000Z</time>
      </trkpt>
      <trkpt lat="49.06937" lon="2.12922">
        <ele>104</ele>
        <time>2016-09-18T08:22:05.000Z</time>
      </trkpt>
      <trkpt lat="49.06943" lon="2.12935">
        <ele>105</ele>
        <time>2016-09-18T08:22:15.000Z</time>
      </trkpt>
      <trkpt lat="49.06947" lon="2.12948">
        <ele>104</ele>
        <time>2016-09-18T08:22:21.000Z</time>
      </trkpt>
      <trkpt lat="49.06956" lon="2.12964">
        <ele>108</ele>
        <time>2016-09-18T08:22:31.000Z</time>
      </trkpt>
      <trkpt lat="49.06962" lon="2.1298">
        <ele>112</ele>
        <time>2016-09-18T08:22:40.000Z</time>
      </trkpt>
      <trkpt lat="49.0697" lon="2.12986">
        <ele>110</ele>
        <time>2016-09-18T08:22:47.000Z</time>
      </trkpt>
      <trkpt lat="49.06979" lon="2.1299">
        <ele>115</ele>
        <time>2016-09-18T08:22:56.000Z</time>
      </trkpt>
      <trkpt lat="49.06986" lon="2.13002">
        <ele>114</ele>
        <time>2016-09-18T08:23:03.000Z</time>
      </trkpt>
      <trkpt lat="49.06991" lon="2.13014">
        <ele>119</ele>
        <time>2016-09-18T08:23:08.000Z</time>
      </trkpt>
      <trkpt lat="49.07001" lon="2.13022">
        <ele>119</ele>
        <time>2016-09-18T08:23:15.000Z</time>
      </trkpt>
      <trkpt lat="49.06997" lon="2.13039">
        <ele>122</ele>
        <time>2016-09-18T08:23:20.000Z</time>
      </trkpt>
      <trkpt lat="49.07002" lon="2.13052">
        <ele>121</ele>
        <time>2016-09-18T08:23:28.000Z</time>
      </trkpt>
      <trkpt lat="49.07005" lon="2.13068">
        <ele>118</ele>
        <time>2016-09-18T08:23:37.000Z</time>
      </trkpt>
      <trkpt lat="49.0701" lon="2.13083">
        <ele>119</ele>
        <time>2016-09-18T08:23:45.000Z</time>
      </trkpt>
      <trkpt lat="49.07017" lon="2.13094">
        <ele>116</ele>
        <time>2016-09-18T08:23:53.000Z</time>
      </trkpt>
      <trkpt lat="49.07022" lon="2.13108">
        <ele>119</ele>
        <time>2016-09-18T08:24:01.000Z</time>
      </trkpt>
      <trkpt lat="49.07025" lon="2.13123">
        <ele>118</ele>
        <time>2016-09-18T08:24:08.000Z</time>
      </trkpt>
      <trkpt lat="49.0703" lon="2.13135">
        <ele>116</ele>
        <time>2016-09-18T08:24:15.000Z</time>
      </trkpt>
      <trkpt lat="49.07036" lon="2.1315">
        <ele>116</ele>
        <time>2016-09-18T08:24:23.000Z</time>
      </trkpt>
      <trkpt lat="49.07039" lon="2.13163">
        <ele>116</ele>
        <time>2016-09-18T08:24:30.000Z</time>
      </trkpt>
      <trkpt lat="49.07041" lon="2.13178">
        <ele>116</ele>
        <time>2016-09-18T08:24:36.000Z</time>
      </trkpt>
      <trkpt lat="49.07045" lon="2.13192">
        <ele>119</ele>
        <time>2016-09-18T08:24:43.000Z</time>
      </trkpt>
      <trkpt lat="49.07051" lon="2.13204">
        <ele>119</ele>
        <time>2016-09-18T08:24:51.000Z</time>
      </trkpt>
      <trkpt lat="49.07053" lon="2.13219">
        <ele>117</ele>
        <time>2016-09-18T08:24:58.000Z</time>
      </trkpt>
      <trkpt lat="49.07058" lon="2.13234">
        <ele>119</ele>
        <time>2016-09-18T08:25:06.000Z</time>
      </trkpt>
      <trkpt lat="49.07063" lon="2.13249">
        <ele>120</ele>
        <time>2016-09-18T08:25:14.000Z</time>
      </trkpt>
      <trkpt lat="49.07066" lon="2.13264">
        <ele>121</ele>
        <time>2016-09-18T08:25:21.000Z</time>
      </trkpt>
      <trkpt lat="49.0707" lon="2.13279">
        <ele>120</ele>
        <time>2016-09-18T08:25:29.000Z</time>
      </trkpt>
      <trkpt lat="49.07069" lon="2.13295">
        <ele>119</ele>
        <time>2016-09-18T08:25:34.000Z</time>
      </trkpt>
      <trkpt lat="49.07071" lon="2.13308">
        <ele>120</ele>
        <time>2016-09-18T08:25:41.000Z</time>
      </trkpt>
      <trkpt lat="49.07074" lon="2.13324">
        <ele>123</ele>
        <time>2016-09-18T08:25:50.000Z</time>
      </trkpt>
      <trkpt lat="49.07075" lon="2.1334">
        <ele>124</ele>
        <time>2016-09-18T08:25:56.000Z</time>
      </trkpt>
      <trkpt lat="49.07077" lon="2.13355">
        <ele>126</ele>
        <time>2016-09-18T08:26:02.000Z</time>
      </trkpt>
      <trkpt lat="49.0708" lon="2.13368">
        <ele>125</ele>
        <time>2016-09-18T08:26:08.000Z</time>
      </trkpt>
      <trkpt lat="49.07085" lon="2.13385">
        <ele>125</ele>
        <time>2016-09-18T08:26:16.000Z</time>
      </trkpt>
      <trkpt lat="49.0709" lon="2.13397">
        <ele>124</ele>
        <time>2016-09-18T08:26:22.000Z</time>
      </trkpt>
      <trkpt lat="49.07095" lon="2.1341">
        <ele>125</ele>
        <time>2016-09-18T08:26:29.000Z</time>
      </trkpt>
      <trkpt lat="49.071" lon="2.13425">
        <ele>125</ele>
        <time>2016-09-18T08:26:36.000Z</time>
      </trkpt>
      <trkpt lat="49.07103" lon="2.13438">
        <ele>123</ele>
        <time>2016-09-18T08:26:42.000Z</time>
      </trkpt>
      <trkpt lat="49.07108" lon="2.13453">
        <ele>122</ele>
        <time>2016-09-18T08:26:50.000Z</time>
      </trkpt>
      <trkpt lat="49.0711" lon="2.13466">
        <ele>120</ele>
        <time>2016-09-18T08:26:57.000Z</time>
      </trkpt>
      <trkpt lat="49.07116" lon="2.1348">
        <ele>120</ele>
        <time>2016-09-18T08:27:05.000Z</time>
      </trkpt>
      <trkpt lat="49.07122" lon="2.13493">
        <ele>120</ele>
        <time>2016-09-18T08:27:14.000Z</time>
      </trkpt>
      <trkpt lat="49.07126" lon="2.13506">
        <ele>126</ele>
        <time>2016-09-18T08:32:02.000Z</time>
      </trkpt>
      <trkpt lat="49.07131" lon="2.13522">
        <ele>125</ele>
        <time>2016-09-18T08:32:11.000Z</time>
      </trkpt>
      <trkpt lat="49.07135" lon="2.13534">
        <ele>124</ele>
        <time>2016-09-18T08:32:17.000Z</time>
      </trkpt>
      <trkpt lat="49.07139" lon="2.13549">
        <ele>126</ele>
        <time>2016-09-18T08:32:25.000Z</time>
      </trkpt>
      <trkpt lat="49.07145" lon="2.13563">
        <ele>126</ele>
        <time>2016-09-18T08:32:34.000Z</time>
      </trkpt>
      <trkpt lat="49.07151" lon="2.13576">
        <ele>124</ele>
        <time>2016-09-18T08:32:42.000Z</time>
      </trkpt>
      <trkpt lat="49.07158" lon="2.13591">
        <ele>130</ele>
        <time>2016-09-18T08:32:51.000Z</time>
      </trkpt>
      <trkpt lat="49.07166" lon="2.13602">
        <ele>124</ele>
        <time>2016-09-18T08:33:00.000Z</time>
      </trkpt>
      <trkpt lat="49.07166" lon="2.13617">
        <ele>121</ele>
        <time>2016-09-18T08:33:07.000Z</time>
      </trkpt>
      <trkpt lat="49.07172" lon="2.13629">
        <ele>123</ele>
        <time>2016-09-18T08:33:13.000Z</time>
      </trkpt>
      <trkpt lat="49.07174" lon="2.13644">
        <ele>120</ele>
        <time>2016-09-18T08:33:21.000Z</time>
      </trkpt>
      <trkpt lat="49.07177" lon="2.13657">
        <ele>119</ele>
        <time>2016-09-18T08:33:28.000Z</time>
      </trkpt>
      <trkpt lat="49.07179" lon="2.13671">
        <ele>119</ele>
        <time>2016-09-18T08:33:35.000Z</time>
      </trkpt>
      <trkpt lat="49.07179" lon="2.13686">
        <ele>118</ele>
        <time>2016-09-18T08:33:43.000Z</time>
      </trkpt>
      <trkpt lat="49.07179" lon="2.137">
        <ele>119</ele>
        <time>2016-09-18T08:33:50.000Z</time>
      </trkpt>
      <trkpt lat="49.07175" lon="2.13715">
        <ele>116</ele>
        <time>2016-09-18T08:33:57.000Z</time>
      </trkpt>
      <trkpt lat="49.07174" lon="2.1373">
        <ele>113</ele>
        <time>2016-09-18T08:34:05.000Z</time>
      </trkpt>
      <trkpt lat="49.07173" lon="2.13746">
        <ele>113</ele>
        <time>2016-09-18T08:34:13.000Z</time>
      </trkpt>
      <trkpt lat="49.07168" lon="2.13761">
        <ele>115</ele>
        <time>2016-09-18T08:34:21.000Z</time>
      </trkpt>
      <trkpt lat="49.07167" lon="2.1378">
        <ele>116</ele>
        <time>2016-09-18T08:34:30.000Z</time>
      </trkpt>
      <trkpt lat="49.07166" lon="2.13795">
        <ele>117</ele>
        <time>2016-09-18T08:34:36.000Z</time>
      </trkpt>
      <trkpt lat="49.07163" lon="2.13809">
        <ele>117</ele>
        <time>2016-09-18T08:34:42.000Z</time>
      </trkpt>
      <trkpt lat="49.07161" lon="2.13822">
        <ele>117</ele>
        <time>2016-09-18T08:34:49.000Z</time>
      </trkpt>
      <trkpt lat="49.07159" lon="2.13836">
        <ele>117</ele>
        <time>2016-09-18T08:34:56.000Z</time>
      </trkpt>
      <trkpt lat="49.07161" lon="2.13851">
        <ele>114</ele>
        <time>2016-09-18T08:35:04.000Z</time>
      </trkpt>
      <trkpt lat="49.07162" lon="2.13865">
        <ele>113</ele>
        <time>2016-09-18T08:35:11.000Z</time>
      </trkpt>
      <trkpt lat="49.07162" lon="2.1388">
        <ele>115</ele>
        <time>2016-09-18T08:35:18.000Z</time>
      </trkpt>
      <trkpt lat="49.07159" lon="2.13894">
        <ele>116</ele>
        <time>2016-09-18T08:35:24.000Z</time>
      </trkpt>
      <trkpt lat="49.07161" lon="2.13908">
        <ele>117</ele>
        <time>2016-09-18T08:35:30.000Z</time>
      </trkpt>
      <trkpt lat="49.07167" lon="2.1392">
        <ele>116</ele>
        <time>2016-09-18T08:35:36.000Z</time>
      </trkpt>
      <trkpt lat="49.07166" lon="2.13939">
        <ele>117</ele>
        <time>2016-09-18T08:35:43.000Z</time>
      </trkpt>
      <trkpt lat="49.07167" lon="2.13955">
        <ele>113</ele>
        <time>2016-09-18T08:35:50.000Z</time>
      </trkpt>
      <trkpt lat="49.07171" lon="2.13969">
        <ele>112</ele>
        <time>2016-09-18T08:35:57.000Z</time>
      </trkpt>
      <trkpt lat="49.07169" lon="2.13984">
        <ele>112</ele>
        <time>2016-09-18T08:36:03.000Z</time>
      </trkpt>
      <trkpt lat="49.07175" lon="2.13996">
        <ele>115</ele>
        <time>2016-09-18T08:36:10.000Z</time>
      </trkpt>
      <trkpt lat="49.07172" lon="2.14012">
        <ele>113</ele>
        <time>2016-09-18T08:36:17.000Z</time>
      </trkpt>
      <trkpt lat="49.07172" lon="2.14029">
        <ele>117</ele>
        <time>2016-09-18T08:36:24.000Z</time>
      </trkpt>
      <trkpt lat="49.07174" lon="2.14048">
        <ele>109</ele>
        <time>2016-09-18T08:36:33.000Z</time>
      </trkpt>
      <trkpt lat="49.07182" lon="2.14058">
        <ele>109</ele>
        <time>2016-09-18T08:36:41.000Z</time>
      </trkpt>
      <trkpt lat="49.07185" lon="2.14073">
        <ele>112</ele>
        <time>2016-09-18T08:36:47.000Z</time>
      </trkpt>
      <trkpt lat="49.07189" lon="2.14088">
        <ele>111</ele>
        <time>2016-09-18T08:36:55.000Z</time>
      </trkpt>
      <trkpt lat="49.0719" lon="2.14103">
        <ele>113</ele>
        <time>2016-09-18T08:37:02.000Z</time>
      </trkpt>
      <trkpt lat="49.07182" lon="2.1411">
        <ele>113</ele>
        <time>2016-09-18T08:37:08.000Z</time>
      </trkpt>
      <trkpt lat="49.07174" lon="2.14121">
        <ele>110</ele>
        <time>2016-09-18T08:37:14.000Z</time>
      </trkpt>
      <trkpt lat="49.07165" lon="2.14129">
        <ele>107</ele>
        <time>2016-09-18T08:37:24.000Z</time>
      </trkpt>
      <trkpt lat="49.07156" lon="2.14137">
        <ele>105</ele>
        <time>2016-09-18T08:37:29.000Z</time>
      </trkpt>
      <trkpt lat="49.07147" lon="2.14139">
        <ele>105</ele>
        <time>2016-09-18T08:37:34.000Z</time>
      </trkpt>
      <trkpt lat="49.0714" lon="2.14149">
        <ele>104</ele>
        <time>2016-09-18T08:37:40.000Z</time>
      </trkpt>
      <trkpt lat="49.07138" lon="2.14163">
        <ele>106</ele>
        <time>2016-09-18T08:37:47.000Z</time>
      </trkpt>
      <trkpt lat="49.07138" lon="2.14177">
        <ele>107</ele>
        <time>2016-09-18T08:37:52.000Z</time>
      </trkpt>
      <trkpt lat="49.07145" lon="2.14193">
        <ele>108</ele>
        <time>2016-09-18T08:38:01.000Z</time>
      </trkpt>
      <trkpt lat="49.07148" lon="2.14206">
        <ele>109</ele>
        <time>2016-09-18T08:38:11.000Z</time>
      </trkpt>
      <trkpt lat="49.07147" lon="2.14223">
        <ele>109</ele>
        <time>2016-09-18T08:38:19.000Z</time>
      </trkpt>
      <trkpt lat="49.07155" lon="2.14233">
        <ele>112</ele>
        <time>2016-09-18T08:38:29.000Z</time>
      </trkpt>
      <trkpt lat="49.07154" lon="2.14249">
        <ele>114</ele>
        <time>2016-09-18T08:38:34.000Z</time>
      </trkpt>
      <trkpt lat="49.07156" lon="2.14264">
        <ele>117</ele>
        <time>2016-09-18T08:38:39.000Z</time>
      </trkpt>
      <trkpt lat="49.07161" lon="2.14276">
        <ele>118</ele>
        <time>2016-09-18T08:38:47.000Z</time>
      </trkpt>
      <trkpt lat="49.07169" lon="2.14288">
        <ele>120</ele>
        <time>2016-09-18T08:38:53.000Z</time>
      </trkpt>
      <trkpt lat="49.07175" lon="2.14299">
        <ele>119</ele>
        <time>2016-09-18T08:39:00.000Z</time>
      </trkpt>
      <trkpt lat="49.0718" lon="2.14312">
        <ele>121</ele>
        <time>2016-09-18T08:39:07.000Z</time>
      </trkpt>
      <trkpt lat="49.07186" lon="2.14323">
        <ele>123</ele>
        <time>2016-09-18T08:39:13.000Z</time>
      </trkpt>
      <trkpt lat="49.07191" lon="2.14335">
        <ele>122</ele>
        <time>2016-09-18T08:39:20.000Z</time>
      </trkpt>
      <trkpt lat="49.07195" lon="2.14348">
        <ele>121</ele>
        <time>2016-09-18T08:39:27.000Z</time>
      </trkpt>
      <trkpt lat="49.072" lon="2.14361">
        <ele>119</ele>
        <time>2016-09-18T08:39:34.000Z</time>
      </trkpt>
      <trkpt lat="49.07206" lon="2.14373">
        <ele>118</ele>
        <time>2016-09-18T08:39:41.000Z</time>
      </trkpt>
      <trkpt lat="49.07211" lon="2.14385">
        <ele>122</ele>
        <time>2016-09-18T08:39:47.000Z</time>
      </trkpt>
      <trkpt lat="49.07217" lon="2.14397">
        <ele>122</ele>
        <time>2016-09-18T08:39:54.000Z</time>
      </trkpt>
      <trkpt lat="49.07224" lon="2.14408">
        <ele>123</ele>
        <time>2016-09-18T08:40:00.000Z</time>
      </trkpt>
      <trkpt lat="49.07229" lon="2.14419">
        <ele>123</ele>
        <time>2016-09-18T08:40:09.000Z</time>
      </trkpt>
      <trkpt lat="49.07235" lon="2.14431">
        <ele>123</ele>
        <time>2016-09-18T08:40:15.000Z</time>
      </trkpt>
      <trkpt lat="49.07241" lon="2.14443">
        <ele>122</ele>
        <time>2016-09-18T08:40:23.000Z</time>
      </trkpt>
      <trkpt lat="49.07246" lon="2.14455">
        <ele>122</ele>
        <time>2016-09-18T08:40:30.000Z</time>
      </trkpt>
      <trkpt lat="49.07253" lon="2.14467">
        <ele>121</ele>
        <time>2016-09-18T08:40:37.000Z</time>
      </trkpt>
      <trkpt lat="49.07261" lon="2.14474">
        <ele>122</ele>
        <time>2016-09-18T08:40:43.000Z</time>
      </trkpt>
      <trkpt lat="49.0727" lon="2.14482">
        <ele>120</ele>
        <time>2016-09-18T08:40:51.000Z</time>
      </trkpt>
      <trkpt lat="49.07278" lon="2.14488">
        <ele>120</ele>
        <time>2016-09-18T08:41:00.000Z</time>
      </trkpt>
      <trkpt lat="49.07283" lon="2.14503">
        <ele>113</ele>
        <time>2016-09-18T08:41:43.000Z</time>
      </trkpt>
      <trkpt lat="49.07282" lon="2.1452">
        <ele>119</ele>
        <time>2016-09-18T08:41:48.000Z</time>
      </trkpt>
      <trkpt lat="49.07288" lon="2.14532">
        <ele>119</ele>
        <time>2016-09-18T08:41:57.000Z</time>
      </trkpt>
      <trkpt lat="49.07296" lon="2.1454">
        <ele>121</ele>
        <time>2016-09-18T08:42:11.000Z</time>
      </trkpt>
      <trkpt lat="49.07303" lon="2.14551">
        <ele>118</ele>
        <time>2016-09-18T08:42:24.000Z</time>
      </trkpt>
      <trkpt lat="49.07312" lon="2.14562">
        <ele>117</ele>
        <time>2016-09-18T08:42:28.000Z</time>
      </trkpt>
      <trkpt lat="49.07321" lon="2.14574">
        <ele>115</ele>
        <time>2016-09-18T08:42:31.000Z</time>
      </trkpt>
      <trkpt lat="49.0733" lon="2.14582">
        <ele>113</ele>
        <time>2016-09-18T08:42:35.000Z</time>
      </trkpt>
      <trkpt lat="49.0734" lon="2.14584">
        <ele>113</ele>
        <time>2016-09-18T08:42:41.000Z</time>
      </trkpt>
      <trkpt lat="49.07349" lon="2.14584">
        <ele>111</ele>
        <time>2016-09-18T08:42:44.000Z</time>
      </trkpt>
      <trkpt lat="49.07358" lon="2.14576">
        <ele>110</ele>
        <time>2016-09-18T08:42:57.000Z</time>
      </trkpt>
      <trkpt lat="49.07367" lon="2.14581">
        <ele>119</ele>
        <time>2016-09-18T08:43:04.000Z</time>
      </trkpt>
      <trkpt lat="49.07376" lon="2.14583">
        <ele>121</ele>
        <time>2016-09-18T08:43:09.000Z</time>
      </trkpt>
      <trkpt lat="49.0738" lon="2.146">
        <ele>123</ele>
        <time>2016-09-18T08:43:21.000Z</time>
      </trkpt>
      <trkpt lat="49.07385" lon="2.14612">
        <ele>125</ele>
        <time>2016-09-18T08:43:27.000Z</time>
      </trkpt>
      <trkpt lat="49.07391" lon="2.14626">
        <ele>126</ele>
        <time>2016-09-18T08:43:36.000Z</time>
      </trkpt>
      <trkpt lat="49.07401" lon="2.14638">
        <ele>125</ele>
        <time>2016-09-18T08:43:44.000Z</time>
      </trkpt>
      <trkpt lat="49.07401" lon="2.14652">
        <ele>124</ele>
        <time>2016-09-18T08:43:49.000Z</time>
      </trkpt>
      <trkpt lat="49.07397" lon="2.14666">
        <ele>123</ele>
        <time>2016-09-18T08:43:55.000Z</time>
      </trkpt>
      <trkpt lat="49.07406" lon="2.14677">
        <ele>127</ele>
        <time>2016-09-18T08:44:03.000Z</time>
      </trkpt>
      <trkpt lat="49.07412" lon="2.14691">
        <ele>129</ele>
        <time>2016-09-18T08:44:09.000Z</time>
      </trkpt>
      <trkpt lat="49.07415" lon="2.14708">
        <ele>131</ele>
        <time>2016-09-18T08:44:15.000Z</time>
      </trkpt>
      <trkpt lat="49.0742" lon="2.14723">
        <ele>128</ele>
        <time>2016-09-18T08:44:23.000Z</time>
      </trkpt>
      <trkpt lat="49.07424" lon="2.14739">
        <ele>130</ele>
        <time>2016-09-18T08:44:29.000Z</time>
      </trkpt>
      <trkpt lat="49.07431" lon="2.14759">
        <ele>121</ele>
        <time>2016-09-18T08:44:40.000Z</time>
      </trkpt>
      <trkpt lat="49.07435" lon="2.14771">
        <ele>127</ele>
        <time>2016-09-18T08:44:48.000Z</time>
      </trkpt>
      <trkpt lat="49.07439" lon="2.14786">
        <ele>127</ele>
        <time>2016-09-18T08:44:56.000Z</time>
      </trkpt>
      <trkpt lat="49.07444" lon="2.14803">
        <ele>127</ele>
        <time>2016-09-18T08:45:04.000Z</time>
      </trkpt>
      <trkpt lat="49.07448" lon="2.14818">
        <ele>128</ele>
        <time>2016-09-18T08:45:12.000Z</time>
      </trkpt>
      <trkpt lat="49.07451" lon="2.14833">
        <ele>130</ele>
        <time>2016-09-18T08:45:20.000Z</time>
      </trkpt>
      <trkpt lat="49.07454" lon="2.14845">
        <ele>132</ele>
        <time>2016-09-18T08:45:29.000Z</time>
      </trkpt>
      <trkpt lat="49.07457" lon="2.14861">
        <ele>133</ele>
        <time>2016-09-18T08:45:34.000Z</time>
      </trkpt>
      <trkpt lat="49.07462" lon="2.14875">
        <ele>134</ele>
        <time>2016-09-18T08:45:42.000Z</time>
      </trkpt>
      <trkpt lat="49.07463" lon="2.14891">
        <ele>137</ele>
        <time>2016-09-18T08:45:48.000Z</time>
      </trkpt>
      <trkpt lat="49.07466" lon="2.14907">
        <ele>135</ele>
        <time>2016-09-18T08:45:56.000Z</time>
      </trkpt>
      <trkpt lat="49.07469" lon="2.14921">
        <ele>133</ele>
        <time>2016-09-18T08:46:04.000Z</time>
      </trkpt>
      <trkpt lat="49.07473" lon="2.14933">
        <ele>131</ele>
        <time>2016-09-18T08:46:12.000Z</time>
      </trkpt>
      <trkpt lat="49.07477" lon="2.14949">
        <ele>131</ele>
        <time>2016-09-18T08:46:19.000Z</time>
      </trkpt>
      <trkpt lat="49.07481" lon="2.14964">
        <ele>136</ele>
        <time>2016-09-18T08:46:26.000Z</time>
      </trkpt>
      <trkpt lat="49.07486" lon="2.14979">
        <ele>136</ele>
        <time>2016-09-18T08:46:33.000Z</time>
      </trkpt>
      <trkpt lat="49.07489" lon="2.14995">
        <ele>136</ele>
        <time>2016-09-18T08:46:41.000Z</time>
      </trkpt>
      <trkpt lat="49.07493" lon="2.15009">
        <ele>136</ele>
        <time>2016-09-18T08:46:49.000Z</time>
      </trkpt>
      <trkpt lat="49.07496" lon="2.15023">
        <ele>135</ele>
        <time>2016-09-18T08:46:56.000Z</time>
      </trkpt>
      <trkpt lat="49.07502" lon="2.15044">
        <ele>135</ele>
        <time>2016-09-18T08:47:06.000Z</time>
      </trkpt>
      <trkpt lat="49.07508" lon="2.15058">
        <ele>134</ele>
        <time>2016-09-18T08:47:14.000Z</time>
      </trkpt>
      <trkpt lat="49.07512" lon="2.15073">
        <ele>134</ele>
        <time>2016-09-18T08:47:22.000Z</time>
      </trkpt>
      <trkpt lat="49.07518" lon="2.15087">
        <ele>132</ele>
        <time>2016-09-18T08:47:32.000Z</time>
      </trkpt>
      <trkpt lat="49.07522" lon="2.15101">
        <ele>130</ele>
        <time>2016-09-18T08:47:40.000Z</time>
      </trkpt>
      <trkpt lat="49.07528" lon="2.15114">
        <ele>129</ele>
        <time>2016-09-18T08:47:48.000Z</time>
      </trkpt>
      <trkpt lat="49.07534" lon="2.15126">
        <ele>128</ele>
        <time>2016-09-18T08:47:56.000Z</time>
      </trkpt>
      <trkpt lat="49.07541" lon="2.15139">
        <ele>129</ele>
        <time>2016-09-18T08:48:01.000Z</time>
      </trkpt>
      <trkpt lat="49.07547" lon="2.1515">
        <ele>127</ele>
        <time>2016-09-18T08:48:09.000Z</time>
      </trkpt>
      <trkpt lat="49.07555" lon="2.15162">
        <ele>124</ele>
        <time>2016-09-18T08:48:19.000Z</time>
      </trkpt>
      <trkpt lat="49.07562" lon="2.15171">
        <ele>126</ele>
        <time>2016-09-18T08:48:28.000Z</time>
      </trkpt>
      <trkpt lat="49.07568" lon="2.15186">
        <ele>122</ele>
        <time>2016-09-18T08:48:37.000Z</time>
      </trkpt>
      <trkpt lat="49.07574" lon="2.15199">
        <ele>118</ele>
        <time>2016-09-18T08:48:45.000Z</time>
      </trkpt>
      <trkpt lat="49.07577" lon="2.15216">
        <ele>120</ele>
        <time>2016-09-18T08:48:51.000Z</time>
      </trkpt>
      <trkpt lat="49.07577" lon="2.15232">
        <ele>118</ele>
        <time>2016-09-18T08:49:04.000Z</time>
      </trkpt>
      <trkpt lat="49.07583" lon="2.15247">
        <ele>118</ele>
        <time>2016-09-18T08:49:09.000Z</time>
      </trkpt>
      <trkpt lat="49.0759" lon="2.15262">
        <ele>119</ele>
        <time>2016-09-18T08:49:17.000Z</time>
      </trkpt>
      <trkpt lat="49.07597" lon="2.15275">
        <ele>119</ele>
        <time>2016-09-18T08:49:22.000Z</time>
      </trkpt>
      <trkpt lat="49.07602" lon="2.15289">
        <ele>126</ele>
        <time>2016-09-18T08:49:32.000Z</time>
      </trkpt>
      <trkpt lat="49.07605" lon="2.15302">
        <ele>117</ele>
        <time>2016-09-18T08:49:38.000Z</time>
      </trkpt>
      <trkpt lat="49.0761" lon="2.15315">
        <ele>117</ele>
        <time>2016-09-18T08:49:44.000Z</time>
      </trkpt>
      <trkpt lat="49.07619" lon="2.15324">
        <ele>119</ele>
        <time>2016-09-18T08:49:47.000Z</time>
      </trkpt>
      <trkpt lat="49.0762" lon="2.15339">
        <ele>111</ele>
        <time>2016-09-18T08:49:54.000Z</time>
      </trkpt>
      <trkpt lat="49.07614" lon="2.15352">
        <ele>103</ele>
        <time>2016-09-18T08:50:02.000Z</time>
      </trkpt>
      <trkpt lat="49.07624" lon="2.15354">
        <ele>106</ele>
        <time>2016-09-18T08:50:04.000Z</time>
      </trkpt>
      <trkpt lat="49.07632" lon="2.15364">
        <ele>105</ele>
        <time>2016-09-18T08:50:10.000Z</time>
      </trkpt>
      <trkpt lat="49.07634" lon="2.15382">
        <ele>102</ele>
        <time>2016-09-18T08:50:18.000Z</time>
      </trkpt>
      <trkpt lat="49.07638" lon="2.15398">
        <ele>109</ele>
        <time>2016-09-18T08:50:23.000Z</time>
      </trkpt>
      <trkpt lat="49.07641" lon="2.15413">
        <ele>116</ele>
        <time>2016-09-18T08:50:27.000Z</time>
      </trkpt>
      <trkpt lat="49.07647" lon="2.15431">
        <ele>121</ele>
        <time>2016-09-18T08:50:33.000Z</time>
      </trkpt>
      <trkpt lat="49.0765" lon="2.15444">
        <ele>121</ele>
        <time>2016-09-18T08:50:37.000Z</time>
      </trkpt>
      <trkpt lat="49.07653" lon="2.15457">
        <ele>121</ele>
        <time>2016-09-18T08:50:42.000Z</time>
      </trkpt>
      <trkpt lat="49.07648" lon="2.15469">
        <ele>116</ele>
        <time>2016-09-18T08:50:48.000Z</time>
      </trkpt>
      <trkpt lat="49.07657" lon="2.15479">
        <ele>114</ele>
        <time>2016-09-18T08:50:52.000Z</time>
      </trkpt>
      <trkpt lat="49.07665" lon="2.15487">
        <ele>115</ele>
        <time>2016-09-18T08:50:54.000Z</time>
      </trkpt>
      <trkpt lat="49.07656" lon="2.15498">
        <ele>107</ele>
        <time>2016-09-18T08:50:58.000Z</time>
      </trkpt>
      <trkpt lat="49.0765" lon="2.1551">
        <ele>111</ele>
        <time>2016-09-18T08:51:03.000Z</time>
      </trkpt>
      <trkpt lat="49.07645" lon="2.15521">
        <ele>107</ele>
        <time>2016-09-18T08:51:15.000Z</time>
      </trkpt>
      <trkpt lat="49.07636" lon="2.15526">
        <ele>109</ele>
        <time>2016-09-18T08:51:24.000Z</time>
      </trkpt>
      <trkpt lat="49.07629" lon="2.15534">
        <ele>110</ele>
        <time>2016-09-18T08:51:31.000Z</time>
      </trkpt>
      <trkpt lat="49.07621" lon="2.15546">
        <ele>106</ele>
        <time>2016-09-18T08:51:40.000Z</time>
      </trkpt>
      <trkpt lat="49.0761" lon="2.1555">
        <ele>104</ele>
        <time>2016-09-18T08:51:45.000Z</time>
      </trkpt>
      <trkpt lat="49.076" lon="2.15558">
        <ele>104</ele>
        <time>2016-09-18T08:51:51.000Z</time>
      </trkpt>
      <trkpt lat="49.07593" lon="2.15568">
        <ele>108</ele>
        <time>2016-09-18T08:51:54.000Z</time>
      </trkpt>
      <trkpt lat="49.07588" lon="2.1558">
        <ele>110</ele>
        <time>2016-09-18T08:51:58.000Z</time>
      </trkpt>
      <trkpt lat="49.07582" lon="2.15593">
        <ele>113</ele>
        <time>2016-09-18T08:52:02.000Z</time>
      </trkpt>
      <trkpt lat="49.07577" lon="2.15605">
        <ele>117</ele>
        <time>2016-09-18T08:52:05.000Z</time>
      </trkpt>
      <trkpt lat="49.0757" lon="2.15615">
        <ele>121</ele>
        <time>2016-09-18T08:52:08.000Z</time>
      </trkpt>
      <trkpt lat="49.07563" lon="2.15628">
        <ele>114</ele>
        <time>2016-09-18T08:52:12.000Z</time>
      </trkpt>
      <trkpt lat="49.07558" lon="2.1564">
        <ele>108</ele>
        <time>2016-09-18T08:52:16.000Z</time>
      </trkpt>
      <trkpt lat="49.0755" lon="2.15658">
        <ele>112</ele>
        <time>2016-09-18T08:52:20.000Z</time>
      </trkpt>
      <trkpt lat="49.07544" lon="2.15668">
        <ele>110</ele>
        <time>2016-09-18T08:52:24.000Z</time>
      </trkpt>
      <trkpt lat="49.07534" lon="2.1568">
        <ele>106</ele>
        <time>2016-09-18T08:52:29.000Z</time>
      </trkpt>
      <trkpt lat="49.07526" lon="2.15694">
        <ele>106</ele>
        <time>2016-09-18T08:52:34.000Z</time>
      </trkpt>
      <trkpt lat="49.0752" lon="2.15707">
        <ele>110</ele>
        <time>2016-09-18T08:52:39.000Z</time>
      </trkpt>
      <trkpt lat="49.07514" lon="2.15722">
        <ele>107</ele>
        <time>2016-09-18T08:52:46.000Z</time>
      </trkpt>
      <trkpt lat="49.07507" lon="2.15742">
        <ele>109</ele>
        <time>2016-09-18T08:52:54.000Z</time>
      </trkpt>
      <trkpt lat="49.07501" lon="2.15754">
        <ele>108</ele>
        <time>2016-09-18T08:53:02.000Z</time>
      </trkpt>
      <trkpt lat="49.07492" lon="2.15766">
        <ele>110</ele>
        <time>2016-09-18T08:53:10.000Z</time>
      </trkpt>
      <trkpt lat="49.07485" lon="2.15777">
        <ele>108</ele>
        <time>2016-09-18T08:53:17.000Z</time>
      </trkpt>
      <trkpt lat="49.07477" lon="2.15788">
        <ele>103</ele>
        <time>2016-09-18T08:53:24.000Z</time>
      </trkpt>
      <trkpt lat="49.07469" lon="2.15802">
        <ele>105</ele>
        <time>2016-09-18T08:53:30.000Z</time>
      </trkpt>
      <trkpt lat="49.07462" lon="2.15814">
        <ele>107</ele>
        <time>2016-09-18T08:53:35.000Z</time>
      </trkpt>
      <trkpt lat="49.07457" lon="2.15831">
        <ele>107</ele>
        <time>2016-09-18T08:53:45.000Z</time>
      </trkpt>
      <trkpt lat="49.07451" lon="2.15841">
        <ele>104</ele>
        <time>2016-09-18T08:53:53.000Z</time>
      </trkpt>
      <trkpt lat="49.07452" lon="2.15855">
        <ele>103</ele>
        <time>2016-09-18T08:54:00.000Z</time>
      </trkpt>
      <trkpt lat="49.07445" lon="2.15868">
        <ele>104</ele>
        <time>2016-09-18T08:54:08.000Z</time>
      </trkpt>
      <trkpt lat="49.07438" lon="2.1588">
        <ele>99</ele>
        <time>2016-09-18T08:54:14.000Z</time>
      </trkpt>
      <trkpt lat="49.07429" lon="2.15887">
        <ele>105</ele>
        <time>2016-09-18T08:54:21.000Z</time>
      </trkpt>
      <trkpt lat="49.07418" lon="2.15897">
        <ele>108</ele>
        <time>2016-09-18T08:54:28.000Z</time>
      </trkpt>
      <trkpt lat="49.07412" lon="2.15911">
        <ele>107</ele>
        <time>2016-09-18T08:54:33.000Z</time>
      </trkpt>
      <trkpt lat="49.07408" lon="2.15926">
        <ele>106</ele>
        <time>2016-09-18T08:54:42.000Z</time>
      </trkpt>
      <trkpt lat="49.07405" lon="2.15939">
        <ele>101</ele>
        <time>2016-09-18T08:54:49.000Z</time>
      </trkpt>
      <trkpt lat="49.07398" lon="2.15954">
        <ele>101</ele>
        <time>2016-09-18T08:54:56.000Z</time>
      </trkpt>
      <trkpt lat="49.07399" lon="2.1597">
        <ele>102</ele>
        <time>2016-09-18T08:55:02.000Z</time>
      </trkpt>
      <trkpt lat="49.07391" lon="2.15983">
        <ele>100</ele>
        <time>2016-09-18T08:55:11.000Z</time>
      </trkpt>
      <trkpt lat="49.07391" lon="2.15999">
        <ele>103</ele>
        <time>2016-09-18T08:55:17.000Z</time>
      </trkpt>
      <trkpt lat="49.07383" lon="2.16008">
        <ele>102</ele>
        <time>2016-09-18T08:55:23.000Z</time>
      </trkpt>
      <trkpt lat="49.07379" lon="2.16022">
        <ele>104</ele>
        <time>2016-09-18T08:55:31.000Z</time>
      </trkpt>
      <trkpt lat="49.07373" lon="2.16034">
        <ele>108</ele>
        <time>2016-09-18T08:55:37.000Z</time>
      </trkpt>
      <trkpt lat="49.07369" lon="2.16049">
        <ele>109</ele>
        <time>2016-09-18T08:55:42.000Z</time>
      </trkpt>
      <trkpt lat="49.07366" lon="2.16066">
        <ele>104</ele>
        <time>2016-09-18T08:55:50.000Z</time>
      </trkpt>
      <trkpt lat="49.07361" lon="2.16077">
        <ele>103</ele>
        <time>2016-09-18T08:55:58.000Z</time>
      </trkpt>
      <trkpt lat="49.07357" lon="2.16091">
        <ele>97</ele>
        <time>2016-09-18T08:56:05.000Z</time>
      </trkpt>
      <trkpt lat="49.07352" lon="2.16104">
        <ele>92</ele>
        <time>2016-09-18T08:56:13.000Z</time>
      </trkpt>
      <trkpt lat="49.07348" lon="2.16119">
        <ele>94</ele>
        <time>2016-09-18T08:56:18.000Z</time>
      </trkpt>
      <trkpt lat="49.07338" lon="2.16115">
        <ele>100</ele>
        <time>2016-09-18T08:56:23.000Z</time>
      </trkpt>
      <trkpt lat="49.07332" lon="2.16125">
        <ele>96</ele>
        <time>2016-09-18T08:56:30.000Z</time>
      </trkpt>
      <trkpt lat="49.07332" lon="2.16139">
        <ele>99</ele>
        <time>2016-09-18T08:56:37.000Z</time>
      </trkpt>
      <trkpt lat="49.07326" lon="2.1615">
        <ele>93</ele>
        <time>2016-09-18T08:56:45.000Z</time>
      </trkpt>
      <trkpt lat="49.07318" lon="2.16162">
        <ele>87</ele>
        <time>2016-09-18T08:56:54.000Z</time>
      </trkpt>
      <trkpt lat="49.07311" lon="2.16176">
        <ele>87</ele>
        <time>2016-09-18T08:57:01.000Z</time>
      </trkpt>
      <trkpt lat="49.07305" lon="2.16191">
        <ele>90</ele>
        <time>2016-09-18T08:57:06.000Z</time>
      </trkpt>
      <trkpt lat="49.07299" lon="2.16206">
        <ele>92</ele>
        <time>2016-09-18T08:57:15.000Z</time>
      </trkpt>
      <trkpt lat="49.07292" lon="2.16215">
        <ele>93</ele>
        <time>2016-09-18T08:57:23.000Z</time>
      </trkpt>
      <trkpt lat="49.07285" lon="2.16227">
        <ele>95</ele>
        <time>2016-09-18T08:57:31.000Z</time>
      </trkpt>
      <trkpt lat="49.07279" lon="2.1624">
        <ele>93</ele>
        <time>2016-09-18T08:57:41.000Z</time>
      </trkpt>
      <trkpt lat="49.0728" lon="2.16257">
        <ele>91</ele>
        <time>2016-09-18T08:57:48.000Z</time>
      </trkpt>
      <trkpt lat="49.07279" lon="2.16273">
        <ele>93</ele>
        <time>2016-09-18T08:57:56.000Z</time>
      </trkpt>
      <trkpt lat="49.07271" lon="2.16281">
        <ele>96</ele>
        <time>2016-09-18T08:57:59.000Z</time>
      </trkpt>
      <trkpt lat="49.07271" lon="2.16296">
        <ele>96</ele>
        <time>2016-09-18T08:58:04.000Z</time>
      </trkpt>
      <trkpt lat="49.0727" lon="2.16311">
        <ele>94</ele>
        <time>2016-09-18T08:58:10.000Z</time>
      </trkpt>
      <trkpt lat="49.07272" lon="2.16329">
        <ele>96</ele>
        <time>2016-09-18T08:58:19.000Z</time>
      </trkpt>
      <trkpt lat="49.07261" lon="2.16335">
        <ele>91</ele>
        <time>2016-09-18T08:58:24.000Z</time>
      </trkpt>
      <trkpt lat="49.07253" lon="2.16343">
        <ele>91</ele>
        <time>2016-09-18T08:58:33.000Z</time>
      </trkpt>
      <trkpt lat="49.07262" lon="2.16349">
        <ele>89</ele>
        <time>2016-09-18T08:58:41.000Z</time>
      </trkpt>
      <trkpt lat="49.07275" lon="2.16343">
        <ele>94</ele>
        <time>2016-09-18T08:58:53.000Z</time>
      </trkpt>
      <trkpt lat="49.07285" lon="2.1635">
        <ele>92</ele>
        <time>2016-09-18T08:59:01.000Z</time>
      </trkpt>
      <trkpt lat="49.07278" lon="2.16359">
        <ele>91</ele>
        <time>2016-09-18T08:59:07.000Z</time>
      </trkpt>
      <trkpt lat="49.0727" lon="2.16368">
        <ele>98</ele>
        <time>2016-09-18T08:59:19.000Z</time>
      </trkpt>
      <trkpt lat="49.07258" lon="2.16378">
        <ele>94</ele>
        <time>2016-09-18T08:59:23.000Z</time>
      </trkpt>
      <trkpt lat="49.07251" lon="2.1639">
        <ele>94</ele>
        <time>2016-09-18T08:59:30.000Z</time>
      </trkpt>
      <trkpt lat="49.07243" lon="2.16396">
        <ele>98</ele>
        <time>2016-09-18T08:59:41.000Z</time>
      </trkpt>
      <trkpt lat="49.07233" lon="2.16402">
        <ele>95</ele>
        <time>2016-09-18T08:59:45.000Z</time>
      </trkpt>
      <trkpt lat="49.07225" lon="2.16413">
        <ele>88</ele>
        <time>2016-09-18T08:59:55.000Z</time>
      </trkpt>
      <trkpt lat="49.0722" lon="2.16426">
        <ele>89</ele>
        <time>2016-09-18T09:00:03.000Z</time>
      </trkpt>
      <trkpt lat="49.07211" lon="2.16435">
        <ele>87</ele>
        <time>2016-09-18T09:00:10.000Z</time>
      </trkpt>
      <trkpt lat="49.07207" lon="2.16448">
        <ele>86</ele>
        <time>2016-09-18T09:00:19.000Z</time>
      </trkpt>
      <trkpt lat="49.072" lon="2.16463">
        <ele>87</ele>
        <time>2016-09-18T09:00:27.000Z</time>
      </trkpt>
      <trkpt lat="49.07193" lon="2.16478">
        <ele>89</ele>
        <time>2016-09-18T09:00:33.000Z</time>
      </trkpt>
      <trkpt lat="49.07184" lon="2.16484">
        <ele>89</ele>
        <time>2016-09-18T09:00:38.000Z</time>
      </trkpt>
      <trkpt lat="49.07178" lon="2.16498">
        <ele>87</ele>
        <time>2016-09-18T09:00:46.000Z</time>
      </trkpt>
      <trkpt lat="49.07168" lon="2.16504">
        <ele>85</ele>
        <time>2016-09-18T09:00:57.000Z</time>
      </trkpt>
      <trkpt lat="49.07158" lon="2.16509">
        <ele>78</ele>
        <time>2016-09-18T09:01:05.000Z</time>
      </trkpt>
      <trkpt lat="49.07152" lon="2.1652">
        <ele>81</ele>
        <time>2016-09-18T09:01:09.000Z</time>
      </trkpt>
      <trkpt lat="49.0715" lon="2.16536">
        <ele>81</ele>
        <time>2016-09-18T09:01:16.000Z</time>
      </trkpt>
      <trkpt lat="49.07156" lon="2.16549">
        <ele>79</ele>
        <time>2016-09-18T09:01:19.000Z</time>
      </trkpt>
      <trkpt lat="49.07148" lon="2.16564">
        <ele>79</ele>
        <time>2016-09-18T09:01:28.000Z</time>
      </trkpt>
      <trkpt lat="49.07143" lon="2.16579">
        <ele>76</ele>
        <time>2016-09-18T09:01:37.000Z</time>
      </trkpt>
      <trkpt lat="49.07148" lon="2.16596">
        <ele>73</ele>
        <time>2016-09-18T09:01:44.000Z</time>
      </trkpt>
      <trkpt lat="49.07151" lon="2.16612">
        <ele>72</ele>
        <time>2016-09-18T09:01:54.000Z</time>
      </trkpt>
      <trkpt lat="49.07154" lon="2.16626">
        <ele>69</ele>
        <time>2016-09-18T09:02:04.000Z</time>
      </trkpt>
      <trkpt lat="49.07154" lon="2.16647">
        <ele>73</ele>
        <time>2016-09-18T09:02:12.000Z</time>
      </trkpt>
      <trkpt lat="49.07155" lon="2.16661">
        <ele>73</ele>
        <time>2016-09-18T09:02:19.000Z</time>
      </trkpt>
      <trkpt lat="49.07154" lon="2.16676">
        <ele>76</ele>
        <time>2016-09-18T09:02:24.000Z</time>
      </trkpt>
      <trkpt lat="49.07154" lon="2.1669">
        <ele>78</ele>
        <time>2016-09-18T09:02:30.000Z</time>
      </trkpt>
      <trkpt lat="49.07156" lon="2.16704">
        <ele>78</ele>
        <time>2016-09-18T09:02:36.000Z</time>
      </trkpt>
      <trkpt lat="49.07161" lon="2.16716">
        <ele>79</ele>
        <time>2016-09-18T09:02:44.000Z</time>
      </trkpt>
      <trkpt lat="49.0717" lon="2.16725">
        <ele>73</ele>
        <time>2016-09-18T09:02:54.000Z</time>
      </trkpt>
      <trkpt lat="49.07178" lon="2.16732">
        <ele>70</ele>
        <time>2016-09-18T09:03:00.000Z</time>
      </trkpt>
      <trkpt lat="49.07179" lon="2.16749">
        <ele>72</ele>
        <time>2016-09-18T09:03:07.000Z</time>
      </trkpt>
      <trkpt lat="49.07182" lon="2.16765">
        <ele>78</ele>
        <time>2016-09-18T09:03:14.000Z</time>
      </trkpt>
      <trkpt lat="49.07187" lon="2.16778">
        <ele>78</ele>
        <time>2016-09-18T09:03:20.000Z</time>
      </trkpt>
      <trkpt lat="49.07198" lon="2.16784">
        <ele>73</ele>
        <time>2016-09-18T09:03:28.000Z</time>
      </trkpt>
      <trkpt lat="49.07204" lon="2.16798">
        <ele>75</ele>
        <time>2016-09-18T09:03:37.000Z</time>
      </trkpt>
      <trkpt lat="49.07211" lon="2.16808">
        <ele>75</ele>
        <time>2016-09-18T09:03:44.000Z</time>
      </trkpt>
      <trkpt lat="49.07216" lon="2.1682">
        <ele>69</ele>
        <time>2016-09-18T09:03:53.000Z</time>
      </trkpt>
      <trkpt lat="49.07225" lon="2.16835">
        <ele>70</ele>
        <time>2016-09-18T09:04:00.000Z</time>
      </trkpt>
      <trkpt lat="49.07229" lon="2.16848">
        <ele>72</ele>
        <time>2016-09-18T09:04:05.000Z</time>
      </trkpt>
      <trkpt lat="49.0723" lon="2.16862">
        <ele>73</ele>
        <time>2016-09-18T09:04:11.000Z</time>
      </trkpt>
      <trkpt lat="49.0723" lon="2.16878">
        <ele>67</ele>
        <time>2016-09-18T09:04:20.000Z</time>
      </trkpt>
      <trkpt lat="49.07235" lon="2.16892">
        <ele>65</ele>
        <time>2016-09-18T09:04:27.000Z</time>
      </trkpt>
      <trkpt lat="49.07238" lon="2.16909">
        <ele>64</ele>
        <time>2016-09-18T09:04:35.000Z</time>
      </trkpt>
      <trkpt lat="49.07243" lon="2.16924">
        <ele>64</ele>
        <time>2016-09-18T09:04:42.000Z</time>
      </trkpt>
      <trkpt lat="49.07245" lon="2.16941">
        <ele>65</ele>
        <time>2016-09-18T09:04:50.000Z</time>
      </trkpt>
      <trkpt lat="49.07244" lon="2.16955">
        <ele>65</ele>
        <time>2016-09-18T09:04:57.000Z</time>
      </trkpt>
      <trkpt lat="49.07248" lon="2.16968">
        <ele>63</ele>
        <time>2016-09-18T09:05:05.000Z</time>
      </trkpt>
      <trkpt lat="49.07252" lon="2.16982">
        <ele>64</ele>
        <time>2016-09-18T09:05:12.000Z</time>
      </trkpt>
      <trkpt lat="49.07253" lon="2.16999">
        <ele>65</ele>
        <time>2016-09-18T09:05:20.000Z</time>
      </trkpt>
      <trkpt lat="49.07257" lon="2.17013">
        <ele>66</ele>
        <time>2016-09-18T09:05:28.000Z</time>
      </trkpt>
      <trkpt lat="49.07252" lon="2.17026">
        <ele>68</ele>
        <time>2016-09-18T09:05:35.000Z</time>
      </trkpt>
      <trkpt lat="49.07247" lon="2.17037">
        <ele>73</ele>
        <time>2016-09-18T09:05:44.000Z</time>
      </trkpt>
      <trkpt lat="49.07237" lon="2.17045">
        <ele>75</ele>
        <time>2016-09-18T09:05:51.000Z</time>
      </trkpt>
      <trkpt lat="49.0723" lon="2.17056">
        <ele>77</ele>
        <time>2016-09-18T09:06:00.000Z</time>
      </trkpt>
      <trkpt lat="49.07221" lon="2.17063">
        <ele>81</ele>
        <time>2016-09-18T09:06:07.000Z</time>
      </trkpt>
      <trkpt lat="49.07214" lon="2.17071">
        <ele>81</ele>
        <time>2016-09-18T09:06:15.000Z</time>
      </trkpt>
      <trkpt lat="49.07203" lon="2.17076">
        <ele>84</ele>
        <time>2016-09-18T09:06:22.000Z</time>
      </trkpt>
      <trkpt lat="49.07195" lon="2.17082">
        <ele>79</ele>
        <time>2016-09-18T09:06:28.000Z</time>
      </trkpt>
      <trkpt lat="49.07184" lon="2.17097">
        <ele>84</ele>
        <time>2016-09-18T09:06:38.000Z</time>
      </trkpt>
      <trkpt lat="49.07179" lon="2.1711">
        <ele>84</ele>
        <time>2016-09-18T09:06:46.000Z</time>
      </trkpt>
      <trkpt lat="49.07167" lon="2.1711">
        <ele>88</ele>
        <time>2016-09-18T09:06:51.000Z</time>
      </trkpt>
      <trkpt lat="49.07163" lon="2.17125">
        <ele>88</ele>
        <time>2016-09-18T09:06:58.000Z</time>
      </trkpt>
      <trkpt lat="49.07156" lon="2.17136">
        <ele>88</ele>
        <time>2016-09-18T09:07:06.000Z</time>
      </trkpt>
      <trkpt lat="49.07153" lon="2.1715">
        <ele>87</ele>
        <time>2016-09-18T09:07:15.000Z</time>
      </trkpt>
      <trkpt lat="49.07147" lon="2.17161">
        <ele>87</ele>
        <time>2016-09-18T09:07:20.000Z</time>
      </trkpt>
      <trkpt lat="49.07143" lon="2.17174">
        <ele>87</ele>
        <time>2016-09-18T09:07:27.000Z</time>
      </trkpt>
      <trkpt lat="49.07139" lon="2.17192">
        <ele>86</ele>
        <time>2016-09-18T09:07:35.000Z</time>
      </trkpt>
      <trkpt lat="49.07139" lon="2.17207">
        <ele>81</ele>
        <time>2016-09-18T09:07:42.000Z</time>
      </trkpt>
      <trkpt lat="49.07137" lon="2.17222">
        <ele>82</ele>
        <time>2016-09-18T09:07:49.000Z</time>
      </trkpt>
      <trkpt lat="49.07135" lon="2.17235">
        <ele>81</ele>
        <time>2016-09-18T09:07:56.000Z</time>
      </trkpt>
      <trkpt lat="49.07136" lon="2.17253">
        <ele>73</ele>
        <time>2016-09-18T09:08:08.000Z</time>
      </trkpt>
      <trkpt lat="49.07134" lon="2.17268">
        <ele>75</ele>
        <time>2016-09-18T09:08:14.000Z</time>
      </trkpt>
      <trkpt lat="49.07135" lon="2.17283">
        <ele>74</ele>
        <time>2016-09-18T09:08:22.000Z</time>
      </trkpt>
      <trkpt lat="49.07135" lon="2.17297">
        <ele>74</ele>
        <time>2016-09-18T09:08:28.000Z</time>
      </trkpt>
      <trkpt lat="49.07134" lon="2.17315">
        <ele>73</ele>
        <time>2016-09-18T09:08:36.000Z</time>
      </trkpt>
      <trkpt lat="49.07133" lon="2.1733">
        <ele>73</ele>
        <time>2016-09-18T09:08:43.000Z</time>
      </trkpt>
      <trkpt lat="49.07135" lon="2.17344">
        <ele>73</ele>
        <time>2016-09-18T09:08:51.000Z</time>
      </trkpt>
      <trkpt lat="49.07134" lon="2.17359">
        <ele>72</ele>
        <time>2016-09-18T09:08:57.000Z</time>
      </trkpt>
      <trkpt lat="49.07138" lon="2.17373">
        <ele>71</ele>
        <time>2016-09-18T09:09:04.000Z</time>
      </trkpt>
      <trkpt lat="49.07142" lon="2.17388">
        <ele>71</ele>
        <time>2016-09-18T09:09:12.000Z</time>
      </trkpt>
      <trkpt lat="49.07145" lon="2.17401">
        <ele>72</ele>
        <time>2016-09-18T09:09:19.000Z</time>
      </trkpt>
      <trkpt lat="49.07146" lon="2.17417">
        <ele>72</ele>
        <time>2016-09-18T09:09:29.000Z</time>
      </trkpt>
      <trkpt lat="49.07138" lon="2.17433">
        <ele>70</ele>
        <time>2016-09-18T09:09:35.000Z</time>
      </trkpt>
      <trkpt lat="49.07137" lon="2.17446">
        <ele>67</ele>
        <time>2016-09-18T09:09:43.000Z</time>
      </trkpt>
      <trkpt lat="49.07139" lon="2.17464">
        <ele>66</ele>
        <time>2016-09-18T09:09:53.000Z</time>
      </trkpt>
      <trkpt lat="49.07138" lon="2.17478">
        <ele>65</ele>
        <time>2016-09-18T09:09:59.000Z</time>
      </trkpt>
      <trkpt lat="49.0714" lon="2.17496">
        <ele>69</ele>
        <time>2016-09-18T09:10:07.000Z</time>
      </trkpt>
      <trkpt lat="49.07148" lon="2.17507">
        <ele>70</ele>
        <time>2016-09-18T09:10:13.000Z</time>
      </trkpt>
      <trkpt lat="49.07151" lon="2.17522">
        <ele>73</ele>
        <time>2016-09-18T09:10:19.000Z</time>
      </trkpt>
      <trkpt lat="49.07156" lon="2.17535">
        <ele>70</ele>
        <time>2016-09-18T09:10:28.000Z</time>
      </trkpt>
      <trkpt lat="49.07159" lon="2.17551">
        <ele>70</ele>
        <time>2016-09-18T09:10:37.000Z</time>
      </trkpt>
      <trkpt lat="49.07159" lon="2.17566">
        <ele>68</ele>
        <time>2016-09-18T09:10:45.000Z</time>
      </trkpt>
      <trkpt lat="49.0716" lon="2.17581">
        <ele>74</ele>
        <time>2016-09-18T09:11:04.000Z</time>
      </trkpt>
      <trkpt lat="49.0717" lon="2.17586">
        <ele>83</ele>
        <time>2016-09-18T09:11:09.000Z</time>
      </trkpt>
      <trkpt lat="49.07174" lon="2.17599">
        <ele>88</ele>
        <time>2016-09-18T09:11:16.000Z</time>
      </trkpt>
      <trkpt lat="49.07178" lon="2.17613">
        <ele>89</ele>
        <time>2016-09-18T09:11:22.000Z</time>
      </trkpt>
      <trkpt lat="49.07181" lon="2.1763">
        <ele>87</ele>
        <time>2016-09-18T09:11:30.000Z</time>
      </trkpt>
      <trkpt lat="49.07185" lon="2.17646">
        <ele>85</ele>
        <time>2016-09-18T09:11:39.000Z</time>
      </trkpt>
      <trkpt lat="49.07194" lon="2.17655">
        <ele>82</ele>
        <time>2016-09-18T09:11:48.000Z</time>
      </trkpt>
      <trkpt lat="49.07203" lon="2.17661">
        <ele>86</ele>
        <time>2016-09-18T09:11:58.000Z</time>
      </trkpt>
      <trkpt lat="49.07213" lon="2.17666">
        <ele>88</ele>
        <time>2016-09-18T09:12:05.000Z</time>
      </trkpt>
      <trkpt lat="49.07223" lon="2.17668">
        <ele>93</ele>
        <time>2016-09-18T09:13:10.000Z</time>
      </trkpt>
      <trkpt lat="49.07233" lon="2.17669">
        <ele>95</ele>
        <time>2016-09-18T09:13:20.000Z</time>
      </trkpt>
      <trkpt lat="49.0724" lon="2.17677">
        <ele>95</ele>
        <time>2016-09-18T09:13:29.000Z</time>
      </trkpt>
      <trkpt lat="49.07246" lon="2.1769">
        <ele>90</ele>
        <time>2016-09-18T09:13:36.000Z</time>
      </trkpt>
      <trkpt lat="49.07256" lon="2.17696">
        <ele>84</ele>
        <time>2016-09-18T09:13:44.000Z</time>
      </trkpt>
      <trkpt lat="49.07267" lon="2.17703">
        <ele>86</ele>
        <time>2016-09-18T09:13:52.000Z</time>
      </trkpt>
      <trkpt lat="49.07278" lon="2.17705">
        <ele>85</ele>
        <time>2016-09-18T09:14:01.000Z</time>
      </trkpt>
      <trkpt lat="49.07288" lon="2.17706">
        <ele>85</ele>
        <time>2016-09-18T09:14:09.000Z</time>
      </trkpt>
      <trkpt lat="49.07296" lon="2.17715">
        <ele>88</ele>
        <time>2016-09-18T09:14:19.000Z</time>
      </trkpt>
      <trkpt lat="49.07306" lon="2.17722">
        <ele>91</ele>
        <time>2016-09-18T09:14:29.000Z</time>
      </trkpt>
      <trkpt lat="49.07315" lon="2.17726">
        <ele>89</ele>
        <time>2016-09-18T09:14:36.000Z</time>
      </trkpt>
      <trkpt lat="49.07326" lon="2.17727">
        <ele>88</ele>
        <time>2016-09-18T09:14:44.000Z</time>
      </trkpt>
      <trkpt lat="49.07336" lon="2.1773">
        <ele>85</ele>
        <time>2016-09-18T09:14:52.000Z</time>
      </trkpt>
      <trkpt lat="49.07345" lon="2.17734">
        <ele>84</ele>
        <time>2016-09-18T09:14:59.000Z</time>
      </trkpt>
      <trkpt lat="49.07354" lon="2.17739">
        <ele>84</ele>
        <time>2016-09-18T09:15:07.000Z</time>
      </trkpt>
      <trkpt lat="49.07362" lon="2.17749">
        <ele>87</ele>
        <time>2016-09-18T09:15:17.000Z</time>
      </trkpt>
      <trkpt lat="49.0737" lon="2.17757">
        <ele>90</ele>
        <time>2016-09-18T09:15:25.000Z</time>
      </trkpt>
      <trkpt lat="49.07378" lon="2.17765">
        <ele>92</ele>
        <time>2016-09-18T09:15:33.000Z</time>
      </trkpt>
      <trkpt lat="49.07386" lon="2.17773">
        <ele>93</ele>
        <time>2016-09-18T09:15:40.000Z</time>
      </trkpt>
      <trkpt lat="49.07395" lon="2.17781">
        <ele>97</ele>
        <time>2016-09-18T09:15:48.000Z</time>
      </trkpt>
      <trkpt lat="49.07404" lon="2.17787">
        <ele>97</ele>
        <time>2016-09-18T09:15:55.000Z</time>
      </trkpt>
      <trkpt lat="49.07412" lon="2.17794">
        <ele>98</ele>
        <time>2016-09-18T09:16:02.000Z</time>
      </trkpt>
      <trkpt lat="49.07421" lon="2.17798">
        <ele>95</ele>
        <time>2016-09-18T09:16:08.000Z</time>
      </trkpt>
      <trkpt lat="49.0743" lon="2.17802">
        <ele>96</ele>
        <time>2016-09-18T09:16:15.000Z</time>
      </trkpt>
      <trkpt lat="49.0744" lon="2.17803">
        <ele>92</ele>
        <time>2016-09-18T09:16:23.000Z</time>
      </trkpt>
      <trkpt lat="49.07449" lon="2.17815">
        <ele>94</ele>
        <time>2016-09-18T09:16:32.000Z</time>
      </trkpt>
      <trkpt lat="49.07447" lon="2.17829">
        <ele>91</ele>
        <time>2016-09-18T09:16:41.000Z</time>
      </trkpt>
      <trkpt lat="49.07454" lon="2.17839">
        <ele>95</ele>
        <time>2016-09-18T09:16:47.000Z</time>
      </trkpt>
      <trkpt lat="49.07462" lon="2.17846">
        <ele>93</ele>
        <time>2016-09-18T09:16:54.000Z</time>
      </trkpt>
      <trkpt lat="49.07467" lon="2.17859">
        <ele>94</ele>
        <time>2016-09-18T09:17:03.000Z</time>
      </trkpt>
      <trkpt lat="49.0747" lon="2.17873">
        <ele>95</ele>
        <time>2016-09-18T09:17:11.000Z</time>
      </trkpt>
      <trkpt lat="49.0748" lon="2.17871">
        <ele>97</ele>
        <time>2016-09-18T09:17:19.000Z</time>
      </trkpt>
      <trkpt lat="49.07492" lon="2.17866">
        <ele>101</ele>
        <time>2016-09-18T09:17:30.000Z</time>
      </trkpt>
      <trkpt lat="49.07501" lon="2.17874">
        <ele>103</ele>
        <time>2016-09-18T09:17:39.000Z</time>
      </trkpt>
      <trkpt lat="49.07512" lon="2.17877">
        <ele>101</ele>
        <time>2016-09-18T09:17:52.000Z</time>
      </trkpt>
      <trkpt lat="49.07522" lon="2.17873">
        <ele>101</ele>
        <time>2016-09-18T09:18:00.000Z</time>
      </trkpt>
      <trkpt lat="49.0753" lon="2.17882">
        <ele>102</ele>
        <time>2016-09-18T09:18:08.000Z</time>
      </trkpt>
      <trkpt lat="49.07531" lon="2.17896">
        <ele>101</ele>
        <time>2016-09-18T09:20:01.000Z</time>
      </trkpt>
      <trkpt lat="49.07536" lon="2.1791">
        <ele>102</ele>
        <time>2016-09-18T09:20:10.000Z</time>
      </trkpt>
      <trkpt lat="49.07542" lon="2.17921">
        <ele>105</ele>
        <time>2016-09-18T09:20:37.000Z</time>
      </trkpt>
      <trkpt lat="49.07539" lon="2.17906">
        <ele>107</ele>
        <time>2016-09-18T09:20:50.000Z</time>
      </trkpt>
      <trkpt lat="49.07534" lon="2.17893">
        <ele>106</ele>
        <time>2016-09-18T09:20:58.000Z</time>
      </trkpt>
      <trkpt lat="49.07526" lon="2.17879">
        <ele>106</ele>
        <time>2016-09-18T09:21:06.000Z</time>
      </trkpt>
      <trkpt lat="49.0752" lon="2.17867">
        <ele>101</ele>
        <time>2016-09-18T09:21:14.000Z</time>
      </trkpt>
      <trkpt lat="49.07517" lon="2.17853">
        <ele>100</ele>
        <time>2016-09-18T09:21:23.000Z</time>
      </trkpt>
      <trkpt lat="49.07514" lon="2.17839">
        <ele>99</ele>
        <time>2016-09-18T09:21:31.000Z</time>
      </trkpt>
      <trkpt lat="49.07511" lon="2.17825">
        <ele>102</ele>
        <time>2016-09-18T09:21:38.000Z</time>
      </trkpt>
      <trkpt lat="49.07504" lon="2.17818">
        <ele>104</ele>
        <time>2016-09-18T09:21:48.000Z</time>
      </trkpt>
      <trkpt lat="49.07495" lon="2.17822">
        <ele>102</ele>
        <time>2016-09-18T09:21:55.000Z</time>
      </trkpt>
      <trkpt lat="49.07485" lon="2.17826">
        <ele>102</ele>
        <time>2016-09-18T09:22:03.000Z</time>
      </trkpt>
      <trkpt lat="49.07476" lon="2.17827">
        <ele>103</ele>
        <time>2016-09-18T09:22:13.000Z</time>
      </trkpt>
      <trkpt lat="49.07467" lon="2.17829">
        <ele>103</ele>
        <time>2016-09-18T09:22:20.000Z</time>
      </trkpt>
      <trkpt lat="49.07457" lon="2.17827">
        <ele>103</ele>
        <time>2016-09-18T09:22:27.000Z</time>
      </trkpt>
      <trkpt lat="49.07448" lon="2.17821">
        <ele>104</ele>
        <time>2016-09-18T09:22:34.000Z</time>
      </trkpt>
      <trkpt lat="49.07439" lon="2.17815">
        <ele>104</ele>
        <time>2016-09-18T09:22:42.000Z</time>
      </trkpt>
      <trkpt lat="49.0743" lon="2.17806">
        <ele>107</ele>
        <time>2016-09-18T09:22:48.000Z</time>
      </trkpt>
      <trkpt lat="49.07421" lon="2.17799">
        <ele>109</ele>
        <time>2016-09-18T09:22:55.000Z</time>
      </trkpt>
      <trkpt lat="49.07412" lon="2.1779">
        <ele>113</ele>
        <time>2016-09-18T09:23:00.000Z</time>
      </trkpt>
      <trkpt lat="49.07404" lon="2.17781">
        <ele>115</ele>
        <time>2016-09-18T09:23:06.000Z</time>
      </trkpt>
      <trkpt lat="49.07395" lon="2.17779">
        <ele>107</ele>
        <time>2016-09-18T09:23:17.000Z</time>
      </trkpt>
      <trkpt lat="49.07388" lon="2.1777">
        <ele>111</ele>
        <time>2016-09-18T09:23:21.000Z</time>
      </trkpt>
      <trkpt lat="49.07379" lon="2.17761">
        <ele>116</ele>
        <time>2016-09-18T09:23:26.000Z</time>
      </trkpt>
      <trkpt lat="49.0737" lon="2.17753">
        <ele>116</ele>
        <time>2016-09-18T09:23:33.000Z</time>
      </trkpt>
      <trkpt lat="49.07363" lon="2.17744">
        <ele>120</ele>
        <time>2016-09-18T09:23:38.000Z</time>
      </trkpt>
      <trkpt lat="49.07354" lon="2.17748">
        <ele>102</ele>
        <time>2016-09-18T09:23:53.000Z</time>
      </trkpt>
      <trkpt lat="49.07345" lon="2.17744">
        <ele>102</ele>
        <time>2016-09-18T09:23:59.000Z</time>
      </trkpt>
      <trkpt lat="49.07336" lon="2.1774">
        <ele>102</ele>
        <time>2016-09-18T09:24:05.000Z</time>
      </trkpt>
      <trkpt lat="49.07327" lon="2.17736">
        <ele>99</ele>
        <time>2016-09-18T09:24:14.000Z</time>
      </trkpt>
      <trkpt lat="49.07316" lon="2.17731">
        <ele>100</ele>
        <time>2016-09-18T09:24:22.000Z</time>
      </trkpt>
      <trkpt lat="49.07306" lon="2.17726">
        <ele>99</ele>
        <time>2016-09-18T09:24:29.000Z</time>
      </trkpt>
      <trkpt lat="49.07298" lon="2.17722">
        <ele>98</ele>
        <time>2016-09-18T09:24:35.000Z</time>
      </trkpt>
      <trkpt lat="49.07288" lon="2.17719">
        <ele>96</ele>
        <time>2016-09-18T09:24:42.000Z</time>
      </trkpt>
      <trkpt lat="49.07278" lon="2.17714">
        <ele>95</ele>
        <time>2016-09-18T09:24:51.000Z</time>
      </trkpt>
      <trkpt lat="49.0727" lon="2.17707">
        <ele>98</ele>
        <time>2016-09-18T09:24:55.000Z</time>
      </trkpt>
      <trkpt lat="49.07261" lon="2.17705">
        <ele>92</ele>
        <time>2016-09-18T09:25:03.000Z</time>
      </trkpt>
      <trkpt lat="49.07251" lon="2.17698">
        <ele>90</ele>
        <time>2016-09-18T09:25:10.000Z</time>
      </trkpt>
      <trkpt lat="49.07245" lon="2.17683">
        <ele>91</ele>
        <time>2016-09-18T09:25:16.000Z</time>
      </trkpt>
      <trkpt lat="49.07239" lon="2.17673">
        <ele>92</ele>
        <time>2016-09-18T09:25:23.000Z</time>
      </trkpt>
      <trkpt lat="49.0723" lon="2.17668">
        <ele>94</ele>
        <time>2016-09-18T09:25:29.000Z</time>
      </trkpt>
      <trkpt lat="49.0722" lon="2.17671">
        <ele>96</ele>
        <time>2016-09-18T09:25:36.000Z</time>
      </trkpt>
      <trkpt lat="49.07212" lon="2.17679">
        <ele>93</ele>
        <time>2016-09-18T09:25:44.000Z</time>
      </trkpt>
      <trkpt lat="49.07205" lon="2.1769">
        <ele>92</ele>
        <time>2016-09-18T09:25:53.000Z</time>
      </trkpt>
      <trkpt lat="49.07196" lon="2.17687">
        <ele>89</ele>
        <time>2016-09-18T09:26:01.000Z</time>
      </trkpt>
      <trkpt lat="49.07186" lon="2.1768">
        <ele>85</ele>
        <time>2016-09-18T09:26:09.000Z</time>
      </trkpt>
      <trkpt lat="49.07176" lon="2.17669">
        <ele>84</ele>
        <time>2016-09-18T09:26:17.000Z</time>
      </trkpt>
      <trkpt lat="49.07166" lon="2.1766">
        <ele>83</ele>
        <time>2016-09-18T09:26:21.000Z</time>
      </trkpt>
      <trkpt lat="49.07157" lon="2.17659">
        <ele>84</ele>
        <time>2016-09-18T09:26:30.000Z</time>
      </trkpt>
      <trkpt lat="49.07149" lon="2.17667">
        <ele>82</ele>
        <time>2016-09-18T09:26:39.000Z</time>
      </trkpt>
      <trkpt lat="49.07142" lon="2.17677">
        <ele>79</ele>
        <time>2016-09-18T09:26:46.000Z</time>
      </trkpt>
      <trkpt lat="49.07134" lon="2.17685">
        <ele>79</ele>
        <time>2016-09-18T09:26:52.000Z</time>
      </trkpt>
      <trkpt lat="49.07128" lon="2.17699">
        <ele>78</ele>
        <time>2016-09-18T09:27:00.000Z</time>
      </trkpt>
      <trkpt lat="49.07122" lon="2.17713">
        <ele>79</ele>
        <time>2016-09-18T09:27:07.000Z</time>
      </trkpt>
      <trkpt lat="49.0712" lon="2.17728">
        <ele>78</ele>
        <time>2016-09-18T09:27:20.000Z</time>
      </trkpt>
      <trkpt lat="49.07111" lon="2.17734">
        <ele>80</ele>
        <time>2016-09-18T09:27:28.000Z</time>
      </trkpt>
      <trkpt lat="49.07102" lon="2.17743">
        <ele>81</ele>
        <time>2016-09-18T09:27:34.000Z</time>
      </trkpt>
      <trkpt lat="49.07098" lon="2.17756">
        <ele>77</ele>
        <time>2016-09-18T09:27:43.000Z</time>
      </trkpt>
      <trkpt lat="49.07089" lon="2.17762">
        <ele>76</ele>
        <time>2016-09-18T09:27:49.000Z</time>
      </trkpt>
      <trkpt lat="49.0708" lon="2.17771">
        <ele>77</ele>
        <time>2016-09-18T09:27:57.000Z</time>
      </trkpt>
      <trkpt lat="49.07074" lon="2.17781">
        <ele>77</ele>
        <time>2016-09-18T09:28:01.000Z</time>
      </trkpt>
      <trkpt lat="49.07063" lon="2.17781">
        <ele>75</ele>
        <time>2016-09-18T09:28:06.000Z</time>
      </trkpt>
      <trkpt lat="49.07055" lon="2.17789">
        <ele>72</ele>
        <time>2016-09-18T09:28:10.000Z</time>
      </trkpt>
      <trkpt lat="49.0705" lon="2.17801">
        <ele>71</ele>
        <time>2016-09-18T09:28:16.000Z</time>
      </trkpt>
      <trkpt lat="49.07044" lon="2.17814">
        <ele>68</ele>
        <time>2016-09-18T09:28:23.000Z</time>
      </trkpt>
      <trkpt lat="49.07035" lon="2.17819">
        <ele>66</ele>
        <time>2016-09-18T09:28:30.000Z</time>
      </trkpt>
      <trkpt lat="49.0703" lon="2.17834">
        <ele>64</ele>
        <time>2016-09-18T09:28:37.000Z</time>
      </trkpt>
      <trkpt lat="49.07018" lon="2.17837">
        <ele>69</ele>
        <time>2016-09-18T09:28:44.000Z</time>
      </trkpt>
      <trkpt lat="49.07009" lon="2.17852">
        <ele>73</ele>
        <time>2016-09-18T09:28:55.000Z</time>
      </trkpt>
      <trkpt lat="49.07002" lon="2.17863">
        <ele>74</ele>
        <time>2016-09-18T09:29:02.000Z</time>
      </trkpt>
      <trkpt lat="49.06994" lon="2.17873">
        <ele>76</ele>
        <time>2016-09-18T09:29:07.000Z</time>
      </trkpt>
      <trkpt lat="49.06985" lon="2.17878">
        <ele>73</ele>
        <time>2016-09-18T09:29:13.000Z</time>
      </trkpt>
      <trkpt lat="49.06977" lon="2.17886">
        <ele>72</ele>
        <time>2016-09-18T09:29:19.000Z</time>
      </trkpt>
      <trkpt lat="49.06971" lon="2.17898">
        <ele>72</ele>
        <time>2016-09-18T09:29:26.000Z</time>
      </trkpt>
      <trkpt lat="49.06972" lon="2.17913">
        <ele>69</ele>
        <time>2016-09-18T09:29:35.000Z</time>
      </trkpt>
      <trkpt lat="49.06978" lon="2.17924">
        <ele>68</ele>
        <time>2016-09-18T09:29:41.000Z</time>
      </trkpt>
      <trkpt lat="49.06982" lon="2.17939">
        <ele>69</ele>
        <time>2016-09-18T09:29:49.000Z</time>
      </trkpt>
      <trkpt lat="49.06985" lon="2.17953">
        <ele>70</ele>
        <time>2016-09-18T09:29:55.000Z</time>
      </trkpt>
      <trkpt lat="49.06987" lon="2.17967">
        <ele>70</ele>
        <time>2016-09-18T09:30:00.000Z</time>
      </trkpt>
      <trkpt lat="49.06989" lon="2.17981">
        <ele>72</ele>
        <time>2016-09-18T09:30:05.000Z</time>
      </trkpt>
      <trkpt lat="49.06997" lon="2.17991">
        <ele>68</ele>
        <time>2016-09-18T09:30:15.000Z</time>
      </trkpt>
      <trkpt lat="49.07005" lon="2.17997">
        <ele>66</ele>
        <time>2016-09-18T09:30:22.000Z</time>
      </trkpt>
      <trkpt lat="49.07005" lon="2.18016">
        <ele>59</ele>
        <time>2016-09-18T09:30:31.000Z</time>
      </trkpt>
      <trkpt lat="49.07008" lon="2.18031">
        <ele>62</ele>
        <time>2016-09-18T09:30:35.000Z</time>
      </trkpt>
      <trkpt lat="49.07008" lon="2.18051">
        <ele>62</ele>
        <time>2016-09-18T09:30:43.000Z</time>
      </trkpt>
      <trkpt lat="49.0701" lon="2.18065">
        <ele>58</ele>
        <time>2016-09-18T09:30:49.000Z</time>
      </trkpt>
      <trkpt lat="49.07013" lon="2.18078">
        <ele>56</ele>
        <time>2016-09-18T09:30:57.000Z</time>
      </trkpt>
      <trkpt lat="49.07019" lon="2.18095">
        <ele>55</ele>
        <time>2016-09-18T09:31:08.000Z</time>
      </trkpt>
      <trkpt lat="49.07019" lon="2.18112">
        <ele>61</ele>
        <time>2016-09-18T09:31:13.000Z</time>
      </trkpt>
      <trkpt lat="49.07021" lon="2.18126">
        <ele>65</ele>
        <time>2016-09-18T09:31:19.000Z</time>
      </trkpt>
      <trkpt lat="49.07027" lon="2.18138">
        <ele>61</ele>
        <time>2016-09-18T09:31:27.000Z</time>
      </trkpt>
      <trkpt lat="49.07026" lon="2.18156">
        <ele>61</ele>
        <time>2016-09-18T09:31:33.000Z</time>
      </trkpt>
      <trkpt lat="49.07027" lon="2.18171">
        <ele>63</ele>
        <time>2016-09-18T09:31:39.000Z</time>
      </trkpt>
      <trkpt lat="49.07031" lon="2.18188">
        <ele>67</ele>
        <time>2016-09-18T09:31:47.000Z</time>
      </trkpt>
      <trkpt lat="49.07034" lon="2.18204">
        <ele>66</ele>
        <time>2016-09-18T09:31:54.000Z</time>
      </trkpt>
      <trkpt lat="49.07037" lon="2.1822">
        <ele>63</ele>
        <time>2016-09-18T09:32:01.000Z</time>
      </trkpt>
      <trkpt lat="49.07044" lon="2.18231">
        <ele>60</ele>
        <time>2016-09-18T09:32:09.000Z</time>
      </trkpt>
      <trkpt lat="49.07042" lon="2.18245">
        <ele>61</ele>
        <time>2016-09-18T09:32:13.000Z</time>
      </trkpt>
      <trkpt lat="49.07043" lon="2.1826">
        <ele>61</ele>
        <time>2016-09-18T09:32:19.000Z</time>
      </trkpt>
      <trkpt lat="49.07044" lon="2.18275">
        <ele>60</ele>
        <time>2016-09-18T09:32:24.000Z</time>
      </trkpt>
      <trkpt lat="49.07044" lon="2.18292">
        <ele>61</ele>
        <time>2016-09-18T09:32:32.000Z</time>
      </trkpt>
      <trkpt lat="49.07047" lon="2.18309">
        <ele>60</ele>
        <time>2016-09-18T09:32:40.000Z</time>
      </trkpt>
      <trkpt lat="49.07047" lon="2.18325">
        <ele>59</ele>
        <time>2016-09-18T09:32:47.000Z</time>
      </trkpt>
      <trkpt lat="49.0705" lon="2.18343">
        <ele>63</ele>
        <time>2016-09-18T09:32:53.000Z</time>
      </trkpt>
      <trkpt lat="49.07052" lon="2.18357">
        <ele>64</ele>
        <time>2016-09-18T09:32:59.000Z</time>
      </trkpt>
      <trkpt lat="49.07051" lon="2.18372">
        <ele>67</ele>
        <time>2016-09-18T09:33:04.000Z</time>
      </trkpt>
      <trkpt lat="49.07054" lon="2.18386">
        <ele>66</ele>
        <time>2016-09-18T09:33:12.000Z</time>
      </trkpt>
      <trkpt lat="49.07053" lon="2.18403">
        <ele>69</ele>
        <time>2016-09-18T09:33:18.000Z</time>
      </trkpt>
      <trkpt lat="49.07056" lon="2.18416">
        <ele>70</ele>
        <time>2016-09-18T09:33:24.000Z</time>
      </trkpt>
      <trkpt lat="49.0706" lon="2.18431">
        <ele>67</ele>
        <time>2016-09-18T09:33:32.000Z</time>
      </trkpt>
      <trkpt lat="49.07061" lon="2.18448">
        <ele>68</ele>
        <time>2016-09-18T09:33:38.000Z</time>
      </trkpt>
      <trkpt lat="49.0706" lon="2.18462">
        <ele>69</ele>
        <time>2016-09-18T09:33:44.000Z</time>
      </trkpt>
      <trkpt lat="49.07062" lon="2.18482">
        <ele>72</ele>
        <time>2016-09-18T09:33:55.000Z</time>
      </trkpt>
      <trkpt lat="49.07064" lon="2.18496">
        <ele>67</ele>
        <time>2016-09-18T09:34:02.000Z</time>
      </trkpt>
      <trkpt lat="49.07063" lon="2.1851">
        <ele>71</ele>
        <time>2016-09-18T09:34:08.000Z</time>
      </trkpt>
      <trkpt lat="49.07061" lon="2.18524">
        <ele>71</ele>
        <time>2016-09-18T09:34:13.000Z</time>
      </trkpt>
      <trkpt lat="49.07064" lon="2.1854">
        <ele>68</ele>
        <time>2016-09-18T09:34:22.000Z</time>
      </trkpt>
      <trkpt lat="49.07067" lon="2.18557">
        <ele>65</ele>
        <time>2016-09-18T09:34:31.000Z</time>
      </trkpt>
      <trkpt lat="49.07071" lon="2.18576">
        <ele>66</ele>
        <time>2016-09-18T09:34:40.000Z</time>
      </trkpt>
      <trkpt lat="49.07078" lon="2.18588">
        <ele>67</ele>
        <time>2016-09-18T09:39:59.000Z</time>
      </trkpt>
      <trkpt lat="49.07084" lon="2.18599">
        <ele>64</ele>
        <time>2016-09-18T09:40:03.000Z</time>
      </trkpt>
      <trkpt lat="49.07086" lon="2.18614">
        <ele>64</ele>
        <time>2016-09-18T09:40:08.000Z</time>
      </trkpt>
      <trkpt lat="49.07091" lon="2.18631">
        <ele>63</ele>
        <time>2016-09-18T09:40:15.000Z</time>
      </trkpt>
      <trkpt lat="49.07097" lon="2.18648">
        <ele>65</ele>
        <time>2016-09-18T09:40:20.000Z</time>
      </trkpt>
      <trkpt lat="49.07101" lon="2.18666">
        <ele>63</ele>
        <time>2016-09-18T09:40:26.000Z</time>
      </trkpt>
      <trkpt lat="49.07105" lon="2.18679">
        <ele>64</ele>
        <time>2016-09-18T09:40:32.000Z</time>
      </trkpt>
      <trkpt lat="49.07113" lon="2.18691">
        <ele>62</ele>
        <time>2016-09-18T09:40:41.000Z</time>
      </trkpt>
      <trkpt lat="49.07116" lon="2.18706">
        <ele>62</ele>
        <time>2016-09-18T09:40:47.000Z</time>
      </trkpt>
      <trkpt lat="49.07124" lon="2.18715">
        <ele>60</ele>
        <time>2016-09-18T09:40:52.000Z</time>
      </trkpt>
      <trkpt lat="49.07128" lon="2.18729">
        <ele>50</ele>
        <time>2016-09-18T09:41:00.000Z</time>
      </trkpt>
      <trkpt lat="49.07135" lon="2.1874">
        <ele>51</ele>
        <time>2016-09-18T09:41:07.000Z</time>
      </trkpt>
      <trkpt lat="49.07137" lon="2.18755">
        <ele>48</ele>
        <time>2016-09-18T09:41:14.000Z</time>
      </trkpt>
      <trkpt lat="49.0714" lon="2.18772">
        <ele>55</ele>
        <time>2016-09-18T09:41:19.000Z</time>
      </trkpt>
      <trkpt lat="49.07138" lon="2.1879">
        <ele>55</ele>
        <time>2016-09-18T09:41:24.000Z</time>
      </trkpt>
      <trkpt lat="49.07144" lon="2.18804">
        <ele>58</ele>
        <time>2016-09-18T09:41:31.000Z</time>
      </trkpt>
      <trkpt lat="49.07147" lon="2.18818">
        <ele>58</ele>
        <time>2016-09-18T09:41:38.000Z</time>
      </trkpt>
      <trkpt lat="49.07152" lon="2.18833">
        <ele>60</ele>
        <time>2016-09-18T09:41:45.000Z</time>
      </trkpt>
      <trkpt lat="49.07157" lon="2.18847">
        <ele>66</ele>
        <time>2016-09-18T09:41:51.000Z</time>
      </trkpt>
      <trkpt lat="49.0716" lon="2.18864">
        <ele>61</ele>
        <time>2016-09-18T09:41:59.000Z</time>
      </trkpt>
      <trkpt lat="49.07164" lon="2.1888">
        <ele>62</ele>
        <time>2016-09-18T09:42:07.000Z</time>
      </trkpt>
      <trkpt lat="49.07165" lon="2.18894">
        <ele>65</ele>
        <time>2016-09-18T09:42:12.000Z</time>
      </trkpt>
      <trkpt lat="49.07167" lon="2.18911">
        <ele>67</ele>
        <time>2016-09-18T09:42:20.000Z</time>
      </trkpt>
      <trkpt lat="49.07172" lon="2.18924">
        <ele>67</ele>
        <time>2016-09-18T09:42:27.000Z</time>
      </trkpt>
      <trkpt lat="49.07174" lon="2.18939">
        <ele>68</ele>
        <time>2016-09-18T09:42:33.000Z</time>
      </trkpt>
      <trkpt lat="49.07177" lon="2.18953">
        <ele>68</ele>
        <time>2016-09-18T09:42:39.000Z</time>
      </trkpt>
      <trkpt lat="49.07184" lon="2.18963">
        <ele>64</ele>
        <time>2016-09-18T09:42:47.000Z</time>
      </trkpt>
      <trkpt lat="49.07188" lon="2.18979">
        <ele>64</ele>
        <time>2016-09-18T09:42:54.000Z</time>
      </trkpt>
      <trkpt lat="49.07193" lon="2.18994">
        <ele>61</ele>
        <time>2016-09-18T09:43:02.000Z</time>
      </trkpt>
      <trkpt lat="49.07198" lon="2.19007">
        <ele>62</ele>
        <time>2016-09-18T09:43:08.000Z</time>
      </trkpt>
      <trkpt lat="49.07204" lon="2.19018">
        <ele>60</ele>
        <time>2016-09-18T09:43:15.000Z</time>
      </trkpt>
      <trkpt lat="49.07208" lon="2.19032">
        <ele>63</ele>
        <time>2016-09-18T09:43:21.000Z</time>
      </trkpt>
      <trkpt lat="49.07211" lon="2.19046">
        <ele>64</ele>
        <time>2016-09-18T09:43:27.000Z</time>
      </trkpt>
      <trkpt lat="49.07214" lon="2.19061">
        <ele>64</ele>
        <time>2016-09-18T09:43:34.000Z</time>
      </trkpt>
      <trkpt lat="49.07219" lon="2.19074">
        <ele>63</ele>
        <time>2016-09-18T09:43:41.000Z</time>
      </trkpt>
      <trkpt lat="49.07224" lon="2.19086">
        <ele>64</ele>
        <time>2016-09-18T09:43:47.000Z</time>
      </trkpt>
      <trkpt lat="49.0723" lon="2.19099">
        <ele>64</ele>
        <time>2016-09-18T09:43:54.000Z</time>
      </trkpt>
      <trkpt lat="49.07235" lon="2.19116">
        <ele>66</ele>
        <time>2016-09-18T09:44:00.000Z</time>
      </trkpt>
      <trkpt lat="49.07241" lon="2.19128">
        <ele>65</ele>
        <time>2016-09-18T09:44:07.000Z</time>
      </trkpt>
      <trkpt lat="49.07248" lon="2.19138">
        <ele>63</ele>
        <time>2016-09-18T09:44:15.000Z</time>
      </trkpt>
      <trkpt lat="49.07253" lon="2.19151">
        <ele>66</ele>
        <time>2016-09-18T09:44:21.000Z</time>
      </trkpt>
      <trkpt lat="49.07259" lon="2.19161">
        <ele>59</ele>
        <time>2016-09-18T09:44:28.000Z</time>
      </trkpt>
      <trkpt lat="49.07264" lon="2.19176">
        <ele>60</ele>
        <time>2016-09-18T09:44:35.000Z</time>
      </trkpt>
      <trkpt lat="49.07263" lon="2.19196">
        <ele>64</ele>
        <time>2016-09-18T09:44:42.000Z</time>
      </trkpt>
      <trkpt lat="49.07268" lon="2.19211">
        <ele>65</ele>
        <time>2016-09-18T09:44:51.000Z</time>
      </trkpt>
      <trkpt lat="49.07275" lon="2.19224">
        <ele>66</ele>
        <time>2016-09-18T09:44:58.000Z</time>
      </trkpt>
      <trkpt lat="49.07281" lon="2.19237">
        <ele>64</ele>
        <time>2016-09-18T09:45:05.000Z</time>
      </trkpt>
      <trkpt lat="49.07285" lon="2.19252">
        <ele>63</ele>
        <time>2016-09-18T09:45:13.000Z</time>
      </trkpt>
      <trkpt lat="49.07291" lon="2.19266">
        <ele>61</ele>
        <time>2016-09-18T09:45:20.000Z</time>
      </trkpt>
      <trkpt lat="49.07299" lon="2.19277">
        <ele>59</ele>
        <time>2016-09-18T09:45:27.000Z</time>
      </trkpt>
      <trkpt lat="49.07303" lon="2.1929">
        <ele>58</ele>
        <time>2016-09-18T09:45:34.000Z</time>
      </trkpt>
      <trkpt lat="49.07309" lon="2.19303">
        <ele>60</ele>
        <time>2016-09-18T09:45:41.000Z</time>
      </trkpt>
      <trkpt lat="49.07314" lon="2.19318">
        <ele>60</ele>
        <time>2016-09-18T09:45:49.000Z</time>
      </trkpt>
      <trkpt lat="49.07318" lon="2.19332">
        <ele>63</ele>
        <time>2016-09-18T09:45:56.000Z</time>
      </trkpt>
      <trkpt lat="49.07322" lon="2.19347">
        <ele>64</ele>
        <time>2016-09-18T09:46:03.000Z</time>
      </trkpt>
      <trkpt lat="49.07327" lon="2.19358">
        <ele>62</ele>
        <time>2016-09-18T09:46:09.000Z</time>
      </trkpt>
      <trkpt lat="49.07333" lon="2.19371">
        <ele>64</ele>
        <time>2016-09-18T09:46:16.000Z</time>
      </trkpt>
      <trkpt lat="49.07339" lon="2.19381">
        <ele>65</ele>
        <time>2016-09-18T09:46:22.000Z</time>
      </trkpt>
      <trkpt lat="49.07347" lon="2.19394">
        <ele>65</ele>
        <time>2016-09-18T09:46:29.000Z</time>
      </trkpt>
      <trkpt lat="49.07355" lon="2.194">
        <ele>64</ele>
        <time>2016-09-18T09:46:37.000Z</time>
      </trkpt>
      <trkpt lat="49.07361" lon="2.19413">
        <ele>66</ele>
        <time>2016-09-18T09:46:44.000Z</time>
      </trkpt>
      <trkpt lat="49.07368" lon="2.19426">
        <ele>67</ele>
        <time>2016-09-18T09:46:52.000Z</time>
      </trkpt>
      <trkpt lat="49.07375" lon="2.19437">
        <ele>66</ele>
        <time>2016-09-18T09:46:58.000Z</time>
      </trkpt>
      <trkpt lat="49.07381" lon="2.19451">
        <ele>67</ele>
        <time>2016-09-18T09:47:04.000Z</time>
      </trkpt>
      <trkpt lat="49.07387" lon="2.19463">
        <ele>69</ele>
        <time>2016-09-18T09:47:10.000Z</time>
      </trkpt>
      <trkpt lat="49.07393" lon="2.19476">
        <ele>69</ele>
        <time>2016-09-18T09:47:17.000Z</time>
      </trkpt>
      <trkpt lat="49.074" lon="2.1949">
        <ele>70</ele>
        <time>2016-09-18T09:47:24.000Z</time>
      </trkpt>
      <trkpt lat="49.07406" lon="2.195">
        <ele>67</ele>
        <time>2016-09-18T09:47:30.000Z</time>
      </trkpt>
      <trkpt lat="49.07414" lon="2.19516">
        <ele>64</ele>
        <time>2016-09-18T09:47:37.000Z</time>
      </trkpt>
      <trkpt lat="49.07419" lon="2.1953">
        <ele>67</ele>
        <time>2016-09-18T09:47:41.000Z</time>
      </trkpt>
      <trkpt lat="49.07428" lon="2.19538">
        <ele>71</ele>
        <time>2016-09-18T09:47:50.000Z</time>
      </trkpt>
      <trkpt lat="49.07435" lon="2.19548">
        <ele>72</ele>
        <time>2016-09-18T09:47:57.000Z</time>
      </trkpt>
      <trkpt lat="49.07442" lon="2.19558">
        <ele>73</ele>
        <time>2016-09-18T09:48:04.000Z</time>
      </trkpt>
      <trkpt lat="49.07449" lon="2.19567">
        <ele>73</ele>
        <time>2016-09-18T09:48:12.000Z</time>
      </trkpt>
      <trkpt lat="49.07456" lon="2.19577">
        <ele>73</ele>
        <time>2016-09-18T09:48:18.000Z</time>
      </trkpt>
      <trkpt lat="49.07462" lon="2.19591">
        <ele>67</ele>
        <time>2016-09-18T09:48:26.000Z</time>
      </trkpt>
      <trkpt lat="49.07469" lon="2.19603">
        <ele>67</ele>
        <time>2016-09-18T09:48:33.000Z</time>
      </trkpt>
      <trkpt lat="49.07479" lon="2.19617">
        <ele>67</ele>
        <time>2016-09-18T09:48:40.000Z</time>
      </trkpt>
      <trkpt lat="49.07484" lon="2.1963">
        <ele>64</ele>
        <time>2016-09-18T09:48:47.000Z</time>
      </trkpt>
      <trkpt lat="49.07493" lon="2.19641">
        <ele>64</ele>
        <time>2016-09-18T09:48:54.000Z</time>
      </trkpt>
      <trkpt lat="49.075" lon="2.19651">
        <ele>64</ele>
        <time>2016-09-18T09:49:00.000Z</time>
      </trkpt>
      <trkpt lat="49.0751" lon="2.19661">
        <ele>62</ele>
        <time>2016-09-18T09:49:08.000Z</time>
      </trkpt>
      <trkpt lat="49.07518" lon="2.19672">
        <ele>65</ele>
        <time>2016-09-18T09:49:14.000Z</time>
      </trkpt>
      <trkpt lat="49.07525" lon="2.19684">
        <ele>63</ele>
        <time>2016-09-18T09:49:21.000Z</time>
      </trkpt>
      <trkpt lat="49.07532" lon="2.19694">
        <ele>64</ele>
        <time>2016-09-18T09:49:28.000Z</time>
      </trkpt>
      <trkpt lat="49.07541" lon="2.19704">
        <ele>62</ele>
        <time>2016-09-18T09:49:34.000Z</time>
      </trkpt>
      <trkpt lat="49.07549" lon="2.19712">
        <ele>61</ele>
        <time>2016-09-18T09:49:40.000Z</time>
      </trkpt>
      <trkpt lat="49.07557" lon="2.19718">
        <ele>59</ele>
        <time>2016-09-18T09:49:48.000Z</time>
      </trkpt>
      <trkpt lat="49.07565" lon="2.19727">
        <ele>56</ele>
        <time>2016-09-18T09:49:58.000Z</time>
      </trkpt>
      <trkpt lat="49.07575" lon="2.19738">
        <ele>60</ele>
        <time>2016-09-18T09:50:09.000Z</time>
      </trkpt>
      <trkpt lat="49.07583" lon="2.19748">
        <ele>59</ele>
        <time>2016-09-18T09:50:17.000Z</time>
      </trkpt>
      <trkpt lat="49.0759" lon="2.19756">
        <ele>56</ele>
        <time>2016-09-18T09:50:22.000Z</time>
      </trkpt>
      <trkpt lat="49.07598" lon="2.19764">
        <ele>58</ele>
        <time>2016-09-18T09:50:27.000Z</time>
      </trkpt>
      <trkpt lat="49.07606" lon="2.19774">
        <ele>57</ele>
        <time>2016-09-18T09:50:36.000Z</time>
      </trkpt>
      <trkpt lat="49.07614" lon="2.1978">
        <ele>57</ele>
        <time>2016-09-18T09:50:43.000Z</time>
      </trkpt>
      <trkpt lat="49.07622" lon="2.19788">
        <ele>60</ele>
        <time>2016-09-18T09:50:50.000Z</time>
      </trkpt>
      <trkpt lat="49.0763" lon="2.19793">
        <ele>60</ele>
        <time>2016-09-18T09:50:59.000Z</time>
      </trkpt>
      <trkpt lat="49.07638" lon="2.19804">
        <ele>59</ele>
        <time>2016-09-18T09:51:06.000Z</time>
      </trkpt>
      <trkpt lat="49.07647" lon="2.19809">
        <ele>63</ele>
        <time>2016-09-18T09:51:14.000Z</time>
      </trkpt>
      <trkpt lat="49.07655" lon="2.19818">
        <ele>63</ele>
        <time>2016-09-18T09:51:20.000Z</time>
      </trkpt>
      <trkpt lat="49.07661" lon="2.19831">
        <ele>64</ele>
        <time>2016-09-18T09:51:26.000Z</time>
      </trkpt>
      <trkpt lat="49.07669" lon="2.19839">
        <ele>63</ele>
        <time>2016-09-18T09:51:31.000Z</time>
      </trkpt>
      <trkpt lat="49.07679" lon="2.1985">
        <ele>64</ele>
        <time>2016-09-18T09:51:37.000Z</time>
      </trkpt>
      <trkpt lat="49.07687" lon="2.19856">
        <ele>62</ele>
        <time>2016-09-18T09:51:43.000Z</time>
      </trkpt>
      <trkpt lat="49.07698" lon="2.1987">
        <ele>62</ele>
        <time>2016-09-18T09:51:49.000Z</time>
      </trkpt>
      <trkpt lat="49.07707" lon="2.1988">
        <ele>65</ele>
        <time>2016-09-18T09:51:56.000Z</time>
      </trkpt>
      <trkpt lat="49.07715" lon="2.19891">
        <ele>62</ele>
        <time>2016-09-18T09:52:01.000Z</time>
      </trkpt>
      <trkpt lat="49.07722" lon="2.19901">
        <ele>63</ele>
        <time>2016-09-18T09:52:08.000Z</time>
      </trkpt>
      <trkpt lat="49.07729" lon="2.19912">
        <ele>60</ele>
        <time>2016-09-18T09:52:15.000Z</time>
      </trkpt>
      <trkpt lat="49.07737" lon="2.19924">
        <ele>60</ele>
        <time>2016-09-18T09:52:22.000Z</time>
      </trkpt>
      <trkpt lat="49.07745" lon="2.19932">
        <ele>59</ele>
        <time>2016-09-18T09:52:28.000Z</time>
      </trkpt>
      <trkpt lat="49.07753" lon="2.19941">
        <ele>60</ele>
        <time>2016-09-18T09:52:35.000Z</time>
      </trkpt>
      <trkpt lat="49.07764" lon="2.19948">
        <ele>61</ele>
        <time>2016-09-18T09:52:43.000Z</time>
      </trkpt>
      <trkpt lat="49.07771" lon="2.19958">
        <ele>62</ele>
        <time>2016-09-18T09:52:50.000Z</time>
      </trkpt>
      <trkpt lat="49.07781" lon="2.19964">
        <ele>62</ele>
        <time>2016-09-18T09:52:57.000Z</time>
      </trkpt>
      <trkpt lat="49.0779" lon="2.19966">
        <ele>63</ele>
        <time>2016-09-18T09:53:03.000Z</time>
      </trkpt>
      <trkpt lat="49.078" lon="2.19975">
        <ele>64</ele>
        <time>2016-09-18T09:53:12.000Z</time>
      </trkpt>
      <trkpt lat="49.07809" lon="2.19982">
        <ele>63</ele>
        <time>2016-09-18T09:53:20.000Z</time>
      </trkpt>
      <trkpt lat="49.0782" lon="2.19988">
        <ele>64</ele>
        <time>2016-09-18T09:53:29.000Z</time>
      </trkpt>
      <trkpt lat="49.0783" lon="2.19992">
        <ele>67</ele>
        <time>2016-09-18T09:53:36.000Z</time>
      </trkpt>
      <trkpt lat="49.07838" lon="2.2">
        <ele>64</ele>
        <time>2016-09-18T09:53:43.000Z</time>
      </trkpt>
      <trkpt lat="49.07845" lon="2.20012">
        <ele>58</ele>
        <time>2016-09-18T09:53:51.000Z</time>
      </trkpt>
      <trkpt lat="49.07853" lon="2.20018">
        <ele>56</ele>
        <time>2016-09-18T09:53:59.000Z</time>
      </trkpt>
      <trkpt lat="49.07861" lon="2.2003">
        <ele>55</ele>
        <time>2016-09-18T09:54:04.000Z</time>
      </trkpt>
      <trkpt lat="49.07869" lon="2.20038">
        <ele>56</ele>
        <time>2016-09-18T09:54:11.000Z</time>
      </trkpt>
      <trkpt lat="49.07876" lon="2.20049">
        <ele>60</ele>
        <time>2016-09-18T09:54:18.000Z</time>
      </trkpt>
      <trkpt lat="49.07884" lon="2.20059">
        <ele>59</ele>
        <time>2016-09-18T09:54:24.000Z</time>
      </trkpt>
      <trkpt lat="49.0789" lon="2.20071">
        <ele>58</ele>
        <time>2016-09-18T09:54:30.000Z</time>
      </trkpt>
      <trkpt lat="49.07898" lon="2.20082">
        <ele>61</ele>
        <time>2016-09-18T09:54:37.000Z</time>
      </trkpt>
      <trkpt lat="49.07908" lon="2.20083">
        <ele>59</ele>
        <time>2016-09-18T09:54:46.000Z</time>
      </trkpt>
      <trkpt lat="49.07917" lon="2.20089">
        <ele>63</ele>
        <time>2016-09-18T09:54:50.000Z</time>
      </trkpt>
      <trkpt lat="49.07927" lon="2.2009">
        <ele>65</ele>
        <time>2016-09-18T09:54:55.000Z</time>
      </trkpt>
      <trkpt lat="49.07936" lon="2.20092">
        <ele>67</ele>
        <time>2016-09-18T09:55:02.000Z</time>
      </trkpt>
      <trkpt lat="49.07947" lon="2.20104">
        <ele>62</ele>
        <time>2016-09-18T09:55:12.000Z</time>
      </trkpt>
      <trkpt lat="49.07956" lon="2.20113">
        <ele>62</ele>
        <time>2016-09-18T09:55:16.000Z</time>
      </trkpt>
      <trkpt lat="49.07965" lon="2.20117">
        <ele>66</ele>
        <time>2016-09-18T09:55:21.000Z</time>
      </trkpt>
      <trkpt lat="49.07975" lon="2.20125">
        <ele>65</ele>
        <time>2016-09-18T09:55:28.000Z</time>
      </trkpt>
      <trkpt lat="49.07985" lon="2.20133">
        <ele>67</ele>
        <time>2016-09-18T09:55:34.000Z</time>
      </trkpt>
      <trkpt lat="49.07994" lon="2.20137">
        <ele>69</ele>
        <time>2016-09-18T09:55:43.000Z</time>
      </trkpt>
      <trkpt lat="49.08003" lon="2.20141">
        <ele>69</ele>
        <time>2016-09-18T09:55:49.000Z</time>
      </trkpt>
      <trkpt lat="49.08011" lon="2.20149">
        <ele>67</ele>
        <time>2016-09-18T09:55:55.000Z</time>
      </trkpt>
      <trkpt lat="49.0802" lon="2.20155">
        <ele>64</ele>
        <time>2016-09-18T09:56:02.000Z</time>
      </trkpt>
      <trkpt lat="49.0803" lon="2.20158">
        <ele>68</ele>
        <time>2016-09-18T09:56:09.000Z</time>
      </trkpt>
      <trkpt lat="49.0804" lon="2.20159">
        <ele>64</ele>
        <time>2016-09-18T09:56:21.000Z</time>
      </trkpt>
      <trkpt lat="49.08051" lon="2.20166">
        <ele>66</ele>
        <time>2016-09-18T09:56:25.000Z</time>
      </trkpt>
      <trkpt lat="49.08062" lon="2.20173">
        <ele>64</ele>
        <time>2016-09-18T09:56:34.000Z</time>
      </trkpt>
      <trkpt lat="49.08071" lon="2.20181">
        <ele>64</ele>
        <time>2016-09-18T09:56:39.000Z</time>
      </trkpt>
      <trkpt lat="49.08081" lon="2.20187">
        <ele>64</ele>
        <time>2016-09-18T09:56:46.000Z</time>
      </trkpt>
      <trkpt lat="49.0809" lon="2.20191">
        <ele>61</ele>
        <time>2016-09-18T09:56:52.000Z</time>
      </trkpt>
      <trkpt lat="49.08099" lon="2.20196">
        <ele>60</ele>
        <time>2016-09-18T09:56:59.000Z</time>
      </trkpt>
      <trkpt lat="49.08109" lon="2.20206">
        <ele>61</ele>
        <time>2016-09-18T09:57:06.000Z</time>
      </trkpt>
      <trkpt lat="49.08119" lon="2.20214">
        <ele>62</ele>
        <time>2016-09-18T09:57:13.000Z</time>
      </trkpt>
      <trkpt lat="49.08128" lon="2.2022">
        <ele>62</ele>
        <time>2016-09-18T09:57:20.000Z</time>
      </trkpt>
      <trkpt lat="49.08138" lon="2.20226">
        <ele>64</ele>
        <time>2016-09-18T09:57:28.000Z</time>
      </trkpt>
      <trkpt lat="49.08149" lon="2.20233">
        <ele>61</ele>
        <time>2016-09-18T09:57:37.000Z</time>
      </trkpt>
      <trkpt lat="49.08159" lon="2.20239">
        <ele>62</ele>
        <time>2016-09-18T09:57:44.000Z</time>
      </trkpt>
      <trkpt lat="49.0817" lon="2.20245">
        <ele>60</ele>
        <time>2016-09-18T09:57:51.000Z</time>
      </trkpt>
      <trkpt lat="49.08178" lon="2.20252">
        <ele>60</ele>
        <time>2016-09-18T09:57:57.000Z</time>
      </trkpt>
      <trkpt lat="49.08188" lon="2.2026">
        <ele>59</ele>
        <time>2016-09-18T09:58:03.000Z</time>
      </trkpt>
      <trkpt lat="49.08194" lon="2.20269">
        <ele>61</ele>
        <time>2016-09-18T09:58:09.000Z</time>
      </trkpt>
      <trkpt lat="49.08205" lon="2.20273">
        <ele>59</ele>
        <time>2016-09-18T09:58:17.000Z</time>
      </trkpt>
      <trkpt lat="49.08212" lon="2.20282">
        <ele>60</ele>
        <time>2016-09-18T09:58:24.000Z</time>
      </trkpt>
      <trkpt lat="49.0822" lon="2.2029">
        <ele>62</ele>
        <time>2016-09-18T09:58:31.000Z</time>
      </trkpt>
      <trkpt lat="49.08229" lon="2.20298">
        <ele>63</ele>
        <time>2016-09-18T09:58:38.000Z</time>
      </trkpt>
      <trkpt lat="49.08238" lon="2.20308">
        <ele>60</ele>
        <time>2016-09-18T09:58:46.000Z</time>
      </trkpt>
      <trkpt lat="49.08248" lon="2.20313">
        <ele>61</ele>
        <time>2016-09-18T09:58:52.000Z</time>
      </trkpt>
      <trkpt lat="49.08257" lon="2.20318">
        <ele>61</ele>
        <time>2016-09-18T09:58:58.000Z</time>
      </trkpt>
      <trkpt lat="49.08265" lon="2.20327">
        <ele>62</ele>
        <time>2016-09-18T09:59:06.000Z</time>
      </trkpt>
      <trkpt lat="49.08276" lon="2.20335">
        <ele>60</ele>
        <time>2016-09-18T09:59:14.000Z</time>
      </trkpt>
      <trkpt lat="49.08286" lon="2.2034">
        <ele>56</ele>
        <time>2016-09-18T09:59:22.000Z</time>
      </trkpt>
      <trkpt lat="49.08294" lon="2.20353">
        <ele>60</ele>
        <time>2016-09-18T09:59:29.000Z</time>
      </trkpt>
      <trkpt lat="49.08304" lon="2.20362">
        <ele>60</ele>
        <time>2016-09-18T09:59:38.000Z</time>
      </trkpt>
      <trkpt lat="49.08312" lon="2.20371">
        <ele>58</ele>
        <time>2016-09-18T09:59:44.000Z</time>
      </trkpt>
      <trkpt lat="49.08322" lon="2.20382">
        <ele>59</ele>
        <time>2016-09-18T09:59:51.000Z</time>
      </trkpt>
      <trkpt lat="49.08332" lon="2.2039">
        <ele>58</ele>
        <time>2016-09-18T09:59:57.000Z</time>
      </trkpt>
      <trkpt lat="49.0834" lon="2.20399">
        <ele>58</ele>
        <time>2016-09-18T10:00:04.000Z</time>
      </trkpt>
      <trkpt lat="49.08349" lon="2.20407">
        <ele>63</ele>
        <time>2016-09-18T10:00:11.000Z</time>
      </trkpt>
      <trkpt lat="49.08357" lon="2.20419">
        <ele>63</ele>
        <time>2016-09-18T10:00:18.000Z</time>
      </trkpt>
      <trkpt lat="49.08365" lon="2.20427">
        <ele>60</ele>
        <time>2016-09-18T10:00:24.000Z</time>
      </trkpt>
      <trkpt lat="49.08372" lon="2.20436">
        <ele>59</ele>
        <time>2016-09-18T10:00:30.000Z</time>
      </trkpt>
      <trkpt lat="49.0838" lon="2.20444">
        <ele>61</ele>
        <time>2016-09-18T10:00:37.000Z</time>
      </trkpt>
      <trkpt lat="49.08389" lon="2.20447">
        <ele>60</ele>
        <time>2016-09-18T10:00:43.000Z</time>
      </trkpt>
      <trkpt lat="49.08398" lon="2.20454">
        <ele>61</ele>
        <time>2016-09-18T10:00:51.000Z</time>
      </trkpt>
      <trkpt lat="49.08409" lon="2.20462">
        <ele>61</ele>
        <time>2016-09-18T10:00:55.000Z</time>
      </trkpt>
      <trkpt lat="49.08421" lon="2.20469">
        <ele>60</ele>
        <time>2016-09-18T10:01:09.000Z</time>
      </trkpt>
      <trkpt lat="49.08425" lon="2.20483">
        <ele>100</ele>
        <time>2016-09-18T10:01:14.000Z</time>
      </trkpt>
      <trkpt lat="49.08434" lon="2.2048">
        <ele>78</ele>
        <time>2016-09-18T10:01:19.000Z</time>
      </trkpt>
      <trkpt lat="49.08441" lon="2.20489">
        <ele>67</ele>
        <time>2016-09-18T10:01:26.000Z</time>
      </trkpt>
      <trkpt lat="49.08432" lon="2.20494">
        <ele>62</ele>
        <time>2016-09-18T10:01:48.000Z</time>
      </trkpt>
      <trkpt lat="49.08421" lon="2.20487">
        <ele>70</ele>
        <time>2016-09-18T10:01:59.000Z</time>
      </trkpt>
      <trkpt lat="49.08416" lon="2.20501">
        <ele>70</ele>
        <time>2016-09-18T10:02:26.000Z</time>
      </trkpt>
      <trkpt lat="49.0841" lon="2.20513">
        <ele>71</ele>
        <time>2016-09-18T10:02:32.000Z</time>
      </trkpt>
      <trkpt lat="49.08406" lon="2.20528">
        <ele>72</ele>
        <time>2016-09-18T10:02:41.000Z</time>
      </trkpt>
      <trkpt lat="49.08398" lon="2.20538">
        <ele>70</ele>
        <time>2016-09-18T10:02:49.000Z</time>
      </trkpt>
      <trkpt lat="49.0839" lon="2.20551">
        <ele>68</ele>
        <time>2016-09-18T10:02:56.000Z</time>
      </trkpt>
      <trkpt lat="49.08391" lon="2.20572">
        <ele>68</ele>
        <time>2016-09-18T10:03:04.000Z</time>
      </trkpt>
      <trkpt lat="49.08389" lon="2.20589">
        <ele>69</ele>
        <time>2016-09-18T10:03:12.000Z</time>
      </trkpt>
      <trkpt lat="49.08387" lon="2.20603">
        <ele>68</ele>
        <time>2016-09-18T10:03:16.000Z</time>
      </trkpt>
      <trkpt lat="49.08389" lon="2.20622">
        <ele>70</ele>
        <time>2016-09-18T10:03:23.000Z</time>
      </trkpt>
      <trkpt lat="49.0839" lon="2.20636">
        <ele>68</ele>
        <time>2016-09-18T10:03:29.000Z</time>
      </trkpt>
      <trkpt lat="49.08397" lon="2.20646">
        <ele>66</ele>
        <time>2016-09-18T10:03:37.000Z</time>
      </trkpt>
      <trkpt lat="49.08405" lon="2.20653">
        <ele>67</ele>
        <time>2016-09-18T10:03:43.000Z</time>
      </trkpt>
      <trkpt lat="49.08416" lon="2.20655">
        <ele>60</ele>
        <time>2016-09-18T10:03:50.000Z</time>
      </trkpt>
      <trkpt lat="49.08426" lon="2.20662">
        <ele>67</ele>
        <time>2016-09-18T10:03:58.000Z</time>
      </trkpt>
      <trkpt lat="49.08435" lon="2.20666">
        <ele>64</ele>
        <time>2016-09-18T10:04:04.000Z</time>
      </trkpt>
      <trkpt lat="49.08444" lon="2.20673">
        <ele>70</ele>
        <time>2016-09-18T10:04:12.000Z</time>
      </trkpt>
      <trkpt lat="49.08453" lon="2.20676">
        <ele>76</ele>
        <time>2016-09-18T10:04:18.000Z</time>
      </trkpt>
      <trkpt lat="49.08462" lon="2.20679">
        <ele>78</ele>
        <time>2016-09-18T10:04:24.000Z</time>
      </trkpt>
      <trkpt lat="49.08472" lon="2.20685">
        <ele>73</ele>
        <time>2016-09-18T10:04:31.000Z</time>
      </trkpt>
      <trkpt lat="49.0848" lon="2.20693">
        <ele>80</ele>
        <time>2016-09-18T10:04:38.000Z</time>
      </trkpt>
      <trkpt lat="49.0849" lon="2.20691">
        <ele>73</ele>
        <time>2016-09-18T10:04:45.000Z</time>
      </trkpt>
      <trkpt lat="49.08502" lon="2.20693">
        <ele>71</ele>
        <time>2016-09-18T10:04:56.000Z</time>
      </trkpt>
      <trkpt lat="49.08511" lon="2.20698">
        <ele>69</ele>
        <time>2016-09-18T10:05:02.000Z</time>
      </trkpt>
      <trkpt lat="49.0852" lon="2.20705">
        <ele>67</ele>
        <time>2016-09-18T10:05:09.000Z</time>
      </trkpt>
      <trkpt lat="49.0853" lon="2.20711">
        <ele>68</ele>
        <time>2016-09-18T10:05:16.000Z</time>
      </trkpt>
      <trkpt lat="49.0854" lon="2.20716">
        <ele>74</ele>
        <time>2016-09-18T10:05:22.000Z</time>
      </trkpt>
      <trkpt lat="49.08551" lon="2.20725">
        <ele>71</ele>
        <time>2016-09-18T10:05:28.000Z</time>
      </trkpt>
      <trkpt lat="49.0856" lon="2.20727">
        <ele>71</ele>
        <time>2016-09-18T10:05:34.000Z</time>
      </trkpt>
      <trkpt lat="49.08569" lon="2.20737">
        <ele>75</ele>
        <time>2016-09-18T10:05:43.000Z</time>
      </trkpt>
      <trkpt lat="49.08578" lon="2.2074">
        <ele>75</ele>
        <time>2016-09-18T10:05:48.000Z</time>
      </trkpt>
      <trkpt lat="49.08588" lon="2.20747">
        <ele>76</ele>
        <time>2016-09-18T10:05:54.000Z</time>
      </trkpt>
      <trkpt lat="49.08597" lon="2.20753">
        <ele>75</ele>
        <time>2016-09-18T10:06:02.000Z</time>
      </trkpt>
      <trkpt lat="49.08607" lon="2.2076">
        <ele>72</ele>
        <time>2016-09-18T10:06:11.000Z</time>
      </trkpt>
      <trkpt lat="49.08616" lon="2.20767">
        <ele>71</ele>
        <time>2016-09-18T10:06:17.000Z</time>
      </trkpt>
      <trkpt lat="49.08625" lon="2.20773">
        <ele>74</ele>
        <time>2016-09-18T10:06:23.000Z</time>
      </trkpt>
      <trkpt lat="49.08629" lon="2.20787">
        <ele>73</ele>
        <time>2016-09-18T10:06:31.000Z</time>
      </trkpt>
      <trkpt lat="49.08634" lon="2.20804">
        <ele>69</ele>
        <time>2016-09-18T10:06:40.000Z</time>
      </trkpt>
      <trkpt lat="49.08634" lon="2.20818">
        <ele>68</ele>
        <time>2016-09-18T10:06:49.000Z</time>
      </trkpt>
      <trkpt lat="49.08637" lon="2.20833">
        <ele>66</ele>
        <time>2016-09-18T10:06:56.000Z</time>
      </trkpt>
      <trkpt lat="49.08638" lon="2.20847">
        <ele>66</ele>
        <time>2016-09-18T10:07:03.000Z</time>
      </trkpt>
      <trkpt lat="49.08637" lon="2.20861">
        <ele>65</ele>
        <time>2016-09-18T10:07:09.000Z</time>
      </trkpt>
      <trkpt lat="49.08641" lon="2.20876">
        <ele>65</ele>
        <time>2016-09-18T10:07:17.000Z</time>
      </trkpt>
      <trkpt lat="49.08638" lon="2.20892">
        <ele>64</ele>
        <time>2016-09-18T10:07:23.000Z</time>
      </trkpt>
      <trkpt lat="49.08638" lon="2.20908">
        <ele>67</ele>
        <time>2016-09-18T10:07:31.000Z</time>
      </trkpt>
      <trkpt lat="49.08639" lon="2.20935">
        <ele>73</ele>
        <time>2016-09-18T10:07:41.000Z</time>
      </trkpt>
      <trkpt lat="49.08639" lon="2.20949">
        <ele>69</ele>
        <time>2016-09-18T10:07:48.000Z</time>
      </trkpt>
      <trkpt lat="49.08635" lon="2.20969">
        <ele>67</ele>
        <time>2016-09-18T10:07:57.000Z</time>
      </trkpt>
      <trkpt lat="49.08637" lon="2.20983">
        <ele>71</ele>
        <time>2016-09-18T10:08:03.000Z</time>
      </trkpt>
      <trkpt lat="49.08637" lon="2.20997">
        <ele>75</ele>
        <time>2016-09-18T10:08:10.000Z</time>
      </trkpt>
      <trkpt lat="49.08637" lon="2.21013">
        <ele>74</ele>
        <time>2016-09-18T10:08:15.000Z</time>
      </trkpt>
      <trkpt lat="49.08635" lon="2.21029">
        <ele>76</ele>
        <time>2016-09-18T10:08:22.000Z</time>
      </trkpt>
      <trkpt lat="49.08633" lon="2.21043">
        <ele>74</ele>
        <time>2016-09-18T10:08:28.000Z</time>
      </trkpt>
      <trkpt lat="49.08629" lon="2.21058">
        <ele>77</ele>
        <time>2016-09-18T10:08:34.000Z</time>
      </trkpt>
      <trkpt lat="49.08629" lon="2.21073">
        <ele>78</ele>
        <time>2016-09-18T10:08:41.000Z</time>
      </trkpt>
      <trkpt lat="49.08625" lon="2.21087">
        <ele>72</ele>
        <time>2016-09-18T10:08:48.000Z</time>
      </trkpt>
      <trkpt lat="49.08622" lon="2.21101">
        <ele>73</ele>
        <time>2016-09-18T10:08:54.000Z</time>
      </trkpt>
      <trkpt lat="49.0862" lon="2.21117">
        <ele>73</ele>
        <time>2016-09-18T10:09:01.000Z</time>
      </trkpt>
      <trkpt lat="49.08617" lon="2.2113">
        <ele>71</ele>
        <time>2016-09-18T10:09:08.000Z</time>
      </trkpt>
      <trkpt lat="49.08616" lon="2.21146">
        <ele>72</ele>
        <time>2016-09-18T10:09:16.000Z</time>
      </trkpt>
      <trkpt lat="49.08614" lon="2.21161">
        <ele>72</ele>
        <time>2016-09-18T10:09:22.000Z</time>
      </trkpt>
      <trkpt lat="49.08612" lon="2.21175">
        <ele>71</ele>
        <time>2016-09-18T10:09:29.000Z</time>
      </trkpt>
      <trkpt lat="49.08612" lon="2.21189">
        <ele>67</ele>
        <time>2016-09-18T10:09:38.000Z</time>
      </trkpt>
      <trkpt lat="49.08609" lon="2.21206">
        <ele>69</ele>
        <time>2016-09-18T10:09:45.000Z</time>
      </trkpt>
      <trkpt lat="49.08609" lon="2.2122">
        <ele>71</ele>
        <time>2016-09-18T10:09:51.000Z</time>
      </trkpt>
      <trkpt lat="49.08608" lon="2.21235">
        <ele>72</ele>
        <time>2016-09-18T10:09:58.000Z</time>
      </trkpt>
      <trkpt lat="49.08606" lon="2.21249">
        <ele>71</ele>
        <time>2016-09-18T10:10:04.000Z</time>
      </trkpt>
      <trkpt lat="49.08604" lon="2.21263">
        <ele>72</ele>
        <time>2016-09-18T10:10:12.000Z</time>
      </trkpt>
      <trkpt lat="49.08601" lon="2.21276">
        <ele>68</ele>
        <time>2016-09-18T10:10:18.000Z</time>
      </trkpt>
      <trkpt lat="49.08596" lon="2.21289">
        <ele>70</ele>
        <time>2016-09-18T10:10:24.000Z</time>
      </trkpt>
      <trkpt lat="49.08586" lon="2.21289">
        <ele>73</ele>
        <time>2016-09-18T10:10:30.000Z</time>
      </trkpt>
      <trkpt lat="49.08578" lon="2.21298">
        <ele>75</ele>
        <time>2016-09-18T10:10:36.000Z</time>
      </trkpt>
      <trkpt lat="49.08574" lon="2.21312">
        <ele>75</ele>
        <time>2016-09-18T10:10:42.000Z</time>
      </trkpt>
      <trkpt lat="49.08566" lon="2.21322">
        <ele>78</ele>
        <time>2016-09-18T10:10:49.000Z</time>
      </trkpt>
      <trkpt lat="49.08558" lon="2.21334">
        <ele>72</ele>
        <time>2016-09-18T10:10:57.000Z</time>
      </trkpt>
      <trkpt lat="49.0855" lon="2.21347">
        <ele>76</ele>
        <time>2016-09-18T10:11:03.000Z</time>
      </trkpt>
      <trkpt lat="49.08548" lon="2.21362">
        <ele>80</ele>
        <time>2016-09-18T10:11:09.000Z</time>
      </trkpt>
      <trkpt lat="49.08542" lon="2.21376">
        <ele>88</ele>
        <time>2016-09-18T10:11:17.000Z</time>
      </trkpt>
      <trkpt lat="49.08542" lon="2.2139">
        <ele>90</ele>
        <time>2016-09-18T10:11:24.000Z</time>
      </trkpt>
      <trkpt lat="49.08545" lon="2.21404">
        <ele>91</ele>
        <time>2016-09-18T10:11:30.000Z</time>
      </trkpt>
      <trkpt lat="49.08554" lon="2.21417">
        <ele>87</ele>
        <time>2016-09-18T10:11:43.000Z</time>
      </trkpt>
      <trkpt lat="49.08563" lon="2.2143">
        <ele>82</ele>
        <time>2016-09-18T10:11:48.000Z</time>
      </trkpt>
      <trkpt lat="49.08572" lon="2.21435">
        <ele>76</ele>
        <time>2016-09-18T10:11:54.000Z</time>
      </trkpt>
      <trkpt lat="49.08583" lon="2.21438">
        <ele>80</ele>
        <time>2016-09-18T10:11:59.000Z</time>
      </trkpt>
      <trkpt lat="49.08593" lon="2.21439">
        <ele>82</ele>
        <time>2016-09-18T10:12:05.000Z</time>
      </trkpt>
      <trkpt lat="49.08603" lon="2.21439">
        <ele>81</ele>
        <time>2016-09-18T10:12:11.000Z</time>
      </trkpt>
      <trkpt lat="49.08613" lon="2.21439">
        <ele>80</ele>
        <time>2016-09-18T10:12:18.000Z</time>
      </trkpt>
      <trkpt lat="49.08623" lon="2.2144">
        <ele>79</ele>
        <time>2016-09-18T10:12:24.000Z</time>
      </trkpt>
      <trkpt lat="49.08635" lon="2.2144">
        <ele>78</ele>
        <time>2016-09-18T10:12:32.000Z</time>
      </trkpt>
      <trkpt lat="49.08644" lon="2.21441">
        <ele>78</ele>
        <time>2016-09-18T10:12:39.000Z</time>
      </trkpt>
      <trkpt lat="49.08653" lon="2.21441">
        <ele>80</ele>
        <time>2016-09-18T10:12:46.000Z</time>
      </trkpt>
      <trkpt lat="49.08664" lon="2.21442">
        <ele>75</ele>
        <time>2016-09-18T10:12:54.000Z</time>
      </trkpt>
      <trkpt lat="49.08675" lon="2.21441">
        <ele>69</ele>
        <time>2016-09-18T10:13:00.000Z</time>
      </trkpt>
      <trkpt lat="49.08686" lon="2.21436">
        <ele>69</ele>
        <time>2016-09-18T10:13:08.000Z</time>
      </trkpt>
      <trkpt lat="49.08695" lon="2.21432">
        <ele>67</ele>
        <time>2016-09-18T10:13:15.000Z</time>
      </trkpt>
      <trkpt lat="49.08706" lon="2.21425">
        <ele>67</ele>
        <time>2016-09-18T10:13:23.000Z</time>
      </trkpt>
      <trkpt lat="49.08714" lon="2.21421">
        <ele>68</ele>
        <time>2016-09-18T10:13:31.000Z</time>
      </trkpt>
      <trkpt lat="49.08725" lon="2.21422">
        <ele>73</ele>
        <time>2016-09-18T10:13:39.000Z</time>
      </trkpt>
      <trkpt lat="49.08735" lon="2.21424">
        <ele>75</ele>
        <time>2016-09-18T10:13:45.000Z</time>
      </trkpt>
      <trkpt lat="49.08746" lon="2.21426">
        <ele>71</ele>
        <time>2016-09-18T10:13:53.000Z</time>
      </trkpt>
      <trkpt lat="49.08755" lon="2.21428">
        <ele>73</ele>
        <time>2016-09-18T10:13:57.000Z</time>
      </trkpt>
      <trkpt lat="49.08764" lon="2.21429">
        <ele>74</ele>
        <time>2016-09-18T10:14:01.000Z</time>
      </trkpt>
      <trkpt lat="49.08774" lon="2.21432">
        <ele>77</ele>
        <time>2016-09-18T10:14:20.000Z</time>
      </trkpt>
      <trkpt lat="49.08785" lon="2.21434">
        <ele>75</ele>
        <time>2016-09-18T10:14:25.000Z</time>
      </trkpt>
      <trkpt lat="49.08794" lon="2.2143">
        <ele>77</ele>
        <time>2016-09-18T10:14:33.000Z</time>
      </trkpt>
      <trkpt lat="49.08804" lon="2.21432">
        <ele>79</ele>
        <time>2016-09-18T10:14:37.000Z</time>
      </trkpt>
      <trkpt lat="49.08813" lon="2.21433">
        <ele>76</ele>
        <time>2016-09-18T10:14:40.000Z</time>
      </trkpt>
      <trkpt lat="49.08823" lon="2.21437">
        <ele>78</ele>
        <time>2016-09-18T10:14:48.000Z</time>
      </trkpt>
      <trkpt lat="49.08833" lon="2.21434">
        <ele>73</ele>
        <time>2016-09-18T10:14:54.000Z</time>
      </trkpt>
      <trkpt lat="49.0884" lon="2.21426">
        <ele>74</ele>
        <time>2016-09-18T10:15:03.000Z</time>
      </trkpt>
      <trkpt lat="49.08845" lon="2.21414">
        <ele>76</ele>
        <time>2016-09-18T10:15:14.000Z</time>
      </trkpt>
      <trkpt lat="49.08851" lon="2.21401">
        <ele>81</ele>
        <time>2016-09-18T10:15:26.000Z</time>
      </trkpt>
      <trkpt lat="49.08858" lon="2.21388">
        <ele>81</ele>
        <time>2016-09-18T10:15:36.000Z</time>
      </trkpt>
      <trkpt lat="49.08866" lon="2.21381">
        <ele>85</ele>
        <time>2016-09-18T10:15:44.000Z</time>
      </trkpt>
      <trkpt lat="49.08872" lon="2.2137">
        <ele>87</ele>
        <time>2016-09-18T10:15:52.000Z</time>
      </trkpt>
      <trkpt lat="49.08882" lon="2.21372">
        <ele>87</ele>
        <time>2016-09-18T10:16:08.000Z</time>
      </trkpt>
      <trkpt lat="49.0889" lon="2.21381">
        <ele>91</ele>
        <time>2016-09-18T10:16:14.000Z</time>
      </trkpt>
      <trkpt lat="49.08899" lon="2.21384">
        <ele>85</ele>
        <time>2016-09-18T10:16:25.000Z</time>
      </trkpt>
      <trkpt lat="49.08909" lon="2.21392">
        <ele>85</ele>
        <time>2016-09-18T10:16:33.000Z</time>
      </trkpt>
      <trkpt lat="49.08917" lon="2.214">
        <ele>87</ele>
        <time>2016-09-18T10:16:41.000Z</time>
      </trkpt>
      <trkpt lat="49.08927" lon="2.21404">
        <ele>84</ele>
        <time>2016-09-18T10:16:49.000Z</time>
      </trkpt>
      <trkpt lat="49.08936" lon="2.21409">
        <ele>89</ele>
        <time>2016-09-18T10:16:57.000Z</time>
      </trkpt>
      <trkpt lat="49.08925" lon="2.21423">
        <ele>91</ele>
        <time>2016-09-18T10:17:08.000Z</time>
      </trkpt>
      <trkpt lat="49.08916" lon="2.21423">
        <ele>90</ele>
        <time>2016-09-18T10:17:17.000Z</time>
      </trkpt>
      <trkpt lat="49.08907" lon="2.21428">
        <ele>87</ele>
        <time>2016-09-18T10:17:24.000Z</time>
      </trkpt>
      <trkpt lat="49.08898" lon="2.21426">
        <ele>83</ele>
        <time>2016-09-18T10:17:32.000Z</time>
      </trkpt>
      <trkpt lat="49.08888" lon="2.2143">
        <ele>80</ele>
        <time>2016-09-18T10:17:38.000Z</time>
      </trkpt>
      <trkpt lat="49.0889" lon="2.21444">
        <ele>77</ele>
        <time>2016-09-18T10:17:46.000Z</time>
      </trkpt>
      <trkpt lat="49.0889" lon="2.21458">
        <ele>76</ele>
        <time>2016-09-18T10:17:51.000Z</time>
      </trkpt>
      <trkpt lat="49.08891" lon="2.21474">
        <ele>76</ele>
        <time>2016-09-18T10:17:59.000Z</time>
      </trkpt>
      <trkpt lat="49.08889" lon="2.21488">
        <ele>82</ele>
        <time>2016-09-18T10:18:04.000Z</time>
      </trkpt>
      <trkpt lat="49.08886" lon="2.21502">
        <ele>81</ele>
        <time>2016-09-18T10:18:10.000Z</time>
      </trkpt>
      <trkpt lat="49.08881" lon="2.21514">
        <ele>87</ele>
        <time>2016-09-18T10:18:16.000Z</time>
      </trkpt>
      <trkpt lat="49.08881" lon="2.21529">
        <ele>94</ele>
        <time>2016-09-18T10:18:23.000Z</time>
      </trkpt>
      <trkpt lat="49.08874" lon="2.2154">
        <ele>89</ele>
        <time>2016-09-18T10:18:30.000Z</time>
      </trkpt>
      <trkpt lat="49.08871" lon="2.21554">
        <ele>83</ele>
        <time>2016-09-18T10:18:38.000Z</time>
      </trkpt>
      <trkpt lat="49.08868" lon="2.21567">
        <ele>82</ele>
        <time>2016-09-18T10:18:46.000Z</time>
      </trkpt>
      <trkpt lat="49.08867" lon="2.21583">
        <ele>81</ele>
        <time>2016-09-18T10:18:53.000Z</time>
      </trkpt>
      <trkpt lat="49.08865" lon="2.21597">
        <ele>83</ele>
        <time>2016-09-18T10:19:00.000Z</time>
      </trkpt>
      <trkpt lat="49.08862" lon="2.21611">
        <ele>85</ele>
        <time>2016-09-18T10:19:06.000Z</time>
      </trkpt>
      <trkpt lat="49.08857" lon="2.21624">
        <ele>89</ele>
        <time>2016-09-18T10:19:12.000Z</time>
      </trkpt>
      <trkpt lat="49.08853" lon="2.21638">
        <ele>93</ele>
        <time>2016-09-18T10:19:17.000Z</time>
      </trkpt>
      <trkpt lat="49.08849" lon="2.21652">
        <ele>90</ele>
        <time>2016-09-18T10:19:25.000Z</time>
      </trkpt>
      <trkpt lat="49.08844" lon="2.21665">
        <ele>89</ele>
        <time>2016-09-18T10:19:31.000Z</time>
      </trkpt>
      <trkpt lat="49.0884" lon="2.21677">
        <ele>88</ele>
        <time>2016-09-18T10:19:38.000Z</time>
      </trkpt>
      <trkpt lat="49.08838" lon="2.21692">
        <ele>86</ele>
        <time>2016-09-18T10:19:44.000Z</time>
      </trkpt>
      <trkpt lat="49.08838" lon="2.21706">
        <ele>83</ele>
        <time>2016-09-18T10:19:50.000Z</time>
      </trkpt>
      <trkpt lat="49.08838" lon="2.2172">
        <ele>81</ele>
        <time>2016-09-18T10:19:57.000Z</time>
      </trkpt>
      <trkpt lat="49.08837" lon="2.21736">
        <ele>76</ele>
        <time>2016-09-18T10:20:05.000Z</time>
      </trkpt>
      <trkpt lat="49.08835" lon="2.2175">
        <ele>81</ele>
        <time>2016-09-18T10:20:11.000Z</time>
      </trkpt>
      <trkpt lat="49.08835" lon="2.21764">
        <ele>81</ele>
        <time>2016-09-18T10:20:17.000Z</time>
      </trkpt>
      <trkpt lat="49.08835" lon="2.2178">
        <ele>79</ele>
        <time>2016-09-18T10:20:27.000Z</time>
      </trkpt>
      <trkpt lat="49.08831" lon="2.21794">
        <ele>83</ele>
        <time>2016-09-18T10:20:32.000Z</time>
      </trkpt>
      <trkpt lat="49.0883" lon="2.21808">
        <ele>95</ele>
        <time>2016-09-18T10:20:38.000Z</time>
      </trkpt>
      <trkpt lat="49.08829" lon="2.21822">
        <ele>88</ele>
        <time>2016-09-18T10:20:44.000Z</time>
      </trkpt>
      <trkpt lat="49.08827" lon="2.21839">
        <ele>87</ele>
        <time>2016-09-18T10:20:51.000Z</time>
      </trkpt>
      <trkpt lat="49.08826" lon="2.21853">
        <ele>92</ele>
        <time>2016-09-18T10:20:56.000Z</time>
      </trkpt>
      <trkpt lat="49.08824" lon="2.21869">
        <ele>99</ele>
        <time>2016-09-18T10:21:03.000Z</time>
      </trkpt>
      <trkpt lat="49.08825" lon="2.21885">
        <ele>97</ele>
        <time>2016-09-18T10:21:13.000Z</time>
      </trkpt>
      <trkpt lat="49.08825" lon="2.21899">
        <ele>96</ele>
        <time>2016-09-18T10:21:21.000Z</time>
      </trkpt>
      <trkpt lat="49.08822" lon="2.21913">
        <ele>98</ele>
        <time>2016-09-18T10:21:39.000Z</time>
      </trkpt>
      <trkpt lat="49.0882" lon="2.21928">
        <ele>94</ele>
        <time>2016-09-18T10:21:47.000Z</time>
      </trkpt>
      <trkpt lat="49.08818" lon="2.21942">
        <ele>94</ele>
        <time>2016-09-18T10:21:53.000Z</time>
      </trkpt>
      <trkpt lat="49.0882" lon="2.21957">
        <ele>87</ele>
        <time>2016-09-18T10:22:01.000Z</time>
      </trkpt>
      <trkpt lat="49.08817" lon="2.2197">
        <ele>91</ele>
        <time>2016-09-18T10:22:08.000Z</time>
      </trkpt>
      <trkpt lat="49.08812" lon="2.21981">
        <ele>87</ele>
        <time>2016-09-18T10:22:17.000Z</time>
      </trkpt>
      <trkpt lat="49.08808" lon="2.21994">
        <ele>86</ele>
        <time>2016-09-18T10:22:24.000Z</time>
      </trkpt>
      <trkpt lat="49.08802" lon="2.22005">
        <ele>85</ele>
        <time>2016-09-18T10:22:30.000Z</time>
      </trkpt>
      <trkpt lat="49.08796" lon="2.22016">
        <ele>82</ele>
        <time>2016-09-18T10:22:37.000Z</time>
      </trkpt>
      <trkpt lat="49.08791" lon="2.22028">
        <ele>85</ele>
        <time>2016-09-18T10:22:43.000Z</time>
      </trkpt>
      <trkpt lat="49.08784" lon="2.22039">
        <ele>81</ele>
        <time>2016-09-18T10:22:50.000Z</time>
      </trkpt>
      <trkpt lat="49.08778" lon="2.22052">
        <ele>82</ele>
        <time>2016-09-18T10:22:57.000Z</time>
      </trkpt>
      <trkpt lat="49.08772" lon="2.22062">
        <ele>82</ele>
        <time>2016-09-18T10:23:03.000Z</time>
      </trkpt>
      <trkpt lat="49.08765" lon="2.22072">
        <ele>80</ele>
        <time>2016-09-18T10:23:09.000Z</time>
      </trkpt>
      <trkpt lat="49.08759" lon="2.22085">
        <ele>79</ele>
        <time>2016-09-18T10:23:15.000Z</time>
      </trkpt>
      <trkpt lat="49.08753" lon="2.22096">
        <ele>76</ele>
        <time>2016-09-18T10:23:22.000Z</time>
      </trkpt>
      <trkpt lat="49.08745" lon="2.22106">
        <ele>74</ele>
        <time>2016-09-18T10:23:28.000Z</time>
      </trkpt>
      <trkpt lat="49.08739" lon="2.22118">
        <ele>77</ele>
        <time>2016-09-18T10:23:34.000Z</time>
      </trkpt>
      <trkpt lat="49.08733" lon="2.22128">
        <ele>73</ele>
        <time>2016-09-18T10:23:41.000Z</time>
      </trkpt>
      <trkpt lat="49.08728" lon="2.22143">
        <ele>77</ele>
        <time>2016-09-18T10:23:48.000Z</time>
      </trkpt>
      <trkpt lat="49.08724" lon="2.22156">
        <ele>78</ele>
        <time>2016-09-18T10:23:54.000Z</time>
      </trkpt>
      <trkpt lat="49.0872" lon="2.2217">
        <ele>78</ele>
        <time>2016-09-18T10:24:01.000Z</time>
      </trkpt>
      <trkpt lat="49.08718" lon="2.22187">
        <ele>80</ele>
        <time>2016-09-18T10:24:07.000Z</time>
      </trkpt>
      <trkpt lat="49.08716" lon="2.22201">
        <ele>81</ele>
        <time>2016-09-18T10:24:13.000Z</time>
      </trkpt>
      <trkpt lat="49.08712" lon="2.22216">
        <ele>83</ele>
        <time>2016-09-18T10:24:18.000Z</time>
      </trkpt>
      <trkpt lat="49.08712" lon="2.2223">
        <ele>83</ele>
        <time>2016-09-18T10:24:24.000Z</time>
      </trkpt>
      <trkpt lat="49.08714" lon="2.22245">
        <ele>82</ele>
        <time>2016-09-18T10:24:31.000Z</time>
      </trkpt>
      <trkpt lat="49.08716" lon="2.2226">
        <ele>81</ele>
        <time>2016-09-18T10:24:39.000Z</time>
      </trkpt>
      <trkpt lat="49.08718" lon="2.22275">
        <ele>77</ele>
        <time>2016-09-18T10:24:46.000Z</time>
      </trkpt>
      <trkpt lat="49.08719" lon="2.22289">
        <ele>78</ele>
        <time>2016-09-18T10:24:53.000Z</time>
      </trkpt>
      <trkpt lat="49.08721" lon="2.22304">
        <ele>77</ele>
        <time>2016-09-18T10:25:01.000Z</time>
      </trkpt>
      <trkpt lat="49.08719" lon="2.22318">
        <ele>81</ele>
        <time>2016-09-18T10:25:06.000Z</time>
      </trkpt>
      <trkpt lat="49.08717" lon="2.22332">
        <ele>82</ele>
        <time>2016-09-18T10:25:12.000Z</time>
      </trkpt>
      <trkpt lat="49.08717" lon="2.22345">
        <ele>81</ele>
        <time>2016-09-18T10:25:17.000Z</time>
      </trkpt>
      <trkpt lat="49.08714" lon="2.2236">
        <ele>84</ele>
        <time>2016-09-18T10:25:23.000Z</time>
      </trkpt>
      <trkpt lat="49.08714" lon="2.22375">
        <ele>85</ele>
        <time>2016-09-18T10:25:29.000Z</time>
      </trkpt>
      <trkpt lat="49.08706" lon="2.22384">
        <ele>85</ele>
        <time>2016-09-18T10:25:36.000Z</time>
      </trkpt>
      <trkpt lat="49.08697" lon="2.22391">
        <ele>83</ele>
        <time>2016-09-18T10:25:42.000Z</time>
      </trkpt>
      <trkpt lat="49.0869" lon="2.22401">
        <ele>85</ele>
        <time>2016-09-18T10:25:48.000Z</time>
      </trkpt>
      <trkpt lat="49.08683" lon="2.22413">
        <ele>87</ele>
        <time>2016-09-18T10:25:54.000Z</time>
      </trkpt>
      <trkpt lat="49.08682" lon="2.22428">
        <ele>83</ele>
        <time>2016-09-18T10:26:01.000Z</time>
      </trkpt>
      <trkpt lat="49.08677" lon="2.22442">
        <ele>84</ele>
        <time>2016-09-18T10:26:07.000Z</time>
      </trkpt>
      <trkpt lat="49.08674" lon="2.22456">
        <ele>84</ele>
        <time>2016-09-18T10:26:13.000Z</time>
      </trkpt>
      <trkpt lat="49.08671" lon="2.22469">
        <ele>85</ele>
        <time>2016-09-18T10:26:18.000Z</time>
      </trkpt>
      <trkpt lat="49.08669" lon="2.22486">
        <ele>91</ele>
        <time>2016-09-18T10:26:24.000Z</time>
      </trkpt>
      <trkpt lat="49.08666" lon="2.22501">
        <ele>92</ele>
        <time>2016-09-18T10:26:32.000Z</time>
      </trkpt>
      <trkpt lat="49.08665" lon="2.22515">
        <ele>92</ele>
        <time>2016-09-18T10:26:37.000Z</time>
      </trkpt>
      <trkpt lat="49.08666" lon="2.22531">
        <ele>92</ele>
        <time>2016-09-18T10:26:44.000Z</time>
      </trkpt>
      <trkpt lat="49.08667" lon="2.22544">
        <ele>88</ele>
        <time>2016-09-18T10:26:51.000Z</time>
      </trkpt>
      <trkpt lat="49.08666" lon="2.2256">
        <ele>89</ele>
        <time>2016-09-18T10:26:59.000Z</time>
      </trkpt>
      <trkpt lat="49.08665" lon="2.22576">
        <ele>89</ele>
        <time>2016-09-18T10:27:05.000Z</time>
      </trkpt>
      <trkpt lat="49.08665" lon="2.2259">
        <ele>89</ele>
        <time>2016-09-18T10:27:12.000Z</time>
      </trkpt>
      <trkpt lat="49.08661" lon="2.22604">
        <ele>88</ele>
        <time>2016-09-18T10:27:20.000Z</time>
      </trkpt>
      <trkpt lat="49.08656" lon="2.22618">
        <ele>87</ele>
        <time>2016-09-18T10:27:26.000Z</time>
      </trkpt>
      <trkpt lat="49.08653" lon="2.22631">
        <ele>88</ele>
        <time>2016-09-18T10:27:31.000Z</time>
      </trkpt>
      <trkpt lat="49.08646" lon="2.2264">
        <ele>84</ele>
        <time>2016-09-18T10:27:41.000Z</time>
      </trkpt>
      <trkpt lat="49.08638" lon="2.22646">
        <ele>86</ele>
        <time>2016-09-18T10:27:56.000Z</time>
      </trkpt>
      <trkpt lat="49.08666" lon="2.22674">
        <ele>117</ele>
        <time>2016-09-18T11:03:51.000Z</time>
      </trkpt>
      <trkpt lat="49.08666" lon="2.22689">
        <ele>108</ele>
        <time>2016-09-18T11:04:02.000Z</time>
      </trkpt>
      <trkpt lat="49.08662" lon="2.22702">
        <ele>111</ele>
        <time>2016-09-18T11:04:09.000Z</time>
      </trkpt>
      <trkpt lat="49.0866" lon="2.22716">
        <ele>108</ele>
        <time>2016-09-18T11:04:23.000Z</time>
      </trkpt>
      <trkpt lat="49.08663" lon="2.22729">
        <ele>107</ele>
        <time>2016-09-18T11:04:29.000Z</time>
      </trkpt>
      <trkpt lat="49.08664" lon="2.22744">
        <ele>106</ele>
        <time>2016-09-18T11:04:36.000Z</time>
      </trkpt>
      <trkpt lat="49.08669" lon="2.22758">
        <ele>106</ele>
        <time>2016-09-18T11:04:43.000Z</time>
      </trkpt>
      <trkpt lat="49.08675" lon="2.2277">
        <ele>104</ele>
        <time>2016-09-18T11:04:50.000Z</time>
      </trkpt>
      <trkpt lat="49.08683" lon="2.2278">
        <ele>106</ele>
        <time>2016-09-18T11:04:57.000Z</time>
      </trkpt>
      <trkpt lat="49.08692" lon="2.22786">
        <ele>106</ele>
        <time>2016-09-18T11:05:03.000Z</time>
      </trkpt>
      <trkpt lat="49.08696" lon="2.228">
        <ele>105</ele>
        <time>2016-09-18T11:05:09.000Z</time>
      </trkpt>
      <trkpt lat="49.08702" lon="2.22811">
        <ele>107</ele>
        <time>2016-09-18T11:05:15.000Z</time>
      </trkpt>
      <trkpt lat="49.08709" lon="2.22818">
        <ele>107</ele>
        <time>2016-09-18T11:05:21.000Z</time>
      </trkpt>
      <trkpt lat="49.08716" lon="2.22829">
        <ele>111</ele>
        <time>2016-09-18T11:05:28.000Z</time>
      </trkpt>
      <trkpt lat="49.08722" lon="2.22841">
        <ele>110</ele>
        <time>2016-09-18T11:05:36.000Z</time>
      </trkpt>
      <trkpt lat="49.08728" lon="2.22854">
        <ele>109</ele>
        <time>2016-09-18T11:05:44.000Z</time>
      </trkpt>
      <trkpt lat="49.08733" lon="2.22865">
        <ele>106</ele>
        <time>2016-09-18T11:05:51.000Z</time>
      </trkpt>
      <trkpt lat="49.08736" lon="2.22879">
        <ele>106</ele>
        <time>2016-09-18T11:05:58.000Z</time>
      </trkpt>
      <trkpt lat="49.08737" lon="2.22893">
        <ele>111</ele>
        <time>2016-09-18T11:06:04.000Z</time>
      </trkpt>
      <trkpt lat="49.08736" lon="2.22908">
        <ele>112</ele>
        <time>2016-09-18T11:06:11.000Z</time>
      </trkpt>
      <trkpt lat="49.08743" lon="2.22918">
        <ele>108</ele>
        <time>2016-09-18T11:06:19.000Z</time>
      </trkpt>
      <trkpt lat="49.08754" lon="2.22922">
        <ele>107</ele>
        <time>2016-09-18T11:06:26.000Z</time>
      </trkpt>
      <trkpt lat="49.08762" lon="2.22929">
        <ele>109</ele>
        <time>2016-09-18T11:06:32.000Z</time>
      </trkpt>
      <trkpt lat="49.08772" lon="2.22933">
        <ele>112</ele>
        <time>2016-09-18T11:06:40.000Z</time>
      </trkpt>
      <trkpt lat="49.0878" lon="2.22943">
        <ele>109</ele>
        <time>2016-09-18T11:06:47.000Z</time>
      </trkpt>
      <trkpt lat="49.08784" lon="2.22958">
        <ele>112</ele>
        <time>2016-09-18T11:06:54.000Z</time>
      </trkpt>
      <trkpt lat="49.08791" lon="2.22969">
        <ele>109</ele>
        <time>2016-09-18T11:07:02.000Z</time>
      </trkpt>
      <trkpt lat="49.08796" lon="2.22981">
        <ele>111</ele>
        <time>2016-09-18T11:07:10.000Z</time>
      </trkpt>
      <trkpt lat="49.08803" lon="2.22991">
        <ele>112</ele>
        <time>2016-09-18T11:07:19.000Z</time>
      </trkpt>
      <trkpt lat="49.08809" lon="2.23003">
        <ele>113</ele>
        <time>2016-09-18T11:07:26.000Z</time>
      </trkpt>
      <trkpt lat="49.0881" lon="2.23017">
        <ele>111</ele>
        <time>2016-09-18T11:07:33.000Z</time>
      </trkpt>
      <trkpt lat="49.0881" lon="2.23032">
        <ele>110</ele>
        <time>2016-09-18T11:07:40.000Z</time>
      </trkpt>
      <trkpt lat="49.08814" lon="2.23044">
        <ele>104</ele>
        <time>2016-09-18T11:07:49.000Z</time>
      </trkpt>
      <trkpt lat="49.08815" lon="2.23059">
        <ele>106</ele>
        <time>2016-09-18T11:07:56.000Z</time>
      </trkpt>
      <trkpt lat="49.08816" lon="2.23075">
        <ele>111</ele>
        <time>2016-09-18T11:08:02.000Z</time>
      </trkpt>
      <trkpt lat="49.08818" lon="2.23089">
        <ele>111</ele>
        <time>2016-09-18T11:08:10.000Z</time>
      </trkpt>
      <trkpt lat="49.08822" lon="2.23102">
        <ele>111</ele>
        <time>2016-09-18T11:08:16.000Z</time>
      </trkpt>
      <trkpt lat="49.08826" lon="2.23115">
        <ele>114</ele>
        <time>2016-09-18T11:08:22.000Z</time>
      </trkpt>
      <trkpt lat="49.08831" lon="2.23128">
        <ele>110</ele>
        <time>2016-09-18T11:08:31.000Z</time>
      </trkpt>
      <trkpt lat="49.08836" lon="2.23141">
        <ele>108</ele>
        <time>2016-09-18T11:08:38.000Z</time>
      </trkpt>
      <trkpt lat="49.08841" lon="2.23153">
        <ele>110</ele>
        <time>2016-09-18T11:08:45.000Z</time>
      </trkpt>
      <trkpt lat="49.08845" lon="2.23165">
        <ele>110</ele>
        <time>2016-09-18T11:08:52.000Z</time>
      </trkpt>
      <trkpt lat="49.08847" lon="2.23181">
        <ele>115</ele>
        <time>2016-09-18T11:08:58.000Z</time>
      </trkpt>
      <trkpt lat="49.08848" lon="2.23195">
        <ele>113</ele>
        <time>2016-09-18T11:09:05.000Z</time>
      </trkpt>
      <trkpt lat="49.08846" lon="2.23209">
        <ele>117</ele>
        <time>2016-09-18T11:09:11.000Z</time>
      </trkpt>
      <trkpt lat="49.08843" lon="2.23223">
        <ele>118</ele>
        <time>2016-09-18T11:09:19.000Z</time>
      </trkpt>
      <trkpt lat="49.08839" lon="2.23239">
        <ele>118</ele>
        <time>2016-09-18T11:09:26.000Z</time>
      </trkpt>
      <trkpt lat="49.08836" lon="2.23253">
        <ele>118</ele>
        <time>2016-09-18T11:09:33.000Z</time>
      </trkpt>
      <trkpt lat="49.08836" lon="2.23269">
        <ele>117</ele>
        <time>2016-09-18T11:09:41.000Z</time>
      </trkpt>
      <trkpt lat="49.08835" lon="2.23283">
        <ele>117</ele>
        <time>2016-09-18T11:09:48.000Z</time>
      </trkpt>
      <trkpt lat="49.08831" lon="2.23296">
        <ele>118</ele>
        <time>2016-09-18T11:09:55.000Z</time>
      </trkpt>
      <trkpt lat="49.08832" lon="2.23311">
        <ele>115</ele>
        <time>2016-09-18T11:10:02.000Z</time>
      </trkpt>
      <trkpt lat="49.08833" lon="2.23325">
        <ele>117</ele>
        <time>2016-09-18T11:10:07.000Z</time>
      </trkpt>
      <trkpt lat="49.08838" lon="2.2334">
        <ele>117</ele>
        <time>2016-09-18T11:10:14.000Z</time>
      </trkpt>
      <trkpt lat="49.08841" lon="2.23354">
        <ele>111</ele>
        <time>2016-09-18T11:10:22.000Z</time>
      </trkpt>
      <trkpt lat="49.08844" lon="2.23367">
        <ele>118</ele>
        <time>2016-09-18T11:10:27.000Z</time>
      </trkpt>
      <trkpt lat="49.08847" lon="2.23381">
        <ele>115</ele>
        <time>2016-09-18T11:10:36.000Z</time>
      </trkpt>
      <trkpt lat="49.08852" lon="2.23393">
        <ele>114</ele>
        <time>2016-09-18T11:10:43.000Z</time>
      </trkpt>
      <trkpt lat="49.08855" lon="2.23406">
        <ele>114</ele>
        <time>2016-09-18T11:10:47.000Z</time>
      </trkpt>
      <trkpt lat="49.08859" lon="2.23419">
        <ele>115</ele>
        <time>2016-09-18T11:10:53.000Z</time>
      </trkpt>
      <trkpt lat="49.08862" lon="2.23434">
        <ele>113</ele>
        <time>2016-09-18T11:10:59.000Z</time>
      </trkpt>
      <trkpt lat="49.0887" lon="2.23445">
        <ele>112</ele>
        <time>2016-09-18T11:11:07.000Z</time>
      </trkpt>
      <trkpt lat="49.08874" lon="2.2346">
        <ele>114</ele>
        <time>2016-09-18T11:11:14.000Z</time>
      </trkpt>
      <trkpt lat="49.08869" lon="2.23473">
        <ele>112</ele>
        <time>2016-09-18T11:11:47.000Z</time>
      </trkpt>
      <trkpt lat="49.08861" lon="2.23481">
        <ele>113</ele>
        <time>2016-09-18T11:11:53.000Z</time>
      </trkpt>
      <trkpt lat="49.08854" lon="2.23491">
        <ele>111</ele>
        <time>2016-09-18T11:12:02.000Z</time>
      </trkpt>
      <trkpt lat="49.08846" lon="2.23501">
        <ele>111</ele>
        <time>2016-09-18T11:12:11.000Z</time>
      </trkpt>
      <trkpt lat="49.08836" lon="2.23512">
        <ele>109</ele>
        <time>2016-09-18T11:12:19.000Z</time>
      </trkpt>
      <trkpt lat="49.0883" lon="2.23523">
        <ele>106</ele>
        <time>2016-09-18T11:12:26.000Z</time>
      </trkpt>
      <trkpt lat="49.08821" lon="2.23528">
        <ele>106</ele>
        <time>2016-09-18T11:12:35.000Z</time>
      </trkpt>
      <trkpt lat="49.08814" lon="2.23538">
        <ele>106</ele>
        <time>2016-09-18T11:12:42.000Z</time>
      </trkpt>
      <trkpt lat="49.08806" lon="2.23545">
        <ele>106</ele>
        <time>2016-09-18T11:12:47.000Z</time>
      </trkpt>
      <trkpt lat="49.08796" lon="2.23554">
        <ele>104</ele>
        <time>2016-09-18T11:12:55.000Z</time>
      </trkpt>
      <trkpt lat="49.08789" lon="2.23563">
        <ele>107</ele>
        <time>2016-09-18T11:13:01.000Z</time>
      </trkpt>
      <trkpt lat="49.08781" lon="2.23572">
        <ele>105</ele>
        <time>2016-09-18T11:13:11.000Z</time>
      </trkpt>
      <trkpt lat="49.08772" lon="2.23576">
        <ele>106</ele>
        <time>2016-09-18T11:13:18.000Z</time>
      </trkpt>
      <trkpt lat="49.08764" lon="2.23584">
        <ele>107</ele>
        <time>2016-09-18T11:13:24.000Z</time>
      </trkpt>
      <trkpt lat="49.0876" lon="2.23596">
        <ele>105</ele>
        <time>2016-09-18T11:13:32.000Z</time>
      </trkpt>
      <trkpt lat="49.08757" lon="2.23609">
        <ele>107</ele>
        <time>2016-09-18T11:13:39.000Z</time>
      </trkpt>
      <trkpt lat="49.08756" lon="2.23626">
        <ele>105</ele>
        <time>2016-09-18T11:13:45.000Z</time>
      </trkpt>
      <trkpt lat="49.08754" lon="2.23641">
        <ele>107</ele>
        <time>2016-09-18T11:13:51.000Z</time>
      </trkpt>
      <trkpt lat="49.08755" lon="2.23656">
        <ele>108</ele>
        <time>2016-09-18T11:13:58.000Z</time>
      </trkpt>
      <trkpt lat="49.08755" lon="2.2367">
        <ele>108</ele>
        <time>2016-09-18T11:14:05.000Z</time>
      </trkpt>
      <trkpt lat="49.08751" lon="2.23683">
        <ele>112</ele>
        <time>2016-09-18T11:14:10.000Z</time>
      </trkpt>
      <trkpt lat="49.08749" lon="2.23699">
        <ele>114</ele>
        <time>2016-09-18T11:14:17.000Z</time>
      </trkpt>
      <trkpt lat="49.08752" lon="2.23714">
        <ele>109</ele>
        <time>2016-09-18T11:14:22.000Z</time>
      </trkpt>
      <trkpt lat="49.08762" lon="2.23715">
        <ele>110</ele>
        <time>2016-09-18T11:14:28.000Z</time>
      </trkpt>
      <trkpt lat="49.0877" lon="2.23721">
        <ele>111</ele>
        <time>2016-09-18T11:14:33.000Z</time>
      </trkpt>
      <trkpt lat="49.08778" lon="2.23729">
        <ele>113</ele>
        <time>2016-09-18T11:14:38.000Z</time>
      </trkpt>
      <trkpt lat="49.08785" lon="2.2374">
        <ele>118</ele>
        <time>2016-09-18T11:14:44.000Z</time>
      </trkpt>
      <trkpt lat="49.08794" lon="2.23745">
        <ele>123</ele>
        <time>2016-09-18T11:14:51.000Z</time>
      </trkpt>
      <trkpt lat="49.08804" lon="2.23749">
        <ele>124</ele>
        <time>2016-09-18T11:14:58.000Z</time>
      </trkpt>
      <trkpt lat="49.08814" lon="2.23756">
        <ele>123</ele>
        <time>2016-09-18T11:15:04.000Z</time>
      </trkpt>
      <trkpt lat="49.08823" lon="2.23763">
        <ele>124</ele>
        <time>2016-09-18T11:15:12.000Z</time>
      </trkpt>
      <trkpt lat="49.08832" lon="2.23769">
        <ele>127</ele>
        <time>2016-09-18T11:15:20.000Z</time>
      </trkpt>
      <trkpt lat="49.08842" lon="2.23776">
        <ele>129</ele>
        <time>2016-09-18T11:15:28.000Z</time>
      </trkpt>
      <trkpt lat="49.08849" lon="2.23783">
        <ele>127</ele>
        <time>2016-09-18T11:15:35.000Z</time>
      </trkpt>
      <trkpt lat="49.08859" lon="2.23787">
        <ele>124</ele>
        <time>2016-09-18T11:15:43.000Z</time>
      </trkpt>
      <trkpt lat="49.08869" lon="2.23796">
        <ele>124</ele>
        <time>2016-09-18T11:15:52.000Z</time>
      </trkpt>
      <trkpt lat="49.08878" lon="2.23804">
        <ele>123</ele>
        <time>2016-09-18T11:15:58.000Z</time>
      </trkpt>
      <trkpt lat="49.08886" lon="2.23814">
        <ele>124</ele>
        <time>2016-09-18T11:16:04.000Z</time>
      </trkpt>
      <trkpt lat="49.08897" lon="2.23822">
        <ele>128</ele>
        <time>2016-09-18T11:16:10.000Z</time>
      </trkpt>
      <trkpt lat="49.08907" lon="2.23827">
        <ele>121</ele>
        <time>2016-09-18T11:16:16.000Z</time>
      </trkpt>
      <trkpt lat="49.08916" lon="2.23838">
        <ele>122</ele>
        <time>2016-09-18T11:16:25.000Z</time>
      </trkpt>
      <trkpt lat="49.08925" lon="2.23841">
        <ele>122</ele>
        <time>2016-09-18T11:16:32.000Z</time>
      </trkpt>
      <trkpt lat="49.08936" lon="2.2385">
        <ele>125</ele>
        <time>2016-09-18T11:16:40.000Z</time>
      </trkpt>
      <trkpt lat="49.08945" lon="2.23858">
        <ele>125</ele>
        <time>2016-09-18T11:16:46.000Z</time>
      </trkpt>
      <trkpt lat="49.08954" lon="2.23863">
        <ele>123</ele>
        <time>2016-09-18T11:16:54.000Z</time>
      </trkpt>
      <trkpt lat="49.08964" lon="2.2386">
        <ele>122</ele>
        <time>2016-09-18T11:16:59.000Z</time>
      </trkpt>
      <trkpt lat="49.08971" lon="2.23872">
        <ele>130</ele>
        <time>2016-09-18T11:17:05.000Z</time>
      </trkpt>
      <trkpt lat="49.08979" lon="2.23879">
        <ele>129</ele>
        <time>2016-09-18T11:17:11.000Z</time>
      </trkpt>
      <trkpt lat="49.08988" lon="2.23889">
        <ele>128</ele>
        <time>2016-09-18T11:17:20.000Z</time>
      </trkpt>
      <trkpt lat="49.08997" lon="2.23896">
        <ele>127</ele>
        <time>2016-09-18T11:17:28.000Z</time>
      </trkpt>
      <trkpt lat="49.09007" lon="2.23899">
        <ele>123</ele>
        <time>2016-09-18T11:17:33.000Z</time>
      </trkpt>
      <trkpt lat="49.09015" lon="2.23906">
        <ele>125</ele>
        <time>2016-09-18T11:17:40.000Z</time>
      </trkpt>
      <trkpt lat="49.09024" lon="2.23913">
        <ele>126</ele>
        <time>2016-09-18T11:17:47.000Z</time>
      </trkpt>
      <trkpt lat="49.09036" lon="2.23919">
        <ele>127</ele>
        <time>2016-09-18T11:17:54.000Z</time>
      </trkpt>
      <trkpt lat="49.09043" lon="2.23927">
        <ele>126</ele>
        <time>2016-09-18T11:18:00.000Z</time>
      </trkpt>
      <trkpt lat="49.09053" lon="2.23933">
        <ele>127</ele>
        <time>2016-09-18T11:18:09.000Z</time>
      </trkpt>
      <trkpt lat="49.09062" lon="2.23942">
        <ele>130</ele>
        <time>2016-09-18T11:18:15.000Z</time>
      </trkpt>
      <trkpt lat="49.0907" lon="2.23951">
        <ele>131</ele>
        <time>2016-09-18T11:18:21.000Z</time>
      </trkpt>
      <trkpt lat="49.09081" lon="2.23954">
        <ele>129</ele>
        <time>2016-09-18T11:18:30.000Z</time>
      </trkpt>
      <trkpt lat="49.09089" lon="2.23963">
        <ele>130</ele>
        <time>2016-09-18T11:18:36.000Z</time>
      </trkpt>
      <trkpt lat="49.09097" lon="2.23969">
        <ele>130</ele>
        <time>2016-09-18T11:18:42.000Z</time>
      </trkpt>
      <trkpt lat="49.09105" lon="2.23982">
        <ele>136</ele>
        <time>2016-09-18T11:18:53.000Z</time>
      </trkpt>
      <trkpt lat="49.09114" lon="2.23986">
        <ele>134</ele>
        <time>2016-09-18T11:18:58.000Z</time>
      </trkpt>
      <trkpt lat="49.09125" lon="2.2399">
        <ele>130</ele>
        <time>2016-09-18T11:19:06.000Z</time>
      </trkpt>
      <trkpt lat="49.09134" lon="2.23994">
        <ele>126</ele>
        <time>2016-09-18T11:19:12.000Z</time>
      </trkpt>
      <trkpt lat="49.09143" lon="2.24001">
        <ele>124</ele>
        <time>2016-09-18T11:19:18.000Z</time>
      </trkpt>
      <trkpt lat="49.09153" lon="2.2401">
        <ele>123</ele>
        <time>2016-09-18T11:19:25.000Z</time>
      </trkpt>
      <trkpt lat="49.09162" lon="2.24015">
        <ele>126</ele>
        <time>2016-09-18T11:19:32.000Z</time>
      </trkpt>
      <trkpt lat="49.09171" lon="2.24025">
        <ele>128</ele>
        <time>2016-09-18T11:19:38.000Z</time>
      </trkpt>
      <trkpt lat="49.09181" lon="2.24024">
        <ele>124</ele>
        <time>2016-09-18T11:19:45.000Z</time>
      </trkpt>
      <trkpt lat="49.09189" lon="2.24032">
        <ele>127</ele>
        <time>2016-09-18T11:19:51.000Z</time>
      </trkpt>
      <trkpt lat="49.09198" lon="2.24043">
        <ele>127</ele>
        <time>2016-09-18T11:20:00.000Z</time>
      </trkpt>
      <trkpt lat="49.09192" lon="2.24057">
        <ele>124</ele>
        <time>2016-09-18T11:20:07.000Z</time>
      </trkpt>
      <trkpt lat="49.09183" lon="2.24062">
        <ele>122</ele>
        <time>2016-09-18T11:20:15.000Z</time>
      </trkpt>
      <trkpt lat="49.09174" lon="2.24072">
        <ele>122</ele>
        <time>2016-09-18T11:20:23.000Z</time>
      </trkpt>
      <trkpt lat="49.09164" lon="2.24078">
        <ele>127</ele>
        <time>2016-09-18T11:20:29.000Z</time>
      </trkpt>
      <trkpt lat="49.09155" lon="2.24085">
        <ele>123</ele>
        <time>2016-09-18T11:20:37.000Z</time>
      </trkpt>
      <trkpt lat="49.09146" lon="2.24094">
        <ele>119</ele>
        <time>2016-09-18T11:20:45.000Z</time>
      </trkpt>
      <trkpt lat="49.09139" lon="2.24105">
        <ele>118</ele>
        <time>2016-09-18T11:20:52.000Z</time>
      </trkpt>
      <trkpt lat="49.09131" lon="2.24113">
        <ele>122</ele>
        <time>2016-09-18T11:20:58.000Z</time>
      </trkpt>
      <trkpt lat="49.09121" lon="2.24127">
        <ele>121</ele>
        <time>2016-09-18T11:21:10.000Z</time>
      </trkpt>
      <trkpt lat="49.09113" lon="2.2414">
        <ele>122</ele>
        <time>2016-09-18T11:21:18.000Z</time>
      </trkpt>
      <trkpt lat="49.09105" lon="2.24151">
        <ele>124</ele>
        <time>2016-09-18T11:21:26.000Z</time>
      </trkpt>
      <trkpt lat="49.09097" lon="2.24164">
        <ele>121</ele>
        <time>2016-09-18T11:21:35.000Z</time>
      </trkpt>
      <trkpt lat="49.0909" lon="2.24173">
        <ele>124</ele>
        <time>2016-09-18T11:21:41.000Z</time>
      </trkpt>
      <trkpt lat="49.09082" lon="2.24184">
        <ele>127</ele>
        <time>2016-09-18T11:21:48.000Z</time>
      </trkpt>
      <trkpt lat="49.09075" lon="2.24195">
        <ele>126</ele>
        <time>2016-09-18T11:21:55.000Z</time>
      </trkpt>
      <trkpt lat="49.09064" lon="2.242">
        <ele>127</ele>
        <time>2016-09-18T11:22:03.000Z</time>
      </trkpt>
      <trkpt lat="49.09058" lon="2.24218">
        <ele>127</ele>
        <time>2016-09-18T11:22:11.000Z</time>
      </trkpt>
      <trkpt lat="49.09054" lon="2.24232">
        <ele>128</ele>
        <time>2016-09-18T11:22:19.000Z</time>
      </trkpt>
      <trkpt lat="49.09053" lon="2.24247">
        <ele>121</ele>
        <time>2016-09-18T11:22:27.000Z</time>
      </trkpt>
      <trkpt lat="49.09048" lon="2.2426">
        <ele>124</ele>
        <time>2016-09-18T11:22:31.000Z</time>
      </trkpt>
      <trkpt lat="49.09048" lon="2.24275">
        <ele>121</ele>
        <time>2016-09-18T11:22:39.000Z</time>
      </trkpt>
      <trkpt lat="49.0905" lon="2.24291">
        <ele>121</ele>
        <time>2016-09-18T11:22:48.000Z</time>
      </trkpt>
      <trkpt lat="49.09049" lon="2.24307">
        <ele>124</ele>
        <time>2016-09-18T11:22:55.000Z</time>
      </trkpt>
      <trkpt lat="49.0905" lon="2.24322">
        <ele>123</ele>
        <time>2016-09-18T11:23:01.000Z</time>
      </trkpt>
      <trkpt lat="49.0905" lon="2.2434">
        <ele>127</ele>
        <time>2016-09-18T11:23:09.000Z</time>
      </trkpt>
      <trkpt lat="49.09049" lon="2.2436">
        <ele>130</ele>
        <time>2016-09-18T11:23:16.000Z</time>
      </trkpt>
      <trkpt lat="49.09049" lon="2.24377">
        <ele>132</ele>
        <time>2016-09-18T11:23:22.000Z</time>
      </trkpt>
      <trkpt lat="49.09046" lon="2.24391">
        <ele>137</ele>
        <time>2016-09-18T11:23:28.000Z</time>
      </trkpt>
      <trkpt lat="49.09047" lon="2.24406">
        <ele>137</ele>
        <time>2016-09-18T11:23:35.000Z</time>
      </trkpt>
      <trkpt lat="49.09048" lon="2.24421">
        <ele>137</ele>
        <time>2016-09-18T11:23:42.000Z</time>
      </trkpt>
      <trkpt lat="49.09051" lon="2.24436">
        <ele>136</ele>
        <time>2016-09-18T11:23:50.000Z</time>
      </trkpt>
      <trkpt lat="49.09054" lon="2.2445">
        <ele>134</ele>
        <time>2016-09-18T11:23:56.000Z</time>
      </trkpt>
      <trkpt lat="49.09055" lon="2.24465">
        <ele>134</ele>
        <time>2016-09-18T11:24:04.000Z</time>
      </trkpt>
      <trkpt lat="49.09055" lon="2.24482">
        <ele>134</ele>
        <time>2016-09-18T11:24:11.000Z</time>
      </trkpt>
      <trkpt lat="49.09055" lon="2.24497">
        <ele>134</ele>
        <time>2016-09-18T11:24:18.000Z</time>
      </trkpt>
      <trkpt lat="49.09058" lon="2.24512">
        <ele>140</ele>
        <time>2016-09-18T11:24:28.000Z</time>
      </trkpt>
      <trkpt lat="49.09059" lon="2.24528">
        <ele>139</ele>
        <time>2016-09-18T11:24:36.000Z</time>
      </trkpt>
      <trkpt lat="49.09059" lon="2.24544">
        <ele>142</ele>
        <time>2016-09-18T11:24:44.000Z</time>
      </trkpt>
      <trkpt lat="49.09061" lon="2.2456">
        <ele>144</ele>
        <time>2016-09-18T11:24:50.000Z</time>
      </trkpt>
      <trkpt lat="49.0906" lon="2.24574">
        <ele>147</ele>
        <time>2016-09-18T11:24:59.000Z</time>
      </trkpt>
      <trkpt lat="49.09061" lon="2.24588">
        <ele>148</ele>
        <time>2016-09-18T11:25:06.000Z</time>
      </trkpt>
      <trkpt lat="49.09063" lon="2.24602">
        <ele>150</ele>
        <time>2016-09-18T11:25:13.000Z</time>
      </trkpt>
      <trkpt lat="49.09063" lon="2.24619">
        <ele>150</ele>
        <time>2016-09-18T11:25:21.000Z</time>
      </trkpt>
      <trkpt lat="49.09063" lon="2.24634">
        <ele>149</ele>
        <time>2016-09-18T11:25:27.000Z</time>
      </trkpt>
      <trkpt lat="49.09065" lon="2.24651">
        <ele>148</ele>
        <time>2016-09-18T11:25:36.000Z</time>
      </trkpt>
      <trkpt lat="49.09066" lon="2.24667">
        <ele>147</ele>
        <time>2016-09-18T11:25:44.000Z</time>
      </trkpt>
      <trkpt lat="49.09066" lon="2.24684">
        <ele>145</ele>
        <time>2016-09-18T11:25:51.000Z</time>
      </trkpt>
      <trkpt lat="49.09067" lon="2.247">
        <ele>143</ele>
        <time>2016-09-18T11:26:14.000Z</time>
      </trkpt>
      <trkpt lat="49.0907" lon="2.24717">
        <ele>151</ele>
        <time>2016-09-18T11:26:20.000Z</time>
      </trkpt>
      <trkpt lat="49.09069" lon="2.24731">
        <ele>151</ele>
        <time>2016-09-18T11:26:27.000Z</time>
      </trkpt>
      <trkpt lat="49.09071" lon="2.24745">
        <ele>152</ele>
        <time>2016-09-18T11:26:32.000Z</time>
      </trkpt>
      <trkpt lat="49.09071" lon="2.2476">
        <ele>155</ele>
        <time>2016-09-18T11:26:41.000Z</time>
      </trkpt>
      <trkpt lat="49.09074" lon="2.24776">
        <ele>154</ele>
        <time>2016-09-18T11:26:48.000Z</time>
      </trkpt>
      <trkpt lat="49.09071" lon="2.24797">
        <ele>154</ele>
        <time>2016-09-18T11:26:54.000Z</time>
      </trkpt>
      <trkpt lat="49.09075" lon="2.24811">
        <ele>156</ele>
        <time>2016-09-18T11:27:02.000Z</time>
      </trkpt>
      <trkpt lat="49.09076" lon="2.24826">
        <ele>153</ele>
        <time>2016-09-18T11:27:09.000Z</time>
      </trkpt>
      <trkpt lat="49.09076" lon="2.24841">
        <ele>150</ele>
        <time>2016-09-18T11:27:15.000Z</time>
      </trkpt>
      <trkpt lat="49.09077" lon="2.24857">
        <ele>147</ele>
        <time>2016-09-18T11:27:21.000Z</time>
      </trkpt>
      <trkpt lat="49.09078" lon="2.24875">
        <ele>147</ele>
        <time>2016-09-18T11:27:27.000Z</time>
      </trkpt>
      <trkpt lat="49.09077" lon="2.24891">
        <ele>145</ele>
        <time>2016-09-18T11:27:34.000Z</time>
      </trkpt>
      <trkpt lat="49.09078" lon="2.24906">
        <ele>149</ele>
        <time>2016-09-18T11:27:41.000Z</time>
      </trkpt>
      <trkpt lat="49.0908" lon="2.2492">
        <ele>150</ele>
        <time>2016-09-18T11:27:48.000Z</time>
      </trkpt>
      <trkpt lat="49.09086" lon="2.24939">
        <ele>144</ele>
        <time>2016-09-18T11:27:58.000Z</time>
      </trkpt>
      <trkpt lat="49.09085" lon="2.24954">
        <ele>140</ele>
        <time>2016-09-18T11:28:06.000Z</time>
      </trkpt>
      <trkpt lat="49.09085" lon="2.24969">
        <ele>141</ele>
        <time>2016-09-18T11:28:13.000Z</time>
      </trkpt>
      <trkpt lat="49.09087" lon="2.24983">
        <ele>127</ele>
        <time>2016-09-18T11:28:19.000Z</time>
      </trkpt>
      <trkpt lat="49.09091" lon="2.24996">
        <ele>138</ele>
        <time>2016-09-18T11:28:26.000Z</time>
      </trkpt>
      <trkpt lat="49.09093" lon="2.25011">
        <ele>140</ele>
        <time>2016-09-18T11:28:31.000Z</time>
      </trkpt>
      <trkpt lat="49.09094" lon="2.25027">
        <ele>142</ele>
        <time>2016-09-18T11:28:36.000Z</time>
      </trkpt>
      <trkpt lat="49.09094" lon="2.25041">
        <ele>141</ele>
        <time>2016-09-18T11:28:44.000Z</time>
      </trkpt>
      <trkpt lat="49.09093" lon="2.25055">
        <ele>141</ele>
        <time>2016-09-18T11:28:49.000Z</time>
      </trkpt>
      <trkpt lat="49.09092" lon="2.25069">
        <ele>136</ele>
        <time>2016-09-18T11:28:57.000Z</time>
      </trkpt>
      <trkpt lat="49.09104" lon="2.25072">
        <ele>139</ele>
        <time>2016-09-18T11:29:04.000Z</time>
      </trkpt>
      <trkpt lat="49.09113" lon="2.25068">
        <ele>143</ele>
        <time>2016-09-18T11:29:09.000Z</time>
      </trkpt>
      <trkpt lat="49.09122" lon="2.25065">
        <ele>145</ele>
        <time>2016-09-18T11:29:16.000Z</time>
      </trkpt>
      <trkpt lat="49.09132" lon="2.25063">
        <ele>145</ele>
        <time>2016-09-18T11:29:24.000Z</time>
      </trkpt>
      <trkpt lat="49.09142" lon="2.25064">
        <ele>146</ele>
        <time>2016-09-18T11:29:34.000Z</time>
      </trkpt>
      <trkpt lat="49.09152" lon="2.25063">
        <ele>155</ele>
        <time>2016-09-18T11:29:39.000Z</time>
      </trkpt>
      <trkpt lat="49.09161" lon="2.25064">
        <ele>158</ele>
        <time>2016-09-18T11:29:44.000Z</time>
      </trkpt>
      <trkpt lat="49.0917" lon="2.25066">
        <ele>158</ele>
        <time>2016-09-18T11:29:49.000Z</time>
      </trkpt>
      <trkpt lat="49.09179" lon="2.25058">
        <ele>155</ele>
        <time>2016-09-18T11:30:00.000Z</time>
      </trkpt>
      <trkpt lat="49.09189" lon="2.25057">
        <ele>144</ele>
        <time>2016-09-18T11:30:08.000Z</time>
      </trkpt>
      <trkpt lat="49.09201" lon="2.25057">
        <ele>155</ele>
        <time>2016-09-18T11:30:16.000Z</time>
      </trkpt>
      <trkpt lat="49.09213" lon="2.25056">
        <ele>150</ele>
        <time>2016-09-18T11:30:24.000Z</time>
      </trkpt>
      <trkpt lat="49.09222" lon="2.25054">
        <ele>140</ele>
        <time>2016-09-18T11:30:31.000Z</time>
      </trkpt>
      <trkpt lat="49.09232" lon="2.25053">
        <ele>152</ele>
        <time>2016-09-18T11:30:36.000Z</time>
      </trkpt>
      <trkpt lat="49.09243" lon="2.2505">
        <ele>158</ele>
        <time>2016-09-18T11:30:44.000Z</time>
      </trkpt>
      <trkpt lat="49.09253" lon="2.2505">
        <ele>158</ele>
        <time>2016-09-18T11:30:50.000Z</time>
      </trkpt>
      <trkpt lat="49.09263" lon="2.2505">
        <ele>154</ele>
        <time>2016-09-18T11:30:58.000Z</time>
      </trkpt>
      <trkpt lat="49.09272" lon="2.2505">
        <ele>155</ele>
        <time>2016-09-18T11:31:05.000Z</time>
      </trkpt>
      <trkpt lat="49.09281" lon="2.25049">
        <ele>152</ele>
        <time>2016-09-18T11:31:11.000Z</time>
      </trkpt>
      <trkpt lat="49.09291" lon="2.25045">
        <ele>153</ele>
        <time>2016-09-18T11:31:18.000Z</time>
      </trkpt>
      <trkpt lat="49.093" lon="2.25045">
        <ele>151</ele>
        <time>2016-09-18T11:31:26.000Z</time>
      </trkpt>
      <trkpt lat="49.09309" lon="2.25041">
        <ele>150</ele>
        <time>2016-09-18T11:31:32.000Z</time>
      </trkpt>
      <trkpt lat="49.09319" lon="2.25042">
        <ele>152</ele>
        <time>2016-09-18T11:31:38.000Z</time>
      </trkpt>
      <trkpt lat="49.0933" lon="2.25039">
        <ele>151</ele>
        <time>2016-09-18T11:31:46.000Z</time>
      </trkpt>
      <trkpt lat="49.09339" lon="2.25036">
        <ele>149</ele>
        <time>2016-09-18T11:31:52.000Z</time>
      </trkpt>
      <trkpt lat="49.09349" lon="2.25038">
        <ele>152</ele>
        <time>2016-09-18T11:31:59.000Z</time>
      </trkpt>
      <trkpt lat="49.09359" lon="2.2504">
        <ele>148</ele>
        <time>2016-09-18T11:32:08.000Z</time>
      </trkpt>
      <trkpt lat="49.0937" lon="2.25037">
        <ele>148</ele>
        <time>2016-09-18T11:32:15.000Z</time>
      </trkpt>
      <trkpt lat="49.0938" lon="2.25037">
        <ele>150</ele>
        <time>2016-09-18T11:32:23.000Z</time>
      </trkpt>
      <trkpt lat="49.09389" lon="2.25035">
        <ele>153</ele>
        <time>2016-09-18T11:32:31.000Z</time>
      </trkpt>
      <trkpt lat="49.09398" lon="2.25032">
        <ele>157</ele>
        <time>2016-09-18T11:32:36.000Z</time>
      </trkpt>
      <trkpt lat="49.09409" lon="2.25028">
        <ele>159</ele>
        <time>2016-09-18T11:32:43.000Z</time>
      </trkpt>
      <trkpt lat="49.09418" lon="2.25028">
        <ele>155</ele>
        <time>2016-09-18T11:32:50.000Z</time>
      </trkpt>
      <trkpt lat="49.09427" lon="2.25029">
        <ele>153</ele>
        <time>2016-09-18T11:32:57.000Z</time>
      </trkpt>
      <trkpt lat="49.09437" lon="2.25026">
        <ele>156</ele>
        <time>2016-09-18T11:33:03.000Z</time>
      </trkpt>
      <trkpt lat="49.09446" lon="2.25026">
        <ele>151</ele>
        <time>2016-09-18T11:33:10.000Z</time>
      </trkpt>
      <trkpt lat="49.09457" lon="2.2503">
        <ele>148</ele>
        <time>2016-09-18T11:33:17.000Z</time>
      </trkpt>
      <trkpt lat="49.09466" lon="2.25029">
        <ele>150</ele>
        <time>2016-09-18T11:33:22.000Z</time>
      </trkpt>
      <trkpt lat="49.09477" lon="2.25027">
        <ele>150</ele>
        <time>2016-09-18T11:33:28.000Z</time>
      </trkpt>
      <trkpt lat="49.09486" lon="2.25023">
        <ele>151</ele>
        <time>2016-09-18T11:33:34.000Z</time>
      </trkpt>
      <trkpt lat="49.09495" lon="2.2502">
        <ele>151</ele>
        <time>2016-09-18T11:33:40.000Z</time>
      </trkpt>
      <trkpt lat="49.09504" lon="2.25016">
        <ele>153</ele>
        <time>2016-09-18T11:33:46.000Z</time>
      </trkpt>
      <trkpt lat="49.09514" lon="2.25015">
        <ele>156</ele>
        <time>2016-09-18T11:33:52.000Z</time>
      </trkpt>
      <trkpt lat="49.09523" lon="2.25012">
        <ele>159</ele>
        <time>2016-09-18T11:33:59.000Z</time>
      </trkpt>
      <trkpt lat="49.0952" lon="2.25025">
        <ele>151</ele>
        <time>2016-09-18T11:34:28.000Z</time>
      </trkpt>
      <trkpt lat="49.0952" lon="2.2504">
        <ele>149</ele>
        <time>2016-09-18T11:34:35.000Z</time>
      </trkpt>
      <trkpt lat="49.09516" lon="2.25055">
        <ele>149</ele>
        <time>2016-09-18T11:34:42.000Z</time>
      </trkpt>
      <trkpt lat="49.09514" lon="2.25068">
        <ele>147</ele>
        <time>2016-09-18T11:34:47.000Z</time>
      </trkpt>
      <trkpt lat="49.09515" lon="2.25083">
        <ele>146</ele>
        <time>2016-09-18T11:34:55.000Z</time>
      </trkpt>
      <trkpt lat="49.09516" lon="2.25098">
        <ele>143</ele>
        <time>2016-09-18T11:35:01.000Z</time>
      </trkpt>
      <trkpt lat="49.09515" lon="2.25113">
        <ele>145</ele>
        <time>2016-09-18T11:35:09.000Z</time>
      </trkpt>
      <trkpt lat="49.09522" lon="2.25122">
        <ele>142</ele>
        <time>2016-09-18T11:35:17.000Z</time>
      </trkpt>
      <trkpt lat="49.09521" lon="2.25137">
        <ele>139</ele>
        <time>2016-09-18T11:35:22.000Z</time>
      </trkpt>
      <trkpt lat="49.09523" lon="2.2515">
        <ele>135</ele>
        <time>2016-09-18T11:35:29.000Z</time>
      </trkpt>
      <trkpt lat="49.09523" lon="2.25164">
        <ele>137</ele>
        <time>2016-09-18T11:35:35.000Z</time>
      </trkpt>
      <trkpt lat="49.09525" lon="2.2518">
        <ele>135</ele>
        <time>2016-09-18T11:35:44.000Z</time>
      </trkpt>
      <trkpt lat="49.09523" lon="2.25196">
        <ele>133</ele>
        <time>2016-09-18T11:35:49.000Z</time>
      </trkpt>
      <trkpt lat="49.09522" lon="2.2521">
        <ele>136</ele>
        <time>2016-09-18T11:35:57.000Z</time>
      </trkpt>
      <trkpt lat="49.09519" lon="2.25227">
        <ele>141</ele>
        <time>2016-09-18T11:36:05.000Z</time>
      </trkpt>
      <trkpt lat="49.09524" lon="2.25241">
        <ele>138</ele>
        <time>2016-09-18T11:36:12.000Z</time>
      </trkpt>
      <trkpt lat="49.09522" lon="2.25255">
        <ele>139</ele>
        <time>2016-09-18T11:36:19.000Z</time>
      </trkpt>
      <trkpt lat="49.09521" lon="2.25271">
        <ele>143</ele>
        <time>2016-09-18T11:36:27.000Z</time>
      </trkpt>
      <trkpt lat="49.09524" lon="2.25286">
        <ele>142</ele>
        <time>2016-09-18T11:36:34.000Z</time>
      </trkpt>
      <trkpt lat="49.0953" lon="2.253">
        <ele>146</ele>
        <time>2016-09-18T11:36:41.000Z</time>
      </trkpt>
      <trkpt lat="49.0953" lon="2.25315">
        <ele>145</ele>
        <time>2016-09-18T11:36:48.000Z</time>
      </trkpt>
      <trkpt lat="49.0953" lon="2.2533">
        <ele>141</ele>
        <time>2016-09-18T11:36:54.000Z</time>
      </trkpt>
      <trkpt lat="49.09529" lon="2.25346">
        <ele>143</ele>
        <time>2016-09-18T11:37:01.000Z</time>
      </trkpt>
      <trkpt lat="49.09528" lon="2.25362">
        <ele>139</ele>
        <time>2016-09-18T11:37:08.000Z</time>
      </trkpt>
      <trkpt lat="49.0953" lon="2.25377">
        <ele>136</ele>
        <time>2016-09-18T11:37:15.000Z</time>
      </trkpt>
      <trkpt lat="49.09534" lon="2.25392">
        <ele>133</ele>
        <time>2016-09-18T11:37:22.000Z</time>
      </trkpt>
      <trkpt lat="49.09531" lon="2.25406">
        <ele>133</ele>
        <time>2016-09-18T11:37:31.000Z</time>
      </trkpt>
      <trkpt lat="49.09536" lon="2.2542">
        <ele>135</ele>
        <time>2016-09-18T11:37:38.000Z</time>
      </trkpt>
      <trkpt lat="49.09535" lon="2.25435">
        <ele>134</ele>
        <time>2016-09-18T11:37:44.000Z</time>
      </trkpt>
      <trkpt lat="49.09534" lon="2.2545">
        <ele>132</ele>
        <time>2016-09-18T11:37:51.000Z</time>
      </trkpt>
      <trkpt lat="49.09535" lon="2.25465">
        <ele>136</ele>
        <time>2016-09-18T11:37:58.000Z</time>
      </trkpt>
      <trkpt lat="49.09538" lon="2.25478">
        <ele>134</ele>
        <time>2016-09-18T11:38:03.000Z</time>
      </trkpt>
      <trkpt lat="49.09537" lon="2.25493">
        <ele>135</ele>
        <time>2016-09-18T11:38:09.000Z</time>
      </trkpt>
      <trkpt lat="49.09536" lon="2.25509">
        <ele>136</ele>
        <time>2016-09-18T11:38:18.000Z</time>
      </trkpt>
      <trkpt lat="49.09543" lon="2.25529">
        <ele>137</ele>
        <time>2016-09-18T11:38:24.000Z</time>
      </trkpt>
      <trkpt lat="49.09541" lon="2.25545">
        <ele>136</ele>
        <time>2016-09-18T11:38:29.000Z</time>
      </trkpt>
      <trkpt lat="49.09539" lon="2.25561">
        <ele>137</ele>
        <time>2016-09-18T11:38:34.000Z</time>
      </trkpt>
      <trkpt lat="49.09534" lon="2.25573">
        <ele>130</ele>
        <time>2016-09-18T11:38:42.000Z</time>
      </trkpt>
      <trkpt lat="49.09531" lon="2.25587">
        <ele>128</ele>
        <time>2016-09-18T11:38:53.000Z</time>
      </trkpt>
      <trkpt lat="49.09531" lon="2.25599">
        <ele>131</ele>
        <time>2016-09-18T11:40:02.000Z</time>
      </trkpt>
      <trkpt lat="49.09539" lon="2.2559">
        <ele>139</ele>
        <time>2016-09-18T11:40:19.000Z</time>
      </trkpt>
      <trkpt lat="49.09551" lon="2.25585">
        <ele>146</ele>
        <time>2016-09-18T11:40:23.000Z</time>
      </trkpt>
      <trkpt lat="49.0956" lon="2.25578">
        <ele>148</ele>
        <time>2016-09-18T11:40:28.000Z</time>
      </trkpt>
      <trkpt lat="49.0957" lon="2.25575">
        <ele>149</ele>
        <time>2016-09-18T11:40:33.000Z</time>
      </trkpt>
      <trkpt lat="49.09579" lon="2.25573">
        <ele>152</ele>
        <time>2016-09-18T11:40:39.000Z</time>
      </trkpt>
      <trkpt lat="49.09588" lon="2.25569">
        <ele>154</ele>
        <time>2016-09-18T11:40:44.000Z</time>
      </trkpt>
      <trkpt lat="49.09597" lon="2.25567">
        <ele>156</ele>
        <time>2016-09-18T11:40:49.000Z</time>
      </trkpt>
      <trkpt lat="49.09609" lon="2.25561">
        <ele>151</ele>
        <time>2016-09-18T11:40:59.000Z</time>
      </trkpt>
      <trkpt lat="49.09616" lon="2.25552">
        <ele>150</ele>
        <time>2016-09-18T11:41:06.000Z</time>
      </trkpt>
      <trkpt lat="49.0962" lon="2.25539">
        <ele>150</ele>
        <time>2016-09-18T11:41:16.000Z</time>
      </trkpt>
      <trkpt lat="49.09628" lon="2.25531">
        <ele>151</ele>
        <time>2016-09-18T11:41:23.000Z</time>
      </trkpt>
      <trkpt lat="49.09636" lon="2.25527">
        <ele>148</ele>
        <time>2016-09-18T11:41:30.000Z</time>
      </trkpt>
      <trkpt lat="49.09645" lon="2.25523">
        <ele>148</ele>
        <time>2016-09-18T11:41:37.000Z</time>
      </trkpt>
      <trkpt lat="49.09657" lon="2.2552">
        <ele>146</ele>
        <time>2016-09-18T11:41:43.000Z</time>
      </trkpt>
      <trkpt lat="49.0967" lon="2.25507">
        <ele>148</ele>
        <time>2016-09-18T11:41:52.000Z</time>
      </trkpt>
      <trkpt lat="49.09679" lon="2.25502">
        <ele>153</ele>
        <time>2016-09-18T11:41:58.000Z</time>
      </trkpt>
      <trkpt lat="49.09687" lon="2.25496">
        <ele>152</ele>
        <time>2016-09-18T11:42:05.000Z</time>
      </trkpt>
      <trkpt lat="49.09695" lon="2.2549">
        <ele>154</ele>
        <time>2016-09-18T11:42:12.000Z</time>
      </trkpt>
      <trkpt lat="49.09704" lon="2.25484">
        <ele>157</ele>
        <time>2016-09-18T11:42:17.000Z</time>
      </trkpt>
      <trkpt lat="49.09713" lon="2.25479">
        <ele>156</ele>
        <time>2016-09-18T11:42:24.000Z</time>
      </trkpt>
      <trkpt lat="49.09722" lon="2.25474">
        <ele>157</ele>
        <time>2016-09-18T11:42:30.000Z</time>
      </trkpt>
      <trkpt lat="49.09731" lon="2.25467">
        <ele>159</ele>
        <time>2016-09-18T11:42:36.000Z</time>
      </trkpt>
      <trkpt lat="49.09742" lon="2.25462">
        <ele>161</ele>
        <time>2016-09-18T11:42:42.000Z</time>
      </trkpt>
      <trkpt lat="49.0975" lon="2.25454">
        <ele>159</ele>
        <time>2016-09-18T11:42:50.000Z</time>
      </trkpt>
      <trkpt lat="49.09759" lon="2.25456">
        <ele>159</ele>
        <time>2016-09-18T11:42:58.000Z</time>
      </trkpt>
      <trkpt lat="49.09761" lon="2.2547">
        <ele>156</ele>
        <time>2016-09-18T11:43:07.000Z</time>
      </trkpt>
      <trkpt lat="49.09764" lon="2.25483">
        <ele>154</ele>
        <time>2016-09-18T11:43:14.000Z</time>
      </trkpt>
      <trkpt lat="49.09771" lon="2.25495">
        <ele>154</ele>
        <time>2016-09-18T11:43:22.000Z</time>
      </trkpt>
      <trkpt lat="49.09774" lon="2.25509">
        <ele>155</ele>
        <time>2016-09-18T11:43:28.000Z</time>
      </trkpt>
      <trkpt lat="49.09778" lon="2.25522">
        <ele>153</ele>
        <time>2016-09-18T11:43:35.000Z</time>
      </trkpt>
      <trkpt lat="49.0978" lon="2.25536">
        <ele>152</ele>
        <time>2016-09-18T11:43:41.000Z</time>
      </trkpt>
      <trkpt lat="49.09782" lon="2.25551">
        <ele>152</ele>
        <time>2016-09-18T11:43:46.000Z</time>
      </trkpt>
      <trkpt lat="49.0979" lon="2.25561">
        <ele>151</ele>
        <time>2016-09-18T11:43:54.000Z</time>
      </trkpt>
      <trkpt lat="49.09795" lon="2.25576">
        <ele>153</ele>
        <time>2016-09-18T11:44:00.000Z</time>
      </trkpt>
      <trkpt lat="49.09798" lon="2.2559">
        <ele>153</ele>
        <time>2016-09-18T11:44:07.000Z</time>
      </trkpt>
      <trkpt lat="49.09805" lon="2.25601">
        <ele>148</ele>
        <time>2016-09-18T11:44:16.000Z</time>
      </trkpt>
      <trkpt lat="49.0981" lon="2.25613">
        <ele>149</ele>
        <time>2016-09-18T11:44:23.000Z</time>
      </trkpt>
      <trkpt lat="49.09817" lon="2.25625">
        <ele>145</ele>
        <time>2016-09-18T11:44:31.000Z</time>
      </trkpt>
      <trkpt lat="49.09822" lon="2.25638">
        <ele>141</ele>
        <time>2016-09-18T11:44:39.000Z</time>
      </trkpt>
      <trkpt lat="49.09826" lon="2.25652">
        <ele>138</ele>
        <time>2016-09-18T11:44:49.000Z</time>
      </trkpt>
      <trkpt lat="49.09832" lon="2.25667">
        <ele>140</ele>
        <time>2016-09-18T11:44:59.000Z</time>
      </trkpt>
      <trkpt lat="49.09834" lon="2.2568">
        <ele>138</ele>
        <time>2016-09-18T11:45:04.000Z</time>
      </trkpt>
      <trkpt lat="49.0984" lon="2.25691">
        <ele>138</ele>
        <time>2016-09-18T11:45:13.000Z</time>
      </trkpt>
      <trkpt lat="49.09847" lon="2.25705">
        <ele>137</ele>
        <time>2016-09-18T11:45:20.000Z</time>
      </trkpt>
      <trkpt lat="49.0985" lon="2.25721">
        <ele>139</ele>
        <time>2016-09-18T11:45:26.000Z</time>
      </trkpt>
      <trkpt lat="49.09858" lon="2.25732">
        <ele>136</ele>
        <time>2016-09-18T11:45:33.000Z</time>
      </trkpt>
      <trkpt lat="49.09862" lon="2.25748">
        <ele>134</ele>
        <time>2016-09-18T11:45:40.000Z</time>
      </trkpt>
      <trkpt lat="49.09867" lon="2.25765">
        <ele>134</ele>
        <time>2016-09-18T11:45:48.000Z</time>
      </trkpt>
      <trkpt lat="49.09871" lon="2.2578">
        <ele>136</ele>
        <time>2016-09-18T11:45:54.000Z</time>
      </trkpt>
      <trkpt lat="49.09874" lon="2.25795">
        <ele>131</ele>
        <time>2016-09-18T11:46:00.000Z</time>
      </trkpt>
      <trkpt lat="49.09876" lon="2.25811">
        <ele>121</ele>
        <time>2016-09-18T11:46:06.000Z</time>
      </trkpt>
      <trkpt lat="49.09878" lon="2.25825">
        <ele>127</ele>
        <time>2016-09-18T11:46:10.000Z</time>
      </trkpt>
      <trkpt lat="49.09882" lon="2.25838">
        <ele>127</ele>
        <time>2016-09-18T11:46:17.000Z</time>
      </trkpt>
      <trkpt lat="49.09889" lon="2.25852">
        <ele>135</ele>
        <time>2016-09-18T11:46:28.000Z</time>
      </trkpt>
      <trkpt lat="49.09898" lon="2.25866">
        <ele>136</ele>
        <time>2016-09-18T11:46:35.000Z</time>
      </trkpt>
      <trkpt lat="49.09908" lon="2.25876">
        <ele>136</ele>
        <time>2016-09-18T11:46:41.000Z</time>
      </trkpt>
      <trkpt lat="49.09907" lon="2.25893">
        <ele>134</ele>
        <time>2016-09-18T11:46:49.000Z</time>
      </trkpt>
      <trkpt lat="49.09908" lon="2.25911">
        <ele>129</ele>
        <time>2016-09-18T11:46:59.000Z</time>
      </trkpt>
      <trkpt lat="49.09911" lon="2.25925">
        <ele>125</ele>
        <time>2016-09-18T11:47:07.000Z</time>
      </trkpt>
      <trkpt lat="49.09916" lon="2.25937">
        <ele>125</ele>
        <time>2016-09-18T11:47:14.000Z</time>
      </trkpt>
      <trkpt lat="49.09918" lon="2.25951">
        <ele>125</ele>
        <time>2016-09-18T11:47:21.000Z</time>
      </trkpt>
      <trkpt lat="49.09921" lon="2.25967">
        <ele>124</ele>
        <time>2016-09-18T11:47:28.000Z</time>
      </trkpt>
      <trkpt lat="49.09926" lon="2.25981">
        <ele>128</ele>
        <time>2016-09-18T11:47:36.000Z</time>
      </trkpt>
      <trkpt lat="49.09931" lon="2.25992">
        <ele>131</ele>
        <time>2016-09-18T11:47:43.000Z</time>
      </trkpt>
      <trkpt lat="49.09938" lon="2.26002">
        <ele>133</ele>
        <time>2016-09-18T11:47:48.000Z</time>
      </trkpt>
      <trkpt lat="49.09945" lon="2.26018">
        <ele>136</ele>
        <time>2016-09-18T11:47:55.000Z</time>
      </trkpt>
      <trkpt lat="49.09947" lon="2.26031">
        <ele>136</ele>
        <time>2016-09-18T11:48:02.000Z</time>
      </trkpt>
      <trkpt lat="49.09948" lon="2.26047">
        <ele>134</ele>
        <time>2016-09-18T11:48:11.000Z</time>
      </trkpt>
      <trkpt lat="49.09954" lon="2.2606">
        <ele>136</ele>
        <time>2016-09-18T11:48:22.000Z</time>
      </trkpt>
      <trkpt lat="49.0996" lon="2.26078">
        <ele>134</ele>
        <time>2016-09-18T11:48:31.000Z</time>
      </trkpt>
      <trkpt lat="49.09966" lon="2.26095">
        <ele>132</ele>
        <time>2016-09-18T11:48:39.000Z</time>
      </trkpt>
      <trkpt lat="49.09969" lon="2.26108">
        <ele>132</ele>
        <time>2016-09-18T11:48:44.000Z</time>
      </trkpt>
      <trkpt lat="49.09973" lon="2.26125">
        <ele>133</ele>
        <time>2016-09-18T11:48:52.000Z</time>
      </trkpt>
      <trkpt lat="49.0998" lon="2.26137">
        <ele>135</ele>
        <time>2016-09-18T11:49:00.000Z</time>
      </trkpt>
      <trkpt lat="49.09984" lon="2.26151">
        <ele>136</ele>
        <time>2016-09-18T11:49:07.000Z</time>
      </trkpt>
      <trkpt lat="49.09991" lon="2.26163">
        <ele>134</ele>
        <time>2016-09-18T11:49:14.000Z</time>
      </trkpt>
      <trkpt lat="49.09997" lon="2.26173">
        <ele>136</ele>
        <time>2016-09-18T11:49:20.000Z</time>
      </trkpt>
      <trkpt lat="49.10001" lon="2.26186">
        <ele>138</ele>
        <time>2016-09-18T11:49:25.000Z</time>
      </trkpt>
      <trkpt lat="49.10004" lon="2.2621">
        <ele>139</ele>
        <time>2016-09-18T11:49:35.000Z</time>
      </trkpt>
      <trkpt lat="49.10009" lon="2.26222">
        <ele>140</ele>
        <time>2016-09-18T11:49:40.000Z</time>
      </trkpt>
      <trkpt lat="49.10016" lon="2.26231">
        <ele>139</ele>
        <time>2016-09-18T11:49:46.000Z</time>
      </trkpt>
      <trkpt lat="49.10025" lon="2.26237">
        <ele>139</ele>
        <time>2016-09-18T11:49:52.000Z</time>
      </trkpt>
      <trkpt lat="49.10035" lon="2.2624">
        <ele>140</ele>
        <time>2016-09-18T11:49:58.000Z</time>
      </trkpt>
      <trkpt lat="49.10044" lon="2.26238">
        <ele>141</ele>
        <time>2016-09-18T11:50:06.000Z</time>
      </trkpt>
      <trkpt lat="49.10052" lon="2.26232">
        <ele>142</ele>
        <time>2016-09-18T11:50:12.000Z</time>
      </trkpt>
      <trkpt lat="49.10062" lon="2.26224">
        <ele>141</ele>
        <time>2016-09-18T11:50:20.000Z</time>
      </trkpt>
      <trkpt lat="49.10072" lon="2.26217">
        <ele>144</ele>
        <time>2016-09-18T11:50:27.000Z</time>
      </trkpt>
      <trkpt lat="49.10082" lon="2.2621">
        <ele>146</ele>
        <time>2016-09-18T11:50:34.000Z</time>
      </trkpt>
      <trkpt lat="49.10096" lon="2.26202">
        <ele>148</ele>
        <time>2016-09-18T11:50:41.000Z</time>
      </trkpt>
      <trkpt lat="49.10104" lon="2.26195">
        <ele>146</ele>
        <time>2016-09-18T11:50:48.000Z</time>
      </trkpt>
      <trkpt lat="49.10112" lon="2.26187">
        <ele>144</ele>
        <time>2016-09-18T11:50:53.000Z</time>
      </trkpt>
      <trkpt lat="49.10121" lon="2.26179">
        <ele>140</ele>
        <time>2016-09-18T11:51:00.000Z</time>
      </trkpt>
      <trkpt lat="49.10131" lon="2.26177">
        <ele>145</ele>
        <time>2016-09-18T11:51:06.000Z</time>
      </trkpt>
      <trkpt lat="49.10139" lon="2.26169">
        <ele>144</ele>
        <time>2016-09-18T11:51:12.000Z</time>
      </trkpt>
      <trkpt lat="49.10146" lon="2.26158">
        <ele>143</ele>
        <time>2016-09-18T11:51:22.000Z</time>
      </trkpt>
      <trkpt lat="49.10154" lon="2.26151">
        <ele>145</ele>
        <time>2016-09-18T11:51:29.000Z</time>
      </trkpt>
      <trkpt lat="49.10164" lon="2.26141">
        <ele>143</ele>
        <time>2016-09-18T11:51:35.000Z</time>
      </trkpt>
      <trkpt lat="49.10173" lon="2.26131">
        <ele>137</ele>
        <time>2016-09-18T11:51:44.000Z</time>
      </trkpt>
      <trkpt lat="49.10181" lon="2.26124">
        <ele>141</ele>
        <time>2016-09-18T11:51:50.000Z</time>
      </trkpt>
      <trkpt lat="49.1019" lon="2.26116">
        <ele>144</ele>
        <time>2016-09-18T11:51:57.000Z</time>
      </trkpt>
      <trkpt lat="49.10201" lon="2.26106">
        <ele>146</ele>
        <time>2016-09-18T11:52:05.000Z</time>
      </trkpt>
      <trkpt lat="49.1021" lon="2.26104">
        <ele>147</ele>
        <time>2016-09-18T11:52:09.000Z</time>
      </trkpt>
      <trkpt lat="49.10221" lon="2.26099">
        <ele>141</ele>
        <time>2016-09-18T11:52:17.000Z</time>
      </trkpt>
      <trkpt lat="49.10228" lon="2.2609">
        <ele>139</ele>
        <time>2016-09-18T11:52:24.000Z</time>
      </trkpt>
      <trkpt lat="49.10235" lon="2.26078">
        <ele>138</ele>
        <time>2016-09-18T11:52:36.000Z</time>
      </trkpt>
      <trkpt lat="49.10243" lon="2.26069">
        <ele>123</ele>
        <time>2016-09-18T11:52:43.000Z</time>
      </trkpt>
      <trkpt lat="49.10254" lon="2.26063">
        <ele>132</ele>
        <time>2016-09-18T11:52:49.000Z</time>
      </trkpt>
      <trkpt lat="49.10263" lon="2.26058">
        <ele>123</ele>
        <time>2016-09-18T11:52:56.000Z</time>
      </trkpt>
      <trkpt lat="49.10272" lon="2.26055">
        <ele>134</ele>
        <time>2016-09-18T11:53:00.000Z</time>
      </trkpt>
      <trkpt lat="49.10278" lon="2.26044">
        <ele>133</ele>
        <time>2016-09-18T11:53:06.000Z</time>
      </trkpt>
      <trkpt lat="49.10289" lon="2.26039">
        <ele>140</ele>
        <time>2016-09-18T11:53:12.000Z</time>
      </trkpt>
      <trkpt lat="49.10296" lon="2.26029">
        <ele>142</ele>
        <time>2016-09-18T11:53:22.000Z</time>
      </trkpt>
      <trkpt lat="49.10304" lon="2.26022">
        <ele>140</ele>
        <time>2016-09-18T11:53:27.000Z</time>
      </trkpt>
      <trkpt lat="49.10315" lon="2.26016">
        <ele>139</ele>
        <time>2016-09-18T11:53:34.000Z</time>
      </trkpt>
      <trkpt lat="49.10323" lon="2.26007">
        <ele>134</ele>
        <time>2016-09-18T11:53:42.000Z</time>
      </trkpt>
      <trkpt lat="49.10332" lon="2.26">
        <ele>135</ele>
        <time>2016-09-18T11:53:48.000Z</time>
      </trkpt>
      <trkpt lat="49.1034" lon="2.25994">
        <ele>131</ele>
        <time>2016-09-18T11:53:54.000Z</time>
      </trkpt>
      <trkpt lat="49.10349" lon="2.25984">
        <ele>131</ele>
        <time>2016-09-18T11:54:01.000Z</time>
      </trkpt>
      <trkpt lat="49.10358" lon="2.25974">
        <ele>126</ele>
        <time>2016-09-18T11:54:10.000Z</time>
      </trkpt>
      <trkpt lat="49.10366" lon="2.25968">
        <ele>132</ele>
        <time>2016-09-18T11:54:16.000Z</time>
      </trkpt>
      <trkpt lat="49.10376" lon="2.25963">
        <ele>132</ele>
        <time>2016-09-18T11:54:21.000Z</time>
      </trkpt>
      <trkpt lat="49.10384" lon="2.25954">
        <ele>130</ele>
        <time>2016-09-18T11:54:30.000Z</time>
      </trkpt>
      <trkpt lat="49.10394" lon="2.25947">
        <ele>133</ele>
        <time>2016-09-18T11:54:37.000Z</time>
      </trkpt>
      <trkpt lat="49.10402" lon="2.25941">
        <ele>129</ele>
        <time>2016-09-18T11:54:43.000Z</time>
      </trkpt>
      <trkpt lat="49.10409" lon="2.25929">
        <ele>124</ele>
        <time>2016-09-18T11:54:51.000Z</time>
      </trkpt>
      <trkpt lat="49.10421" lon="2.25924">
        <ele>125</ele>
        <time>2016-09-18T11:54:55.000Z</time>
      </trkpt>
      <trkpt lat="49.10426" lon="2.2591">
        <ele>123</ele>
        <time>2016-09-18T11:55:01.000Z</time>
      </trkpt>
      <trkpt lat="49.10434" lon="2.25903">
        <ele>125</ele>
        <time>2016-09-18T11:55:06.000Z</time>
      </trkpt>
      <trkpt lat="49.1044" lon="2.25889">
        <ele>122</ele>
        <time>2016-09-18T11:55:14.000Z</time>
      </trkpt>
      <trkpt lat="49.10445" lon="2.25874">
        <ele>121</ele>
        <time>2016-09-18T11:55:22.000Z</time>
      </trkpt>
      <trkpt lat="49.10447" lon="2.25859">
        <ele>122</ele>
        <time>2016-09-18T11:55:30.000Z</time>
      </trkpt>
      <trkpt lat="49.10454" lon="2.25846">
        <ele>120</ele>
        <time>2016-09-18T11:55:37.000Z</time>
      </trkpt>
      <trkpt lat="49.10461" lon="2.25835">
        <ele>122</ele>
        <time>2016-09-18T11:55:43.000Z</time>
      </trkpt>
      <trkpt lat="49.10472" lon="2.25825">
        <ele>127</ele>
        <time>2016-09-18T11:55:50.000Z</time>
      </trkpt>
      <trkpt lat="49.10474" lon="2.25811">
        <ele>121</ele>
        <time>2016-09-18T11:55:55.000Z</time>
      </trkpt>
      <trkpt lat="49.10477" lon="2.25798">
        <ele>118</ele>
        <time>2016-09-18T11:56:03.000Z</time>
      </trkpt>
      <trkpt lat="49.10481" lon="2.25785">
        <ele>122</ele>
        <time>2016-09-18T11:56:10.000Z</time>
      </trkpt>
      <trkpt lat="49.10481" lon="2.25771">
        <ele>120</ele>
        <time>2016-09-18T11:56:17.000Z</time>
      </trkpt>
      <trkpt lat="49.10487" lon="2.25757">
        <ele>123</ele>
        <time>2016-09-18T11:56:23.000Z</time>
      </trkpt>
      <trkpt lat="49.10493" lon="2.25748">
        <ele>126</ele>
        <time>2016-09-18T11:56:28.000Z</time>
      </trkpt>
      <trkpt lat="49.10498" lon="2.25734">
        <ele>128</ele>
        <time>2016-09-18T11:56:35.000Z</time>
      </trkpt>
      <trkpt lat="49.10502" lon="2.25718">
        <ele>128</ele>
        <time>2016-09-18T11:56:42.000Z</time>
      </trkpt>
      <trkpt lat="49.1051" lon="2.25702">
        <ele>127</ele>
        <time>2016-09-18T11:56:50.000Z</time>
      </trkpt>
      <trkpt lat="49.10514" lon="2.25683">
        <ele>128</ele>
        <time>2016-09-18T11:56:59.000Z</time>
      </trkpt>
      <trkpt lat="49.10517" lon="2.2567">
        <ele>122</ele>
        <time>2016-09-18T11:57:07.000Z</time>
      </trkpt>
      <trkpt lat="49.10517" lon="2.25656">
        <ele>120</ele>
        <time>2016-09-18T11:57:13.000Z</time>
      </trkpt>
      <trkpt lat="49.10523" lon="2.25646">
        <ele>119</ele>
        <time>2016-09-18T11:57:19.000Z</time>
      </trkpt>
      <trkpt lat="49.10529" lon="2.25635">
        <ele>121</ele>
        <time>2016-09-18T11:57:25.000Z</time>
      </trkpt>
      <trkpt lat="49.10537" lon="2.25621">
        <ele>122</ele>
        <time>2016-09-18T11:57:31.000Z</time>
      </trkpt>
      <trkpt lat="49.10541" lon="2.25609">
        <ele>123</ele>
        <time>2016-09-18T11:57:37.000Z</time>
      </trkpt>
      <trkpt lat="49.10541" lon="2.25594">
        <ele>122</ele>
        <time>2016-09-18T11:57:45.000Z</time>
      </trkpt>
      <trkpt lat="49.10549" lon="2.25586">
        <ele>125</ele>
        <time>2016-09-18T11:57:49.000Z</time>
      </trkpt>
      <trkpt lat="49.10556" lon="2.25576">
        <ele>129</ele>
        <time>2016-09-18T11:57:54.000Z</time>
      </trkpt>
      <trkpt lat="49.10558" lon="2.25562">
        <ele>128</ele>
        <time>2016-09-18T11:58:02.000Z</time>
      </trkpt>
      <trkpt lat="49.10557" lon="2.25547">
        <ele>121</ele>
        <time>2016-09-18T11:58:09.000Z</time>
      </trkpt>
      <trkpt lat="49.10563" lon="2.25534">
        <ele>119</ele>
        <time>2016-09-18T11:58:15.000Z</time>
      </trkpt>
      <trkpt lat="49.10568" lon="2.25517">
        <ele>121</ele>
        <time>2016-09-18T11:58:24.000Z</time>
      </trkpt>
      <trkpt lat="49.1057" lon="2.25502">
        <ele>129</ele>
        <time>2016-09-18T11:58:32.000Z</time>
      </trkpt>
      <trkpt lat="49.10573" lon="2.25488">
        <ele>126</ele>
        <time>2016-09-18T11:58:40.000Z</time>
      </trkpt>
      <trkpt lat="49.10579" lon="2.25475">
        <ele>126</ele>
        <time>2016-09-18T11:58:47.000Z</time>
      </trkpt>
      <trkpt lat="49.1059" lon="2.2547">
        <ele>129</ele>
        <time>2016-09-18T11:58:50.000Z</time>
      </trkpt>
      <trkpt lat="49.1059" lon="2.25455">
        <ele>127</ele>
        <time>2016-09-18T11:58:56.000Z</time>
      </trkpt>
      <trkpt lat="49.10596" lon="2.25443">
        <ele>125</ele>
        <time>2016-09-18T11:59:02.000Z</time>
      </trkpt>
      <trkpt lat="49.106" lon="2.2543">
        <ele>123</ele>
        <time>2016-09-18T11:59:09.000Z</time>
      </trkpt>
      <trkpt lat="49.10603" lon="2.25415">
        <ele>126</ele>
        <time>2016-09-18T11:59:18.000Z</time>
      </trkpt>
      <trkpt lat="49.10605" lon="2.25401">
        <ele>126</ele>
        <time>2016-09-18T11:59:24.000Z</time>
      </trkpt>
      <trkpt lat="49.10615" lon="2.25393">
        <ele>129</ele>
        <time>2016-09-18T11:59:30.000Z</time>
      </trkpt>
      <trkpt lat="49.1062" lon="2.25381">
        <ele>132</ele>
        <time>2016-09-18T11:59:35.000Z</time>
      </trkpt>
      <trkpt lat="49.10624" lon="2.25366">
        <ele>130</ele>
        <time>2016-09-18T11:59:43.000Z</time>
      </trkpt>
      <trkpt lat="49.10627" lon="2.25351">
        <ele>127</ele>
        <time>2016-09-18T11:59:50.000Z</time>
      </trkpt>
      <trkpt lat="49.10631" lon="2.25337">
        <ele>127</ele>
        <time>2016-09-18T11:59:58.000Z</time>
      </trkpt>
      <trkpt lat="49.10634" lon="2.25321">
        <ele>128</ele>
        <time>2016-09-18T12:00:05.000Z</time>
      </trkpt>
      <trkpt lat="49.1064" lon="2.25308">
        <ele>127</ele>
        <time>2016-09-18T12:00:11.000Z</time>
      </trkpt>
      <trkpt lat="49.10646" lon="2.25295">
        <ele>127</ele>
        <time>2016-09-18T12:00:18.000Z</time>
      </trkpt>
      <trkpt lat="49.10646" lon="2.25279">
        <ele>125</ele>
        <time>2016-09-18T12:00:25.000Z</time>
      </trkpt>
      <trkpt lat="49.10649" lon="2.25266">
        <ele>123</ele>
        <time>2016-09-18T12:00:31.000Z</time>
      </trkpt>
      <trkpt lat="49.10655" lon="2.25255">
        <ele>121</ele>
        <time>2016-09-18T12:00:38.000Z</time>
      </trkpt>
      <trkpt lat="49.10662" lon="2.25245">
        <ele>121</ele>
        <time>2016-09-18T12:00:44.000Z</time>
      </trkpt>
      <trkpt lat="49.10665" lon="2.25232">
        <ele>120</ele>
        <time>2016-09-18T12:00:52.000Z</time>
      </trkpt>
      <trkpt lat="49.1067" lon="2.25219">
        <ele>118</ele>
        <time>2016-09-18T12:01:00.000Z</time>
      </trkpt>
      <trkpt lat="49.10675" lon="2.25206">
        <ele>111</ele>
        <time>2016-09-18T12:01:08.000Z</time>
      </trkpt>
      <trkpt lat="49.10677" lon="2.25192">
        <ele>107</ele>
        <time>2016-09-18T12:01:14.000Z</time>
      </trkpt>
      <trkpt lat="49.10683" lon="2.25181">
        <ele>110</ele>
        <time>2016-09-18T12:01:19.000Z</time>
      </trkpt>
      <trkpt lat="49.1069" lon="2.2517">
        <ele>109</ele>
        <time>2016-09-18T12:01:26.000Z</time>
      </trkpt>
      <trkpt lat="49.1069" lon="2.25155">
        <ele>109</ele>
        <time>2016-09-18T12:01:33.000Z</time>
      </trkpt>
      <trkpt lat="49.10695" lon="2.25142">
        <ele>112</ele>
        <time>2016-09-18T12:01:39.000Z</time>
      </trkpt>
      <trkpt lat="49.10703" lon="2.25131">
        <ele>112</ele>
        <time>2016-09-18T12:01:44.000Z</time>
      </trkpt>
      <trkpt lat="49.10705" lon="2.25118">
        <ele>113</ele>
        <time>2016-09-18T12:01:52.000Z</time>
      </trkpt>
      <trkpt lat="49.10711" lon="2.25106">
        <ele>116</ele>
        <time>2016-09-18T12:02:01.000Z</time>
      </trkpt>
      <trkpt lat="49.10707" lon="2.25093">
        <ele>118</ele>
        <time>2016-09-18T12:02:08.000Z</time>
      </trkpt>
      <trkpt lat="49.10711" lon="2.25079">
        <ele>117</ele>
        <time>2016-09-18T12:08:29.000Z</time>
      </trkpt>
      <trkpt lat="49.10719" lon="2.25068">
        <ele>112</ele>
        <time>2016-09-18T12:08:33.000Z</time>
      </trkpt>
      <trkpt lat="49.10722" lon="2.25053">
        <ele>109</ele>
        <time>2016-09-18T12:08:40.000Z</time>
      </trkpt>
      <trkpt lat="49.1073" lon="2.25042">
        <ele>106</ele>
        <time>2016-09-18T12:08:45.000Z</time>
      </trkpt>
      <trkpt lat="49.1073" lon="2.25029">
        <ele>106</ele>
        <time>2016-09-18T12:08:50.000Z</time>
      </trkpt>
      <trkpt lat="49.10736" lon="2.25017">
        <ele>107</ele>
        <time>2016-09-18T12:08:54.000Z</time>
      </trkpt>
      <trkpt lat="49.10743" lon="2.25003">
        <ele>114</ele>
        <time>2016-09-18T12:08:58.000Z</time>
      </trkpt>
      <trkpt lat="49.10751" lon="2.24993">
        <ele>114</ele>
        <time>2016-09-18T12:09:02.000Z</time>
      </trkpt>
      <trkpt lat="49.10752" lon="2.24977">
        <ele>119</ele>
        <time>2016-09-18T12:09:06.000Z</time>
      </trkpt>
      <trkpt lat="49.10757" lon="2.24965">
        <ele>115</ele>
        <time>2016-09-18T12:09:13.000Z</time>
      </trkpt>
      <trkpt lat="49.10762" lon="2.24954">
        <ele>118</ele>
        <time>2016-09-18T12:09:21.000Z</time>
      </trkpt>
      <trkpt lat="49.10766" lon="2.24939">
        <ele>118</ele>
        <time>2016-09-18T12:09:30.000Z</time>
      </trkpt>
      <trkpt lat="49.1077" lon="2.24927">
        <ele>118</ele>
        <time>2016-09-18T12:09:36.000Z</time>
      </trkpt>
      <trkpt lat="49.10773" lon="2.24913">
        <ele>119</ele>
        <time>2016-09-18T12:09:43.000Z</time>
      </trkpt>
      <trkpt lat="49.1078" lon="2.24903">
        <ele>114</ele>
        <time>2016-09-18T12:09:48.000Z</time>
      </trkpt>
      <trkpt lat="49.10785" lon="2.24886">
        <ele>118</ele>
        <time>2016-09-18T12:09:54.000Z</time>
      </trkpt>
      <trkpt lat="49.10789" lon="2.24874">
        <ele>116</ele>
        <time>2016-09-18T12:09:59.000Z</time>
      </trkpt>
      <trkpt lat="49.10789" lon="2.24857">
        <ele>114</ele>
        <time>2016-09-18T12:10:08.000Z</time>
      </trkpt>
      <trkpt lat="49.10794" lon="2.24841">
        <ele>116</ele>
        <time>2016-09-18T12:10:12.000Z</time>
      </trkpt>
      <trkpt lat="49.10801" lon="2.24832">
        <ele>105</ele>
        <time>2016-09-18T12:10:23.000Z</time>
      </trkpt>
      <trkpt lat="49.10801" lon="2.24817">
        <ele>103</ele>
        <time>2016-09-18T12:10:27.000Z</time>
      </trkpt>
      <trkpt lat="49.10795" lon="2.24804">
        <ele>103</ele>
        <time>2016-09-18T12:10:29.000Z</time>
      </trkpt>
      <trkpt lat="49.10798" lon="2.2479">
        <ele>102</ele>
        <time>2016-09-18T12:10:43.000Z</time>
      </trkpt>
      <trkpt lat="49.10807" lon="2.24784">
        <ele>101</ele>
        <time>2016-09-18T12:10:46.000Z</time>
      </trkpt>
      <trkpt lat="49.10813" lon="2.24769">
        <ele>103</ele>
        <time>2016-09-18T12:10:50.000Z</time>
      </trkpt>
      <trkpt lat="49.1081" lon="2.24756">
        <ele>106</ele>
        <time>2016-09-18T12:10:59.000Z</time>
      </trkpt>
      <trkpt lat="49.10809" lon="2.24741">
        <ele>110</ele>
        <time>2016-09-18T12:11:05.000Z</time>
      </trkpt>
      <trkpt lat="49.10802" lon="2.24732">
        <ele>112</ele>
        <time>2016-09-18T12:11:09.000Z</time>
      </trkpt>
      <trkpt lat="49.10807" lon="2.24718">
        <ele>116</ele>
        <time>2016-09-18T12:11:14.000Z</time>
      </trkpt>
      <trkpt lat="49.10807" lon="2.24702">
        <ele>112</ele>
        <time>2016-09-18T12:11:23.000Z</time>
      </trkpt>
      <trkpt lat="49.10819" lon="2.24691">
        <ele>112</ele>
        <time>2016-09-18T12:11:29.000Z</time>
      </trkpt>
      <trkpt lat="49.10823" lon="2.24677">
        <ele>113</ele>
        <time>2016-09-18T12:11:33.000Z</time>
      </trkpt>
      <trkpt lat="49.10814" lon="2.2467">
        <ele>112</ele>
        <time>2016-09-18T12:11:38.000Z</time>
      </trkpt>
      <trkpt lat="49.10808" lon="2.24654">
        <ele>110</ele>
        <time>2016-09-18T12:11:47.000Z</time>
      </trkpt>
      <trkpt lat="49.1082" lon="2.24642">
        <ele>113</ele>
        <time>2016-09-18T12:11:51.000Z</time>
      </trkpt>
      <trkpt lat="49.10828" lon="2.2463">
        <ele>110</ele>
        <time>2016-09-18T12:12:00.000Z</time>
      </trkpt>
      <trkpt lat="49.10824" lon="2.24616">
        <ele>112</ele>
        <time>2016-09-18T12:12:04.000Z</time>
      </trkpt>
      <trkpt lat="49.10824" lon="2.24601">
        <ele>113</ele>
        <time>2016-09-18T12:12:10.000Z</time>
      </trkpt>
      <trkpt lat="49.10829" lon="2.24587">
        <ele>111</ele>
        <time>2016-09-18T12:12:16.000Z</time>
      </trkpt>
      <trkpt lat="49.10827" lon="2.24572">
        <ele>116</ele>
        <time>2016-09-18T12:12:21.000Z</time>
      </trkpt>
      <trkpt lat="49.10825" lon="2.24557">
        <ele>120</ele>
        <time>2016-09-18T12:12:26.000Z</time>
      </trkpt>
      <trkpt lat="49.10828" lon="2.24542">
        <ele>115</ele>
        <time>2016-09-18T12:12:34.000Z</time>
      </trkpt>
      <trkpt lat="49.10821" lon="2.24527">
        <ele>120</ele>
        <time>2016-09-18T12:12:40.000Z</time>
      </trkpt>
      <trkpt lat="49.10824" lon="2.24514">
        <ele>119</ele>
        <time>2016-09-18T12:12:46.000Z</time>
      </trkpt>
      <trkpt lat="49.10832" lon="2.24504">
        <ele>121</ele>
        <time>2016-09-18T12:12:51.000Z</time>
      </trkpt>
      <trkpt lat="49.10831" lon="2.24488">
        <ele>118</ele>
        <time>2016-09-18T12:12:54.000Z</time>
      </trkpt>
      <trkpt lat="49.10822" lon="2.24488">
        <ele>115</ele>
        <time>2016-09-18T12:12:59.000Z</time>
      </trkpt>
      <trkpt lat="49.10833" lon="2.24484">
        <ele>114</ele>
        <time>2016-09-18T12:13:03.000Z</time>
      </trkpt>
      <trkpt lat="49.10838" lon="2.2447">
        <ele>113</ele>
        <time>2016-09-18T12:13:10.000Z</time>
      </trkpt>
      <trkpt lat="49.10842" lon="2.24456">
        <ele>113</ele>
        <time>2016-09-18T12:13:15.000Z</time>
      </trkpt>
      <trkpt lat="49.10835" lon="2.24447">
        <ele>114</ele>
        <time>2016-09-18T12:13:20.000Z</time>
      </trkpt>
      <trkpt lat="49.10835" lon="2.24431">
        <ele>117</ele>
        <time>2016-09-18T12:13:25.000Z</time>
      </trkpt>
      <trkpt lat="49.10843" lon="2.24416">
        <ele>110</ele>
        <time>2016-09-18T12:13:35.000Z</time>
      </trkpt>
      <trkpt lat="49.10842" lon="2.24396">
        <ele>114</ele>
        <time>2016-09-18T12:13:40.000Z</time>
      </trkpt>
      <trkpt lat="49.10846" lon="2.24381">
        <ele>116</ele>
        <time>2016-09-18T12:13:44.000Z</time>
      </trkpt>
      <trkpt lat="49.10849" lon="2.24368">
        <ele>116</ele>
        <time>2016-09-18T12:13:54.000Z</time>
      </trkpt>
      <trkpt lat="49.10846" lon="2.24355">
        <ele>120</ele>
        <time>2016-09-18T12:13:58.000Z</time>
      </trkpt>
      <trkpt lat="49.10848" lon="2.24342">
        <ele>124</ele>
        <time>2016-09-18T12:14:04.000Z</time>
      </trkpt>
      <trkpt lat="49.10851" lon="2.24328">
        <ele>123</ele>
        <time>2016-09-18T12:14:11.000Z</time>
      </trkpt>
      <trkpt lat="49.10853" lon="2.24312">
        <ele>121</ele>
        <time>2016-09-18T12:14:20.000Z</time>
      </trkpt>
      <trkpt lat="49.10853" lon="2.24297">
        <ele>123</ele>
        <time>2016-09-18T12:14:26.000Z</time>
      </trkpt>
      <trkpt lat="49.10857" lon="2.24283">
        <ele>122</ele>
        <time>2016-09-18T12:14:33.000Z</time>
      </trkpt>
      <trkpt lat="49.10856" lon="2.24268">
        <ele>125</ele>
        <time>2016-09-18T12:14:38.000Z</time>
      </trkpt>
      <trkpt lat="49.10852" lon="2.24256">
        <ele>126</ele>
        <time>2016-09-18T12:14:42.000Z</time>
      </trkpt>
      <trkpt lat="49.10857" lon="2.24243">
        <ele>123</ele>
        <time>2016-09-18T12:14:48.000Z</time>
      </trkpt>
      <trkpt lat="49.10861" lon="2.24231">
        <ele>118</ele>
        <time>2016-09-18T12:14:56.000Z</time>
      </trkpt>
      <trkpt lat="49.10864" lon="2.24217">
        <ele>117</ele>
        <time>2016-09-18T12:15:01.000Z</time>
      </trkpt>
      <trkpt lat="49.10866" lon="2.24204">
        <ele>118</ele>
        <time>2016-09-18T12:15:06.000Z</time>
      </trkpt>
      <trkpt lat="49.1087" lon="2.2419">
        <ele>125</ele>
        <time>2016-09-18T12:15:12.000Z</time>
      </trkpt>
      <trkpt lat="49.10867" lon="2.24176">
        <ele>121</ele>
        <time>2016-09-18T12:15:17.000Z</time>
      </trkpt>
      <trkpt lat="49.10865" lon="2.24162">
        <ele>119</ele>
        <time>2016-09-18T12:15:22.000Z</time>
      </trkpt>
      <trkpt lat="49.10868" lon="2.24147">
        <ele>116</ele>
        <time>2016-09-18T12:15:30.000Z</time>
      </trkpt>
      <trkpt lat="49.10866" lon="2.24132">
        <ele>117</ele>
        <time>2016-09-18T12:15:38.000Z</time>
      </trkpt>
      <trkpt lat="49.10865" lon="2.24116">
        <ele>119</ele>
        <time>2016-09-18T12:15:47.000Z</time>
      </trkpt>
      <trkpt lat="49.10867" lon="2.24101">
        <ele>120</ele>
        <time>2016-09-18T12:15:53.000Z</time>
      </trkpt>
      <trkpt lat="49.1087" lon="2.24086">
        <ele>117</ele>
        <time>2016-09-18T12:16:00.000Z</time>
      </trkpt>
      <trkpt lat="49.1087" lon="2.24072">
        <ele>119</ele>
        <time>2016-09-18T12:16:06.000Z</time>
      </trkpt>
      <trkpt lat="49.10874" lon="2.24059">
        <ele>120</ele>
        <time>2016-09-18T12:16:11.000Z</time>
      </trkpt>
      <trkpt lat="49.10875" lon="2.24045">
        <ele>120</ele>
        <time>2016-09-18T12:16:16.000Z</time>
      </trkpt>
      <trkpt lat="49.1088" lon="2.24031">
        <ele>119</ele>
        <time>2016-09-18T12:16:23.000Z</time>
      </trkpt>
      <trkpt lat="49.10879" lon="2.24015">
        <ele>121</ele>
        <time>2016-09-18T12:16:29.000Z</time>
      </trkpt>
      <trkpt lat="49.10885" lon="2.24002">
        <ele>123</ele>
        <time>2016-09-18T12:16:35.000Z</time>
      </trkpt>
      <trkpt lat="49.10886" lon="2.23986">
        <ele>127</ele>
        <time>2016-09-18T12:16:41.000Z</time>
      </trkpt>
      <trkpt lat="49.10885" lon="2.23971">
        <ele>129</ele>
        <time>2016-09-18T12:16:50.000Z</time>
      </trkpt>
      <trkpt lat="49.10891" lon="2.23957">
        <ele>128</ele>
        <time>2016-09-18T12:16:57.000Z</time>
      </trkpt>
      <trkpt lat="49.10894" lon="2.23943">
        <ele>127</ele>
        <time>2016-09-18T12:17:04.000Z</time>
      </trkpt>
      <trkpt lat="49.10893" lon="2.23927">
        <ele>130</ele>
        <time>2016-09-18T12:17:10.000Z</time>
      </trkpt>
      <trkpt lat="49.10897" lon="2.23912">
        <ele>130</ele>
        <time>2016-09-18T12:17:16.000Z</time>
      </trkpt>
      <trkpt lat="49.10904" lon="2.23901">
        <ele>128</ele>
        <time>2016-09-18T12:17:21.000Z</time>
      </trkpt>
      <trkpt lat="49.10907" lon="2.23885">
        <ele>123</ele>
        <time>2016-09-18T12:17:33.000Z</time>
      </trkpt>
      <trkpt lat="49.10911" lon="2.23871">
        <ele>122</ele>
        <time>2016-09-18T12:17:38.000Z</time>
      </trkpt>
      <trkpt lat="49.10913" lon="2.23857">
        <ele>120</ele>
        <time>2016-09-18T12:17:45.000Z</time>
      </trkpt>
      <trkpt lat="49.10917" lon="2.23843">
        <ele>119</ele>
        <time>2016-09-18T12:17:50.000Z</time>
      </trkpt>
      <trkpt lat="49.10918" lon="2.23828">
        <ele>124</ele>
        <time>2016-09-18T12:17:54.000Z</time>
      </trkpt>
      <trkpt lat="49.10929" lon="2.23825">
        <ele>128</ele>
        <time>2016-09-18T12:18:03.000Z</time>
      </trkpt>
      <trkpt lat="49.1094" lon="2.23829">
        <ele>128</ele>
        <time>2016-09-18T12:18:09.000Z</time>
      </trkpt>
      <trkpt lat="49.10949" lon="2.2383">
        <ele>125</ele>
        <time>2016-09-18T12:18:17.000Z</time>
      </trkpt>
      <trkpt lat="49.10959" lon="2.23827">
        <ele>123</ele>
        <time>2016-09-18T12:18:24.000Z</time>
      </trkpt>
      <trkpt lat="49.10965" lon="2.23813">
        <ele>122</ele>
        <time>2016-09-18T12:18:59.000Z</time>
      </trkpt>
      <trkpt lat="49.10973" lon="2.23807">
        <ele>121</ele>
        <time>2016-09-18T12:19:04.000Z</time>
      </trkpt>
      <trkpt lat="49.10981" lon="2.23798">
        <ele>121</ele>
        <time>2016-09-18T12:19:10.000Z</time>
      </trkpt>
      <trkpt lat="49.10986" lon="2.23786">
        <ele>124</ele>
        <time>2016-09-18T12:19:17.000Z</time>
      </trkpt>
      <trkpt lat="49.10991" lon="2.23774">
        <ele>119</ele>
        <time>2016-09-18T12:19:25.000Z</time>
      </trkpt>
      <trkpt lat="49.10999" lon="2.23763">
        <ele>117</ele>
        <time>2016-09-18T12:19:31.000Z</time>
      </trkpt>
      <trkpt lat="49.11005" lon="2.23751">
        <ele>120</ele>
        <time>2016-09-18T12:19:37.000Z</time>
      </trkpt>
      <trkpt lat="49.11011" lon="2.23739">
        <ele>119</ele>
        <time>2016-09-18T12:19:44.000Z</time>
      </trkpt>
      <trkpt lat="49.11017" lon="2.23726">
        <ele>124</ele>
        <time>2016-09-18T12:19:51.000Z</time>
      </trkpt>
      <trkpt lat="49.11025" lon="2.23712">
        <ele>125</ele>
        <time>2016-09-18T12:19:58.000Z</time>
      </trkpt>
      <trkpt lat="49.11034" lon="2.2371">
        <ele>120</ele>
        <time>2016-09-18T12:20:04.000Z</time>
      </trkpt>
      <trkpt lat="49.11044" lon="2.23708">
        <ele>119</ele>
        <time>2016-09-18T12:20:09.000Z</time>
      </trkpt>
      <trkpt lat="49.11053" lon="2.23712">
        <ele>120</ele>
        <time>2016-09-18T12:20:17.000Z</time>
      </trkpt>
      <trkpt lat="49.11063" lon="2.23714">
        <ele>121</ele>
        <time>2016-09-18T12:20:25.000Z</time>
      </trkpt>
      <trkpt lat="49.11074" lon="2.23711">
        <ele>121</ele>
        <time>2016-09-18T12:20:34.000Z</time>
      </trkpt>
      <trkpt lat="49.11084" lon="2.23705">
        <ele>121</ele>
        <time>2016-09-18T12:20:44.000Z</time>
      </trkpt>
      <trkpt lat="49.11092" lon="2.237">
        <ele>122</ele>
        <time>2016-09-18T12:20:50.000Z</time>
      </trkpt>
      <trkpt lat="49.111" lon="2.23692">
        <ele>121</ele>
        <time>2016-09-18T12:20:56.000Z</time>
      </trkpt>
      <trkpt lat="49.11107" lon="2.23682">
        <ele>123</ele>
        <time>2016-09-18T12:21:03.000Z</time>
      </trkpt>
      <trkpt lat="49.11113" lon="2.23672">
        <ele>123</ele>
        <time>2016-09-18T12:21:09.000Z</time>
      </trkpt>
      <trkpt lat="49.11122" lon="2.23662">
        <ele>122</ele>
        <time>2016-09-18T12:21:17.000Z</time>
      </trkpt>
      <trkpt lat="49.11129" lon="2.23653">
        <ele>120</ele>
        <time>2016-09-18T12:21:24.000Z</time>
      </trkpt>
      <trkpt lat="49.11132" lon="2.23639">
        <ele>118</ele>
        <time>2016-09-18T12:21:30.000Z</time>
      </trkpt>
      <trkpt lat="49.11139" lon="2.23631">
        <ele>119</ele>
        <time>2016-09-18T12:21:35.000Z</time>
      </trkpt>
      <trkpt lat="49.11143" lon="2.23617">
        <ele>114</ele>
        <time>2016-09-18T12:21:44.000Z</time>
      </trkpt>
      <trkpt lat="49.11147" lon="2.23603">
        <ele>113</ele>
        <time>2016-09-18T12:21:51.000Z</time>
      </trkpt>
      <trkpt lat="49.11154" lon="2.23593">
        <ele>112</ele>
        <time>2016-09-18T12:21:57.000Z</time>
      </trkpt>
      <trkpt lat="49.11161" lon="2.23583">
        <ele>114</ele>
        <time>2016-09-18T12:22:03.000Z</time>
      </trkpt>
      <trkpt lat="49.11168" lon="2.2357">
        <ele>115</ele>
        <time>2016-09-18T12:22:12.000Z</time>
      </trkpt>
      <trkpt lat="49.11177" lon="2.23561">
        <ele>116</ele>
        <time>2016-09-18T12:22:15.000Z</time>
      </trkpt>
      <trkpt lat="49.11176" lon="2.23546">
        <ele>115</ele>
        <time>2016-09-18T12:22:22.000Z</time>
      </trkpt>
      <trkpt lat="49.11181" lon="2.23532">
        <ele>109</ele>
        <time>2016-09-18T12:22:30.000Z</time>
      </trkpt>
      <trkpt lat="49.11189" lon="2.2352">
        <ele>109</ele>
        <time>2016-09-18T12:22:37.000Z</time>
      </trkpt>
      <trkpt lat="49.11192" lon="2.23504">
        <ele>100</ele>
        <time>2016-09-18T12:22:44.000Z</time>
      </trkpt>
      <trkpt lat="49.11198" lon="2.23494">
        <ele>103</ele>
        <time>2016-09-18T12:22:50.000Z</time>
      </trkpt>
      <trkpt lat="49.11203" lon="2.23478">
        <ele>103</ele>
        <time>2016-09-18T12:22:57.000Z</time>
      </trkpt>
      <trkpt lat="49.11208" lon="2.23461">
        <ele>102</ele>
        <time>2016-09-18T12:23:06.000Z</time>
      </trkpt>
      <trkpt lat="49.11211" lon="2.23447">
        <ele>102</ele>
        <time>2016-09-18T12:23:12.000Z</time>
      </trkpt>
      <trkpt lat="49.11218" lon="2.23436">
        <ele>102</ele>
        <time>2016-09-18T12:23:18.000Z</time>
      </trkpt>
      <trkpt lat="49.11224" lon="2.23421">
        <ele>95</ele>
        <time>2016-09-18T12:23:28.000Z</time>
      </trkpt>
      <trkpt lat="49.11231" lon="2.23407">
        <ele>97</ele>
        <time>2016-09-18T12:23:35.000Z</time>
      </trkpt>
      <trkpt lat="49.11233" lon="2.23389">
        <ele>99</ele>
        <time>2016-09-18T12:23:43.000Z</time>
      </trkpt>
      <trkpt lat="49.11239" lon="2.23375">
        <ele>101</ele>
        <time>2016-09-18T12:23:50.000Z</time>
      </trkpt>
      <trkpt lat="49.11244" lon="2.23361">
        <ele>103</ele>
        <time>2016-09-18T12:23:57.000Z</time>
      </trkpt>
      <trkpt lat="49.11251" lon="2.23347">
        <ele>103</ele>
        <time>2016-09-18T12:24:03.000Z</time>
      </trkpt>
      <trkpt lat="49.11255" lon="2.23333">
        <ele>96</ele>
        <time>2016-09-18T12:24:14.000Z</time>
      </trkpt>
      <trkpt lat="49.11259" lon="2.23319">
        <ele>93</ele>
        <time>2016-09-18T12:24:22.000Z</time>
      </trkpt>
      <trkpt lat="49.11259" lon="2.233">
        <ele>94</ele>
        <time>2016-09-18T12:24:30.000Z</time>
      </trkpt>
      <trkpt lat="49.11256" lon="2.23283">
        <ele>96</ele>
        <time>2016-09-18T12:24:38.000Z</time>
      </trkpt>
      <trkpt lat="49.1126" lon="2.23267">
        <ele>96</ele>
        <time>2016-09-18T12:24:46.000Z</time>
      </trkpt>
      <trkpt lat="49.11268" lon="2.23255">
        <ele>93</ele>
        <time>2016-09-18T12:24:53.000Z</time>
      </trkpt>
      <trkpt lat="49.11268" lon="2.23239">
        <ele>91</ele>
        <time>2016-09-18T12:25:01.000Z</time>
      </trkpt>
      <trkpt lat="49.11276" lon="2.23231">
        <ele>89</ele>
        <time>2016-09-18T12:25:06.000Z</time>
      </trkpt>
      <trkpt lat="49.11282" lon="2.2322">
        <ele>88</ele>
        <time>2016-09-18T12:25:11.000Z</time>
      </trkpt>
      <trkpt lat="49.11287" lon="2.23208">
        <ele>85</ele>
        <time>2016-09-18T12:25:18.000Z</time>
      </trkpt>
      <trkpt lat="49.11293" lon="2.23198">
        <ele>83</ele>
        <time>2016-09-18T12:25:25.000Z</time>
      </trkpt>
      <trkpt lat="49.11299" lon="2.23187">
        <ele>80</ele>
        <time>2016-09-18T12:25:32.000Z</time>
      </trkpt>
      <trkpt lat="49.11308" lon="2.23173">
        <ele>81</ele>
        <time>2016-09-18T12:25:39.000Z</time>
      </trkpt>
      <trkpt lat="49.11317" lon="2.23161">
        <ele>85</ele>
        <time>2016-09-18T12:25:44.000Z</time>
      </trkpt>
      <trkpt lat="49.11326" lon="2.23151">
        <ele>87</ele>
        <time>2016-09-18T12:25:50.000Z</time>
      </trkpt>
      <trkpt lat="49.11337" lon="2.23144">
        <ele>87</ele>
        <time>2016-09-18T12:25:57.000Z</time>
      </trkpt>
      <trkpt lat="49.11349" lon="2.23138">
        <ele>80</ele>
        <time>2016-09-18T12:26:07.000Z</time>
      </trkpt>
      <trkpt lat="49.11358" lon="2.23132">
        <ele>76</ele>
        <time>2016-09-18T12:26:14.000Z</time>
      </trkpt>
      <trkpt lat="49.11362" lon="2.23116">
        <ele>81</ele>
        <time>2016-09-18T12:26:23.000Z</time>
      </trkpt>
      <trkpt lat="49.11371" lon="2.23106">
        <ele>83</ele>
        <time>2016-09-18T12:26:31.000Z</time>
      </trkpt>
      <trkpt lat="49.11383" lon="2.23106">
        <ele>83</ele>
        <time>2016-09-18T12:26:37.000Z</time>
      </trkpt>
      <trkpt lat="49.11393" lon="2.23108">
        <ele>82</ele>
        <time>2016-09-18T12:26:43.000Z</time>
      </trkpt>
      <trkpt lat="49.11401" lon="2.23115">
        <ele>82</ele>
        <time>2016-09-18T12:26:49.000Z</time>
      </trkpt>
      <trkpt lat="49.11412" lon="2.23128">
        <ele>79</ele>
        <time>2016-09-18T12:26:58.000Z</time>
      </trkpt>
      <trkpt lat="49.1142" lon="2.23133">
        <ele>80</ele>
        <time>2016-09-18T12:27:04.000Z</time>
      </trkpt>
      <trkpt lat="49.11431" lon="2.23138">
        <ele>80</ele>
        <time>2016-09-18T12:27:10.000Z</time>
      </trkpt>
      <trkpt lat="49.1144" lon="2.23147">
        <ele>80</ele>
        <time>2016-09-18T12:27:16.000Z</time>
      </trkpt>
      <trkpt lat="49.11448" lon="2.23156">
        <ele>81</ele>
        <time>2016-09-18T12:27:23.000Z</time>
      </trkpt>
      <trkpt lat="49.11458" lon="2.23165">
        <ele>81</ele>
        <time>2016-09-18T12:27:31.000Z</time>
      </trkpt>
      <trkpt lat="49.11465" lon="2.23174">
        <ele>80</ele>
        <time>2016-09-18T12:27:39.000Z</time>
      </trkpt>
      <trkpt lat="49.11475" lon="2.2318">
        <ele>79</ele>
        <time>2016-09-18T12:27:46.000Z</time>
      </trkpt>
      <trkpt lat="49.11486" lon="2.2318">
        <ele>79</ele>
        <time>2016-09-18T12:27:53.000Z</time>
      </trkpt>
      <trkpt lat="49.11495" lon="2.23173">
        <ele>77</ele>
        <time>2016-09-18T12:28:00.000Z</time>
      </trkpt>
      <trkpt lat="49.11495" lon="2.23154">
        <ele>80</ele>
        <time>2016-09-18T12:28:07.000Z</time>
      </trkpt>
      <trkpt lat="49.11496" lon="2.23138">
        <ele>77</ele>
        <time>2016-09-18T12:28:16.000Z</time>
      </trkpt>
      <trkpt lat="49.11498" lon="2.23123">
        <ele>77</ele>
        <time>2016-09-18T12:28:23.000Z</time>
      </trkpt>
      <trkpt lat="49.11499" lon="2.23102">
        <ele>80</ele>
        <time>2016-09-18T12:28:31.000Z</time>
      </trkpt>
      <trkpt lat="49.11498" lon="2.23087">
        <ele>80</ele>
        <time>2016-09-18T12:28:38.000Z</time>
      </trkpt>
      <trkpt lat="49.11497" lon="2.23071">
        <ele>81</ele>
        <time>2016-09-18T12:28:45.000Z</time>
      </trkpt>
      <trkpt lat="49.115" lon="2.23058">
        <ele>79</ele>
        <time>2016-09-18T12:28:52.000Z</time>
      </trkpt>
      <trkpt lat="49.11508" lon="2.23052">
        <ele>80</ele>
        <time>2016-09-18T12:28:58.000Z</time>
      </trkpt>
      <trkpt lat="49.1152" lon="2.23049">
        <ele>79</ele>
        <time>2016-09-18T12:29:05.000Z</time>
      </trkpt>
      <trkpt lat="49.11531" lon="2.23051">
        <ele>77</ele>
        <time>2016-09-18T12:29:13.000Z</time>
      </trkpt>
      <trkpt lat="49.11542" lon="2.23051">
        <ele>76</ele>
        <time>2016-09-18T12:29:21.000Z</time>
      </trkpt>
      <trkpt lat="49.11552" lon="2.23049">
        <ele>78</ele>
        <time>2016-09-18T12:29:27.000Z</time>
      </trkpt>
      <trkpt lat="49.11562" lon="2.23048">
        <ele>79</ele>
        <time>2016-09-18T12:29:33.000Z</time>
      </trkpt>
      <trkpt lat="49.11572" lon="2.23046">
        <ele>79</ele>
        <time>2016-09-18T12:29:42.000Z</time>
      </trkpt>
      <trkpt lat="49.11583" lon="2.23046">
        <ele>81</ele>
        <time>2016-09-18T12:29:49.000Z</time>
      </trkpt>
      <trkpt lat="49.11593" lon="2.2305">
        <ele>79</ele>
        <time>2016-09-18T12:29:55.000Z</time>
      </trkpt>
      <trkpt lat="49.11602" lon="2.23052">
        <ele>78</ele>
        <time>2016-09-18T12:30:01.000Z</time>
      </trkpt>
      <trkpt lat="49.11613" lon="2.23052">
        <ele>77</ele>
        <time>2016-09-18T12:30:08.000Z</time>
      </trkpt>
      <trkpt lat="49.11623" lon="2.23052">
        <ele>75</ele>
        <time>2016-09-18T12:30:15.000Z</time>
      </trkpt>
      <trkpt lat="49.11633" lon="2.23051">
        <ele>77</ele>
        <time>2016-09-18T12:30:20.000Z</time>
      </trkpt>
      <trkpt lat="49.11645" lon="2.23049">
        <ele>79</ele>
        <time>2016-09-18T12:30:30.000Z</time>
      </trkpt>
      <trkpt lat="49.11653" lon="2.23055">
        <ele>74</ele>
        <time>2016-09-18T12:30:36.000Z</time>
      </trkpt>
      <trkpt lat="49.11662" lon="2.23056">
        <ele>76</ele>
        <time>2016-09-18T12:30:42.000Z</time>
      </trkpt>
      <trkpt lat="49.11673" lon="2.23062">
        <ele>78</ele>
        <time>2016-09-18T12:30:51.000Z</time>
      </trkpt>
      <trkpt lat="49.11675" lon="2.23079">
        <ele>80</ele>
        <time>2016-09-18T12:31:00.000Z</time>
      </trkpt>
      <trkpt lat="49.11678" lon="2.23094">
        <ele>90</ele>
        <time>2016-09-18T12:31:09.000Z</time>
      </trkpt>
      <trkpt lat="49.11678" lon="2.23109">
        <ele>79</ele>
        <time>2016-09-18T12:31:25.000Z</time>
      </trkpt>
      <trkpt lat="49.11681" lon="2.23123">
        <ele>79</ele>
        <time>2016-09-18T12:31:46.000Z</time>
      </trkpt>
      <trkpt lat="49.11681" lon="2.23108">
        <ele>79</ele>
        <time>2016-09-18T12:33:13.000Z</time>
      </trkpt>
      <trkpt lat="49.11689" lon="2.23097">
        <ele>77</ele>
        <time>2016-09-18T12:33:19.000Z</time>
      </trkpt>
      <trkpt lat="49.11696" lon="2.23089">
        <ele>74</ele>
        <time>2016-09-18T12:33:28.000Z</time>
      </trkpt>
      <trkpt lat="49.11707" lon="2.23089">
        <ele>76</ele>
        <time>2016-09-18T12:33:38.000Z</time>
      </trkpt>
      <trkpt lat="49.11716" lon="2.23088">
        <ele>76</ele>
        <time>2016-09-18T12:33:51.000Z</time>
      </trkpt>
      <trkpt lat="49.11725" lon="2.23088">
        <ele>76</ele>
        <time>2016-09-18T12:33:56.000Z</time>
      </trkpt>
      <trkpt lat="49.11735" lon="2.23089">
        <ele>75</ele>
        <time>2016-09-18T12:34:03.000Z</time>
      </trkpt>
      <trkpt lat="49.11744" lon="2.23094">
        <ele>70</ele>
        <time>2016-09-18T12:34:11.000Z</time>
      </trkpt>
      <trkpt lat="49.11752" lon="2.23103">
        <ele>69</ele>
        <time>2016-09-18T12:34:18.000Z</time>
      </trkpt>
      <trkpt lat="49.11761" lon="2.23113">
        <ele>70</ele>
        <time>2016-09-18T12:34:25.000Z</time>
      </trkpt>
      <trkpt lat="49.11771" lon="2.23113">
        <ele>77</ele>
        <time>2016-09-18T12:34:31.000Z</time>
      </trkpt>
      <trkpt lat="49.1178" lon="2.23114">
        <ele>77</ele>
        <time>2016-09-18T12:34:38.000Z</time>
      </trkpt>
      <trkpt lat="49.11791" lon="2.2312">
        <ele>78</ele>
        <time>2016-09-18T12:34:46.000Z</time>
      </trkpt>
      <trkpt lat="49.118" lon="2.23123">
        <ele>79</ele>
        <time>2016-09-18T12:34:54.000Z</time>
      </trkpt>
      <trkpt lat="49.11811" lon="2.23127">
        <ele>80</ele>
        <time>2016-09-18T12:35:02.000Z</time>
      </trkpt>
      <trkpt lat="49.11819" lon="2.23136">
        <ele>82</ele>
        <time>2016-09-18T12:35:08.000Z</time>
      </trkpt>
      <trkpt lat="49.11828" lon="2.23139">
        <ele>78</ele>
        <time>2016-09-18T12:35:16.000Z</time>
      </trkpt>
      <trkpt lat="49.11838" lon="2.23144">
        <ele>78</ele>
        <time>2016-09-18T12:35:24.000Z</time>
      </trkpt>
      <trkpt lat="49.11847" lon="2.23151">
        <ele>80</ele>
        <time>2016-09-18T12:35:31.000Z</time>
      </trkpt>
      <trkpt lat="49.11855" lon="2.23156">
        <ele>80</ele>
        <time>2016-09-18T12:35:39.000Z</time>
      </trkpt>
      <trkpt lat="49.11866" lon="2.23155">
        <ele>79</ele>
        <time>2016-09-18T12:35:47.000Z</time>
      </trkpt>
      <trkpt lat="49.11872" lon="2.23144">
        <ele>77</ele>
        <time>2016-09-18T12:35:53.000Z</time>
      </trkpt>
      <trkpt lat="49.11875" lon="2.23126">
        <ele>77</ele>
        <time>2016-09-18T12:36:01.000Z</time>
      </trkpt>
      <trkpt lat="49.11877" lon="2.2311">
        <ele>76</ele>
        <time>2016-09-18T12:36:09.000Z</time>
      </trkpt>
      <trkpt lat="49.11879" lon="2.23093">
        <ele>76</ele>
        <time>2016-09-18T12:36:18.000Z</time>
      </trkpt>
      <trkpt lat="49.11881" lon="2.23077">
        <ele>78</ele>
        <time>2016-09-18T12:36:24.000Z</time>
      </trkpt>
      <trkpt lat="49.11881" lon="2.23062">
        <ele>79</ele>
        <time>2016-09-18T12:36:31.000Z</time>
      </trkpt>
      <trkpt lat="49.11883" lon="2.23044">
        <ele>77</ele>
        <time>2016-09-18T12:36:39.000Z</time>
      </trkpt>
      <trkpt lat="49.11886" lon="2.23027">
        <ele>79</ele>
        <time>2016-09-18T12:36:47.000Z</time>
      </trkpt>
      <trkpt lat="49.11886" lon="2.23012">
        <ele>78</ele>
        <time>2016-09-18T12:36:54.000Z</time>
      </trkpt>
      <trkpt lat="49.11882" lon="2.22998">
        <ele>75</ele>
        <time>2016-09-18T12:37:01.000Z</time>
      </trkpt>
      <trkpt lat="49.11882" lon="2.22982">
        <ele>72</ele>
        <time>2016-09-18T12:37:10.000Z</time>
      </trkpt>
      <trkpt lat="49.11883" lon="2.22967">
        <ele>73</ele>
        <time>2016-09-18T12:37:18.000Z</time>
      </trkpt>
      <trkpt lat="49.11885" lon="2.22952">
        <ele>72</ele>
        <time>2016-09-18T12:37:28.000Z</time>
      </trkpt>
      <trkpt lat="49.11886" lon="2.22935">
        <ele>70</ele>
        <time>2016-09-18T12:37:34.000Z</time>
      </trkpt>
      <trkpt lat="49.11886" lon="2.22919">
        <ele>72</ele>
        <time>2016-09-18T12:37:43.000Z</time>
      </trkpt>
      <trkpt lat="49.11887" lon="2.22901">
        <ele>71</ele>
        <time>2016-09-18T12:37:51.000Z</time>
      </trkpt>
      <trkpt lat="49.1189" lon="2.22886">
        <ele>71</ele>
        <time>2016-09-18T12:37:57.000Z</time>
      </trkpt>
      <trkpt lat="49.11891" lon="2.2287">
        <ele>69</ele>
        <time>2016-09-18T12:38:05.000Z</time>
      </trkpt>
      <trkpt lat="49.11894" lon="2.22857">
        <ele>74</ele>
        <time>2016-09-18T12:38:11.000Z</time>
      </trkpt>
      <trkpt lat="49.11894" lon="2.22841">
        <ele>71</ele>
        <time>2016-09-18T12:38:20.000Z</time>
      </trkpt>
      <trkpt lat="49.11898" lon="2.22825">
        <ele>78</ele>
        <time>2016-09-18T12:38:26.000Z</time>
      </trkpt>
      <trkpt lat="49.11898" lon="2.2281">
        <ele>74</ele>
        <time>2016-09-18T12:38:36.000Z</time>
      </trkpt>
      <trkpt lat="49.119" lon="2.22794">
        <ele>69</ele>
        <time>2016-09-18T12:38:44.000Z</time>
      </trkpt>
      <trkpt lat="49.119" lon="2.22778">
        <ele>68</ele>
        <time>2016-09-18T12:38:51.000Z</time>
      </trkpt>
      <trkpt lat="49.11903" lon="2.22763">
        <ele>70</ele>
        <time>2016-09-18T12:38:57.000Z</time>
      </trkpt>
      <trkpt lat="49.11902" lon="2.22749">
        <ele>71</ele>
        <time>2016-09-18T12:39:05.000Z</time>
      </trkpt>
      <trkpt lat="49.11903" lon="2.22734">
        <ele>69</ele>
        <time>2016-09-18T12:39:11.000Z</time>
      </trkpt>
      <trkpt lat="49.11897" lon="2.22724">
        <ele>66</ele>
        <time>2016-09-18T12:39:17.000Z</time>
      </trkpt>
      <trkpt lat="49.11889" lon="2.22719">
        <ele>65</ele>
        <time>2016-09-18T12:39:30.000Z</time>
      </trkpt>
      <trkpt lat="49.11879" lon="2.22717">
        <ele>65</ele>
        <time>2016-09-18T12:39:35.000Z</time>
      </trkpt>
      <trkpt lat="49.1187" lon="2.22712">
        <ele>66</ele>
        <time>2016-09-18T12:39:42.000Z</time>
      </trkpt>
      <trkpt lat="49.11857" lon="2.22709">
        <ele>65</ele>
        <time>2016-09-18T12:39:50.000Z</time>
      </trkpt>
      <trkpt lat="49.11846" lon="2.22707">
        <ele>66</ele>
        <time>2016-09-18T12:39:56.000Z</time>
      </trkpt>
      <trkpt lat="49.11836" lon="2.22707">
        <ele>64</ele>
        <time>2016-09-18T12:40:02.000Z</time>
      </trkpt>
      <trkpt lat="49.11826" lon="2.22705">
        <ele>67</ele>
        <time>2016-09-18T12:40:07.000Z</time>
      </trkpt>
      <trkpt lat="49.11817" lon="2.227">
        <ele>65</ele>
        <time>2016-09-18T12:40:17.000Z</time>
      </trkpt>
      <trkpt lat="49.11808" lon="2.22689">
        <ele>68</ele>
        <time>2016-09-18T12:40:22.000Z</time>
      </trkpt>
      <trkpt lat="49.11804" lon="2.22671">
        <ele>67</ele>
        <time>2016-09-18T12:40:30.000Z</time>
      </trkpt>
      <trkpt lat="49.11802" lon="2.22658">
        <ele>67</ele>
        <time>2016-09-18T12:40:37.000Z</time>
      </trkpt>
      <trkpt lat="49.11799" lon="2.22643">
        <ele>70</ele>
        <time>2016-09-18T12:40:45.000Z</time>
      </trkpt>
      <trkpt lat="49.11795" lon="2.22629">
        <ele>72</ele>
        <time>2016-09-18T12:40:52.000Z</time>
      </trkpt>
      <trkpt lat="49.11794" lon="2.22609">
        <ele>74</ele>
        <time>2016-09-18T12:41:01.000Z</time>
      </trkpt>
      <trkpt lat="49.11792" lon="2.22596">
        <ele>75</ele>
        <time>2016-09-18T12:41:06.000Z</time>
      </trkpt>
      <trkpt lat="49.11787" lon="2.22583">
        <ele>72</ele>
        <time>2016-09-18T12:41:12.000Z</time>
      </trkpt>
      <trkpt lat="49.11786" lon="2.22569">
        <ele>75</ele>
        <time>2016-09-18T12:41:18.000Z</time>
      </trkpt>
      <trkpt lat="49.11782" lon="2.22556">
        <ele>74</ele>
        <time>2016-09-18T12:41:25.000Z</time>
      </trkpt>
      <trkpt lat="49.11779" lon="2.22541">
        <ele>74</ele>
        <time>2016-09-18T12:41:34.000Z</time>
      </trkpt>
      <trkpt lat="49.11774" lon="2.22529">
        <ele>71</ele>
        <time>2016-09-18T12:41:40.000Z</time>
      </trkpt>
      <trkpt lat="49.11769" lon="2.22516">
        <ele>70</ele>
        <time>2016-09-18T12:41:47.000Z</time>
      </trkpt>
      <trkpt lat="49.11765" lon="2.22503">
        <ele>69</ele>
        <time>2016-09-18T12:41:53.000Z</time>
      </trkpt>
      <trkpt lat="49.11763" lon="2.22487">
        <ele>69</ele>
        <time>2016-09-18T12:42:00.000Z</time>
      </trkpt>
      <trkpt lat="49.11761" lon="2.22474">
        <ele>70</ele>
        <time>2016-09-18T12:42:07.000Z</time>
      </trkpt>
      <trkpt lat="49.11755" lon="2.22462">
        <ele>70</ele>
        <time>2016-09-18T12:42:13.000Z</time>
      </trkpt>
      <trkpt lat="49.1175" lon="2.22449">
        <ele>69</ele>
        <time>2016-09-18T12:42:19.000Z</time>
      </trkpt>
      <trkpt lat="49.11746" lon="2.22432">
        <ele>69</ele>
        <time>2016-09-18T12:42:27.000Z</time>
      </trkpt>
      <trkpt lat="49.11745" lon="2.22419">
        <ele>68</ele>
        <time>2016-09-18T12:42:33.000Z</time>
      </trkpt>
      <trkpt lat="49.11743" lon="2.22404">
        <ele>70</ele>
        <time>2016-09-18T12:42:39.000Z</time>
      </trkpt>
      <trkpt lat="49.11741" lon="2.2239">
        <ele>72</ele>
        <time>2016-09-18T12:42:45.000Z</time>
      </trkpt>
      <trkpt lat="49.11737" lon="2.22376">
        <ele>73</ele>
        <time>2016-09-18T12:42:51.000Z</time>
      </trkpt>
      <trkpt lat="49.11732" lon="2.22364">
        <ele>72</ele>
        <time>2016-09-18T12:42:58.000Z</time>
      </trkpt>
      <trkpt lat="49.1173" lon="2.22347">
        <ele>73</ele>
        <time>2016-09-18T12:43:05.000Z</time>
      </trkpt>
      <trkpt lat="49.11728" lon="2.2233">
        <ele>73</ele>
        <time>2016-09-18T12:43:13.000Z</time>
      </trkpt>
      <trkpt lat="49.11725" lon="2.22316">
        <ele>74</ele>
        <time>2016-09-18T12:43:19.000Z</time>
      </trkpt>
      <trkpt lat="49.1172" lon="2.223">
        <ele>72</ele>
        <time>2016-09-18T12:43:28.000Z</time>
      </trkpt>
      <trkpt lat="49.11717" lon="2.22288">
        <ele>72</ele>
        <time>2016-09-18T12:43:34.000Z</time>
      </trkpt>
      <trkpt lat="49.11713" lon="2.22269">
        <ele>73</ele>
        <time>2016-09-18T12:43:41.000Z</time>
      </trkpt>
      <trkpt lat="49.11709" lon="2.22257">
        <ele>70</ele>
        <time>2016-09-18T12:43:46.000Z</time>
      </trkpt>
      <trkpt lat="49.11706" lon="2.22243">
        <ele>72</ele>
        <time>2016-09-18T12:43:53.000Z</time>
      </trkpt>
      <trkpt lat="49.11701" lon="2.22231">
        <ele>70</ele>
        <time>2016-09-18T12:44:01.000Z</time>
      </trkpt>
      <trkpt lat="49.11698" lon="2.22216">
        <ele>66</ele>
        <time>2016-09-18T12:44:07.000Z</time>
      </trkpt>
      <trkpt lat="49.11694" lon="2.22202">
        <ele>66</ele>
        <time>2016-09-18T12:44:14.000Z</time>
      </trkpt>
      <trkpt lat="49.11691" lon="2.22188">
        <ele>68</ele>
        <time>2016-09-18T12:44:19.000Z</time>
      </trkpt>
      <trkpt lat="49.11689" lon="2.22174">
        <ele>64</ele>
        <time>2016-09-18T12:44:27.000Z</time>
      </trkpt>
      <trkpt lat="49.11687" lon="2.22159">
        <ele>65</ele>
        <time>2016-09-18T12:44:33.000Z</time>
      </trkpt>
      <trkpt lat="49.11684" lon="2.22145">
        <ele>67</ele>
        <time>2016-09-18T12:44:39.000Z</time>
      </trkpt>
      <trkpt lat="49.11681" lon="2.22131">
        <ele>69</ele>
        <time>2016-09-18T12:44:44.000Z</time>
      </trkpt>
      <trkpt lat="49.11676" lon="2.22117">
        <ele>69</ele>
        <time>2016-09-18T12:44:49.000Z</time>
      </trkpt>
      <trkpt lat="49.11672" lon="2.22104">
        <ele>66</ele>
        <time>2016-09-18T12:44:55.000Z</time>
      </trkpt>
      <trkpt lat="49.11668" lon="2.22091">
        <ele>65</ele>
        <time>2016-09-18T12:45:02.000Z</time>
      </trkpt>
      <trkpt lat="49.11667" lon="2.22073">
        <ele>68</ele>
        <time>2016-09-18T12:45:10.000Z</time>
      </trkpt>
      <trkpt lat="49.11663" lon="2.22057">
        <ele>68</ele>
        <time>2016-09-18T12:45:17.000Z</time>
      </trkpt>
      <trkpt lat="49.1166" lon="2.22044">
        <ele>68</ele>
        <time>2016-09-18T12:45:23.000Z</time>
      </trkpt>
      <trkpt lat="49.11656" lon="2.22028">
        <ele>69</ele>
        <time>2016-09-18T12:45:29.000Z</time>
      </trkpt>
      <trkpt lat="49.11649" lon="2.22009">
        <ele>69</ele>
        <time>2016-09-18T12:45:36.000Z</time>
      </trkpt>
      <trkpt lat="49.11646" lon="2.21993">
        <ele>62</ele>
        <time>2016-09-18T12:45:46.000Z</time>
      </trkpt>
      <trkpt lat="49.11644" lon="2.21978">
        <ele>64</ele>
        <time>2016-09-18T12:45:52.000Z</time>
      </trkpt>
      <trkpt lat="49.1164" lon="2.21964">
        <ele>68</ele>
        <time>2016-09-18T12:45:58.000Z</time>
      </trkpt>
      <trkpt lat="49.11637" lon="2.21946">
        <ele>70</ele>
        <time>2016-09-18T12:46:06.000Z</time>
      </trkpt>
      <trkpt lat="49.11634" lon="2.21933">
        <ele>69</ele>
        <time>2016-09-18T12:46:12.000Z</time>
      </trkpt>
      <trkpt lat="49.1163" lon="2.21919">
        <ele>67</ele>
        <time>2016-09-18T12:46:19.000Z</time>
      </trkpt>
      <trkpt lat="49.11626" lon="2.21904">
        <ele>67</ele>
        <time>2016-09-18T12:46:26.000Z</time>
      </trkpt>
      <trkpt lat="49.11622" lon="2.21887">
        <ele>69</ele>
        <time>2016-09-18T12:46:34.000Z</time>
      </trkpt>
      <trkpt lat="49.11621" lon="2.21873">
        <ele>68</ele>
        <time>2016-09-18T12:46:41.000Z</time>
      </trkpt>
      <trkpt lat="49.11619" lon="2.21859">
        <ele>67</ele>
        <time>2016-09-18T12:46:47.000Z</time>
      </trkpt>
      <trkpt lat="49.11615" lon="2.21845">
        <ele>64</ele>
        <time>2016-09-18T12:46:56.000Z</time>
      </trkpt>
      <trkpt lat="49.1161" lon="2.21833">
        <ele>65</ele>
        <time>2016-09-18T12:47:02.000Z</time>
      </trkpt>
      <trkpt lat="49.11603" lon="2.21819">
        <ele>65</ele>
        <time>2016-09-18T12:47:10.000Z</time>
      </trkpt>
      <trkpt lat="49.116" lon="2.21805">
        <ele>67</ele>
        <time>2016-09-18T12:47:16.000Z</time>
      </trkpt>
      <trkpt lat="49.11596" lon="2.21791">
        <ele>69</ele>
        <time>2016-09-18T12:47:22.000Z</time>
      </trkpt>
      <trkpt lat="49.11592" lon="2.21774">
        <ele>74</ele>
        <time>2016-09-18T12:47:29.000Z</time>
      </trkpt>
      <trkpt lat="49.11589" lon="2.21759">
        <ele>74</ele>
        <time>2016-09-18T12:47:36.000Z</time>
      </trkpt>
      <trkpt lat="49.11586" lon="2.21743">
        <ele>74</ele>
        <time>2016-09-18T12:47:43.000Z</time>
      </trkpt>
      <trkpt lat="49.11587" lon="2.21728">
        <ele>74</ele>
        <time>2016-09-18T12:47:50.000Z</time>
      </trkpt>
      <trkpt lat="49.11581" lon="2.21717">
        <ele>73</ele>
        <time>2016-09-18T12:47:56.000Z</time>
      </trkpt>
      <trkpt lat="49.1158" lon="2.21703">
        <ele>75</ele>
        <time>2016-09-18T12:48:03.000Z</time>
      </trkpt>
      <trkpt lat="49.11574" lon="2.21691">
        <ele>70</ele>
        <time>2016-09-18T12:48:11.000Z</time>
      </trkpt>
      <trkpt lat="49.11572" lon="2.21676">
        <ele>67</ele>
        <time>2016-09-18T12:50:24.000Z</time>
      </trkpt>
      <trkpt lat="49.11562" lon="2.21667">
        <ele>62</ele>
        <time>2016-09-18T12:50:33.000Z</time>
      </trkpt>
      <trkpt lat="49.11554" lon="2.21654">
        <ele>64</ele>
        <time>2016-09-18T12:50:40.000Z</time>
      </trkpt>
      <trkpt lat="49.11552" lon="2.21638">
        <ele>66</ele>
        <time>2016-09-18T12:50:47.000Z</time>
      </trkpt>
      <trkpt lat="49.11545" lon="2.21628">
        <ele>68</ele>
        <time>2016-09-18T12:50:57.000Z</time>
      </trkpt>
      <trkpt lat="49.11536" lon="2.2162">
        <ele>69</ele>
        <time>2016-09-18T12:51:07.000Z</time>
      </trkpt>
      <trkpt lat="49.11529" lon="2.21612">
        <ele>70</ele>
        <time>2016-09-18T12:51:16.000Z</time>
      </trkpt>
      <trkpt lat="49.1152" lon="2.21609">
        <ele>73</ele>
        <time>2016-09-18T12:51:22.000Z</time>
      </trkpt>
      <trkpt lat="49.11509" lon="2.21605">
        <ele>71</ele>
        <time>2016-09-18T12:51:29.000Z</time>
      </trkpt>
      <trkpt lat="49.11501" lon="2.21598">
        <ele>67</ele>
        <time>2016-09-18T12:51:35.000Z</time>
      </trkpt>
      <trkpt lat="49.11493" lon="2.2159">
        <ele>65</ele>
        <time>2016-09-18T12:51:41.000Z</time>
      </trkpt>
      <trkpt lat="49.11483" lon="2.21584">
        <ele>65</ele>
        <time>2016-09-18T12:51:47.000Z</time>
      </trkpt>
      <trkpt lat="49.11475" lon="2.21575">
        <ele>65</ele>
        <time>2016-09-18T12:51:54.000Z</time>
      </trkpt>
      <trkpt lat="49.11468" lon="2.21565">
        <ele>65</ele>
        <time>2016-09-18T12:52:01.000Z</time>
      </trkpt>
      <trkpt lat="49.11462" lon="2.21551">
        <ele>65</ele>
        <time>2016-09-18T12:52:08.000Z</time>
      </trkpt>
      <trkpt lat="49.11456" lon="2.21537">
        <ele>69</ele>
        <time>2016-09-18T12:52:14.000Z</time>
      </trkpt>
      <trkpt lat="49.11451" lon="2.2152">
        <ele>70</ele>
        <time>2016-09-18T12:52:23.000Z</time>
      </trkpt>
      <trkpt lat="49.11445" lon="2.21505">
        <ele>69</ele>
        <time>2016-09-18T12:52:31.000Z</time>
      </trkpt>
      <trkpt lat="49.1144" lon="2.21493">
        <ele>69</ele>
        <time>2016-09-18T12:52:36.000Z</time>
      </trkpt>
      <trkpt lat="49.11433" lon="2.2148">
        <ele>70</ele>
        <time>2016-09-18T12:52:45.000Z</time>
      </trkpt>
      <trkpt lat="49.11427" lon="2.21466">
        <ele>72</ele>
        <time>2016-09-18T12:52:53.000Z</time>
      </trkpt>
      <trkpt lat="49.1142" lon="2.21454">
        <ele>72</ele>
        <time>2016-09-18T12:53:03.000Z</time>
      </trkpt>
      <trkpt lat="49.11416" lon="2.2144">
        <ele>71</ele>
        <time>2016-09-18T12:53:09.000Z</time>
      </trkpt>
      <trkpt lat="49.11415" lon="2.21425">
        <ele>72</ele>
        <time>2016-09-18T12:53:17.000Z</time>
      </trkpt>
      <trkpt lat="49.11412" lon="2.21411">
        <ele>72</ele>
        <time>2016-09-18T12:53:24.000Z</time>
      </trkpt>
      <trkpt lat="49.11403" lon="2.21405">
        <ele>68</ele>
        <time>2016-09-18T12:53:30.000Z</time>
      </trkpt>
      <trkpt lat="49.11394" lon="2.21403">
        <ele>66</ele>
        <time>2016-09-18T12:53:36.000Z</time>
      </trkpt>
      <trkpt lat="49.11386" lon="2.21396">
        <ele>62</ele>
        <time>2016-09-18T12:53:43.000Z</time>
      </trkpt>
      <trkpt lat="49.11383" lon="2.2138">
        <ele>61</ele>
        <time>2016-09-18T12:53:50.000Z</time>
      </trkpt>
      <trkpt lat="49.11379" lon="2.21367">
        <ele>61</ele>
        <time>2016-09-18T12:53:56.000Z</time>
      </trkpt>
      <trkpt lat="49.1137" lon="2.2136">
        <ele>67</ele>
        <time>2016-09-18T12:54:01.000Z</time>
      </trkpt>
      <trkpt lat="49.1136" lon="2.21355">
        <ele>68</ele>
        <time>2016-09-18T12:54:09.000Z</time>
      </trkpt>
      <trkpt lat="49.1135" lon="2.21352">
        <ele>69</ele>
        <time>2016-09-18T12:54:16.000Z</time>
      </trkpt>
      <trkpt lat="49.11341" lon="2.21352">
        <ele>68</ele>
        <time>2016-09-18T12:54:23.000Z</time>
      </trkpt>
      <trkpt lat="49.11326" lon="2.21345">
        <ele>69</ele>
        <time>2016-09-18T12:54:37.000Z</time>
      </trkpt>
      <trkpt lat="49.11316" lon="2.21341">
        <ele>67</ele>
        <time>2016-09-18T12:54:43.000Z</time>
      </trkpt>
      <trkpt lat="49.11307" lon="2.21338">
        <ele>69</ele>
        <time>2016-09-18T12:54:49.000Z</time>
      </trkpt>
      <trkpt lat="49.11298" lon="2.21332">
        <ele>67</ele>
        <time>2016-09-18T12:54:57.000Z</time>
      </trkpt>
      <trkpt lat="49.11299" lon="2.21319">
        <ele>67</ele>
        <time>2016-09-18T12:55:04.000Z</time>
      </trkpt>
      <trkpt lat="49.11303" lon="2.21305">
        <ele>67</ele>
        <time>2016-09-18T12:55:18.000Z</time>
      </trkpt>
      <trkpt lat="49.11309" lon="2.21293">
        <ele>66</ele>
        <time>2016-09-18T12:55:22.000Z</time>
      </trkpt>
      <trkpt lat="49.11313" lon="2.21279">
        <ele>67</ele>
        <time>2016-09-18T12:55:28.000Z</time>
      </trkpt>
      <trkpt lat="49.11317" lon="2.21264">
        <ele>68</ele>
        <time>2016-09-18T12:55:34.000Z</time>
      </trkpt>
      <trkpt lat="49.11321" lon="2.21251">
        <ele>68</ele>
        <time>2016-09-18T12:55:40.000Z</time>
      </trkpt>
      <trkpt lat="49.11319" lon="2.21237">
        <ele>69</ele>
        <time>2016-09-18T12:55:44.000Z</time>
      </trkpt>
      <trkpt lat="49.11321" lon="2.21223">
        <ele>69</ele>
        <time>2016-09-18T12:55:51.000Z</time>
      </trkpt>
      <trkpt lat="49.11326" lon="2.21212">
        <ele>67</ele>
        <time>2016-09-18T12:55:57.000Z</time>
      </trkpt>
      <trkpt lat="49.1133" lon="2.21197">
        <ele>69</ele>
        <time>2016-09-18T12:56:04.000Z</time>
      </trkpt>
      <trkpt lat="49.11334" lon="2.21183">
        <ele>70</ele>
        <time>2016-09-18T12:56:09.000Z</time>
      </trkpt>
      <trkpt lat="49.11343" lon="2.2118">
        <ele>68</ele>
        <time>2016-09-18T12:56:13.000Z</time>
      </trkpt>
      <trkpt lat="49.11343" lon="2.21165">
        <ele>75</ele>
        <time>2016-09-18T12:56:27.000Z</time>
      </trkpt>
      <trkpt lat="49.11344" lon="2.21151">
        <ele>75</ele>
        <time>2016-09-18T12:56:32.000Z</time>
      </trkpt>
      <trkpt lat="49.11347" lon="2.21136">
        <ele>74</ele>
        <time>2016-09-18T12:56:44.000Z</time>
      </trkpt>
      <trkpt lat="49.11351" lon="2.21122">
        <ele>74</ele>
        <time>2016-09-18T12:56:48.000Z</time>
      </trkpt>
      <trkpt lat="49.11356" lon="2.2111">
        <ele>76</ele>
        <time>2016-09-18T12:56:52.000Z</time>
      </trkpt>
      <trkpt lat="49.11359" lon="2.21096">
        <ele>75</ele>
        <time>2016-09-18T12:56:57.000Z</time>
      </trkpt>
      <trkpt lat="49.11361" lon="2.21081">
        <ele>72</ele>
        <time>2016-09-18T12:57:04.000Z</time>
      </trkpt>
      <trkpt lat="49.11363" lon="2.21065">
        <ele>70</ele>
        <time>2016-09-18T12:57:10.000Z</time>
      </trkpt>
      <trkpt lat="49.11362" lon="2.21046">
        <ele>71</ele>
        <time>2016-09-18T12:57:17.000Z</time>
      </trkpt>
      <trkpt lat="49.11365" lon="2.21028">
        <ele>69</ele>
        <time>2016-09-18T12:57:24.000Z</time>
      </trkpt>
      <trkpt lat="49.11368" lon="2.21014">
        <ele>69</ele>
        <time>2016-09-18T12:57:32.000Z</time>
      </trkpt>
      <trkpt lat="49.11369" lon="2.21">
        <ele>73</ele>
        <time>2016-09-18T12:57:38.000Z</time>
      </trkpt>
      <trkpt lat="49.11371" lon="2.20986">
        <ele>76</ele>
        <time>2016-09-18T12:57:43.000Z</time>
      </trkpt>
      <trkpt lat="49.11378" lon="2.20976">
        <ele>77</ele>
        <time>2016-09-18T12:57:49.000Z</time>
      </trkpt>
      <trkpt lat="49.11388" lon="2.20977">
        <ele>75</ele>
        <time>2016-09-18T12:57:57.000Z</time>
      </trkpt>
      <trkpt lat="49.11397" lon="2.20983">
        <ele>75</ele>
        <time>2016-09-18T12:58:04.000Z</time>
      </trkpt>
      <trkpt lat="49.11407" lon="2.20987">
        <ele>73</ele>
        <time>2016-09-18T12:58:13.000Z</time>
      </trkpt>
      <trkpt lat="49.11417" lon="2.20994">
        <ele>74</ele>
        <time>2016-09-18T12:58:23.000Z</time>
      </trkpt>
      <trkpt lat="49.11425" lon="2.20993">
        <ele>76</ele>
        <time>2016-09-18T12:59:32.000Z</time>
      </trkpt>
    </trkseg>
  </trk>
</gpx>